Date StartTime U_cm/s V_cm/s W_cm/s Ustd_cm/s Vstd_cm/s Wstd_cm/s Uvar_(cm/s)^2 Vvar_(cm/s)^2 Wvar_(cm/s)^2 KE_(m/s)^2 TurbulentKE_(m/s)^2 HorizWindSpeed_cm/s FrictionSpeec_cm/s DragCoef SpeedOfSound_m/s SonicTemperature_C Pressure_mb 
03/31/2014  00:00:00      -90.890      -70.035       -0.998       47.220       41.318       23.392     2229.729     1707.171      547.173        0.882        0.224      114.742       19.033        0.028      334.756        4.939      859.256
03/31/2014  00:01:00      -58.315      -27.990       -4.710       16.647       25.416       11.554      277.116      645.979      133.485        0.263        0.053       64.685        9.116        0.020      334.801        5.014      859.246
03/31/2014  00:02:00      -56.092        7.681       -2.277       16.580       16.016       12.483      274.898      256.515      155.833        0.195        0.034       56.615        9.995        0.031      334.825        5.055      859.231
03/31/2014  00:03:00      -43.117      -17.967       -2.609       16.940       19.516       11.230      286.975      380.861      126.117        0.149        0.040       46.711        9.261        0.039      334.910        5.195      859.219
03/31/2014  00:04:00      -55.380      -37.277       -0.102       25.742       27.447       13.309      662.625      753.350      177.136        0.302        0.080       66.758       12.261        0.034      334.930        5.226      859.197
03/31/2014  00:05:00        3.032      -15.274       11.967       14.661       15.385       13.892      214.933      236.713      192.980        0.052        0.032       15.572       12.793        0.675      334.991        5.329      859.181
03/31/2014  00:06:00        4.289       19.087       37.634       21.118       22.912       25.567      445.985      524.973      653.674        0.171        0.081       19.563       24.112        1.519      334.970        5.294      859.166
03/31/2014  00:07:00        0.904       45.075       61.559       34.550       32.471       28.160     1193.706     1054.394      792.998        0.443        0.152       45.084       29.653        0.433      334.928        5.225      859.146
03/31/2014  00:08:00       21.451       19.967       19.713       30.259       29.284       15.706      915.602      857.527      246.670        0.163        0.101       29.306       12.467        0.181      334.884        5.151      859.129
03/31/2014  00:09:00       10.004      -17.576       26.918       24.075       41.055       27.049      579.582     1685.480      731.667        0.206        0.150       20.224       27.141        1.801      335.053        5.433      859.120
03/31/2014  00:10:00      -10.709      -46.777       -8.370       21.021       40.106       23.229      441.892     1608.480      539.589        0.248        0.129       47.987       24.205        0.254      335.019        5.376      859.124
03/31/2014  00:11:00      -42.809      -40.491        3.900       55.157       37.603       22.076     3042.273     1414.004      487.333        0.421        0.247       58.925       20.489        0.121      335.017        5.374      859.121
03/31/2014  00:12:00      -99.539      -97.232       -7.366       25.787       28.611       23.643      664.974      818.572      558.985        1.073        0.102      139.147       16.131        0.013      334.888        5.158      859.121
03/31/2014  00:13:00      -96.312      -92.172       -2.424       33.860       28.342       23.988     1146.523      803.247      575.418        1.015        0.126      133.310       19.737        0.022      334.882        5.148      859.124
03/31/2014  00:14:00      -72.433     -106.133        3.764       63.344       66.152       32.738     4012.432     4376.077     1071.781        1.299        0.473      128.494       35.433        0.076      334.802        5.015      859.128
03/31/2014  00:15:00     -115.577     -120.610       -6.934       63.125       63.551       27.096     3984.732     4038.707      734.169        1.835        0.438      167.047       29.974        0.032      334.640        4.745      859.117
03/31/2014  00:16:00     -118.963      -83.866       -1.667       78.596       34.909       23.620     6177.280     1218.671      557.891        1.457        0.398      145.553       24.584        0.029      334.646        4.756      859.105
03/31/2014  00:17:00      -88.577      -71.980       -2.749       27.257       28.429       23.044      742.943      808.188      531.036        0.756        0.104      114.136       18.849        0.027      334.689        4.827      859.085
03/31/2014  00:18:00      -61.252      -64.988       -5.766       33.594       26.314       19.415     1128.573      692.429      376.942        0.510        0.110       89.304       19.929        0.050      334.769        4.960      859.070
03/31/2014  00:19:00      -21.629        3.321       11.667       17.674       20.288       14.271      312.362      411.620      203.666        0.077        0.046       21.882       13.900        0.403      334.832        5.064      859.060
03/31/2014  00:20:00        6.480       -2.754        6.832       23.034       12.241       15.780      530.552      149.833      249.000        0.051        0.046        7.041       15.048        4.568      334.841        5.080      859.049
03/31/2014  00:21:00      -34.247       -5.297        9.177       26.266       18.528       14.330      689.920      343.291      205.354        0.126        0.062       34.654       15.141        0.191      334.869        5.126      859.052
03/31/2014  00:22:00      -50.972      -41.478        5.850       43.364       34.369       20.525     1880.419     1181.240      421.276        0.392        0.174       65.716       22.883        0.121      334.859        5.109      859.056
03/31/2014  00:23:00      -60.319      -75.178       -0.319       51.623       59.311       26.629     2664.937     3517.800      709.109        0.809        0.345       96.385       34.224        0.126      334.877        5.138      859.069
03/31/2014  00:24:00     -159.406     -172.033      -14.769       55.468       45.732       30.973     3076.646     2091.373      959.341        3.067        0.306      234.533       28.449        0.015      334.684        4.814      859.079
03/31/2014  00:25:00     -143.410     -143.139      -13.295       32.709       49.400       22.917     1069.875     2440.380      525.189        2.263        0.202      202.621       14.148        0.005      334.619        4.708      859.082
03/31/2014  00:26:00      -80.449      -75.750       -1.413       30.637       42.504       18.122      938.637     1806.631      328.393        0.764        0.154      110.499       22.001        0.040      334.666        4.788      859.061
03/31/2014  00:27:00      -45.579      -64.924        4.185       26.252       19.249       16.004      689.188      370.514      256.141        0.381        0.066       79.326       13.927        0.031      334.744        4.918      859.056
03/31/2014  00:28:00      -68.792      -13.435       -5.663       21.338       22.649       17.998      455.290      512.980      323.911        0.312        0.065       70.091       15.053        0.046      334.715        4.870      859.036
03/31/2014  00:29:00      -46.618       11.466       -2.848       42.551       14.359       12.007     1810.606      206.190      144.177        0.224        0.108       48.007       15.691        0.107      334.757        4.941      859.024
03/31/2014  00:30:00      -20.805      -93.001      -21.731       51.841       49.610       27.694     2687.477     2461.197      766.945        0.773        0.296       95.299       23.317        0.060      334.900        5.178      859.039
03/31/2014  00:31:00      -83.723     -127.093      -14.545       63.098       53.272       32.733     3981.319     2837.916     1071.467        1.563        0.395      152.191       30.100        0.039      334.731        4.896      859.051
03/31/2014  00:32:00      -67.658      -44.974        7.478       63.082       36.679       28.122     3979.307     1345.325      790.841        0.638        0.306       81.242       30.497        0.141      334.738        4.909      859.054
03/31/2014  00:33:00     -109.144      -55.073       -0.137       57.909       41.632       27.945     3353.422     1733.235      780.915        1.041        0.293      122.252       31.123        0.065      334.732        4.898      859.064
03/31/2014  00:34:00     -116.295      -95.844       -5.987       43.091       48.364       21.347     1856.833     2339.107      455.688        1.370        0.233      150.700       17.560        0.014      334.776        4.971      859.076
03/31/2014  00:35:00     -130.424      -93.928      -11.679       30.687       32.147       22.847      941.703     1033.455      521.970        1.423        0.125      160.726       18.687        0.014      334.805        5.017      859.094
03/31/2014  00:36:00      -90.412      -63.050        8.764       34.408       40.331       22.248     1183.910     1626.555      494.960        0.777        0.165      110.226       19.584        0.032      334.880        5.146      859.102
03/31/2014  00:37:00     -107.407      -93.945      -10.748       37.230       32.811       23.975     1386.082     1076.563      574.811        1.176        0.152      142.696       15.517        0.012      334.972        5.297      859.105
03/31/2014  00:38:00       -9.660      -18.171        8.425       15.446       24.344       15.810      238.593      592.653      249.942        0.079        0.054       20.579       16.715        0.660      335.030        5.393      859.091
03/31/2014  00:39:00       -2.912       21.475        3.435       46.361       26.121       21.479     2149.309      682.318      461.332        0.189        0.165       21.671       14.992        0.479      335.050        5.429      859.078
03/31/2014  00:40:00       15.828       34.659       23.594       43.920       23.667       29.624     1928.926      560.149      877.555        0.269        0.168       38.102       23.304        0.374      335.089        5.492      859.064
03/31/2014  00:41:00       20.117      -88.521       -3.334       67.412       67.011       33.692     4544.392     4490.430     1135.143        0.921        0.508       90.778       35.239        0.151      335.214        5.699      859.058
03/31/2014  00:42:00        5.669     -157.920        1.883       45.698       71.456       31.818     2088.325     5106.030     1012.396        1.659        0.410      158.022       29.565        0.035      334.941        5.245      859.047
03/31/2014  00:43:00     -108.265      -67.597       -6.415       40.039       36.486       26.758     1603.093     1331.199      715.984        0.999        0.183      127.635       18.191        0.020      334.820        5.045      859.032
03/31/2014  00:44:00      -74.722       -9.367        6.210       51.392       31.096       23.169     2641.132      966.959      536.814        0.493        0.207       75.307       30.496        0.164      334.774        4.968      859.014
03/31/2014  00:45:00     -102.546      -47.512       -5.235       44.466       34.398       18.318     1977.225     1183.206      335.564        0.815        0.175      113.019        8.467        0.006      334.780        4.979      859.011
03/31/2014  00:46:00      -68.027      -22.674        4.455       38.922       29.026       22.707     1514.928      842.484      515.615        0.402        0.144       71.706       19.567        0.074      334.744        4.919      859.015
03/31/2014  00:47:00      -99.334      -56.820       -8.764       21.713       46.719       19.601      471.463     2182.680      384.181        0.810        0.152      114.437       15.185        0.018      334.763        4.949      859.021
03/31/2014  00:48:00      -75.687      -16.221      -14.436       33.389       22.100       14.700     1114.809      488.390      216.088        0.401        0.091       77.406       12.892        0.028      334.774        4.971      859.023
03/31/2014  00:49:00      -42.065       -9.189        4.972       21.945       22.634       16.311      481.587      512.285      266.041        0.157        0.063       43.057        8.018        0.035      334.775        4.969      859.021
03/31/2014  00:50:00      -74.498      -41.523       -5.957       27.014       25.396       16.178      729.739      644.947      261.731        0.447        0.082       85.288       13.207        0.024      334.792        4.998      859.011
03/31/2014  00:51:00      -56.965      -29.504       -3.823       23.493       28.912       14.506      551.930      835.884      210.410        0.286        0.080       64.152       15.798        0.061      334.834        5.068      858.990
03/31/2014  00:52:00      -20.972       -7.065       16.632       35.072       14.276       19.793     1230.038      203.815      391.773        0.130        0.091       22.130       24.428        1.218      334.892        5.164      858.962
03/31/2014  00:53:00        8.223       24.842       18.776       20.685       20.439       12.550      427.856      417.736      157.510        0.102        0.050       26.168       13.493        0.266      334.833        5.064      858.929
03/31/2014  00:54:00      -17.210       28.440        8.414       22.029       23.993       15.644      485.256      575.686      244.724        0.124        0.065       33.242       16.853        0.257      334.820        5.044      858.914
03/31/2014  00:55:00      -71.050       23.164       -0.130       34.210       16.043       16.382     1170.308      257.384      268.371        0.364        0.085       74.731       14.220        0.036      334.840        5.075      858.906
03/31/2014  00:56:00      -30.729       12.358       11.116       23.032       20.349       15.591      530.482      414.085      243.072        0.120        0.059       33.120       14.001        0.179      334.890        5.162      858.912
03/31/2014  00:57:00       34.756       77.291       58.344       44.740       24.235       34.590     2001.625      587.336     1196.448        0.718        0.189       84.746       33.926        0.160      334.917        5.206      858.920
03/31/2014  00:58:00       67.115       61.423       21.165       29.439       19.791       25.214      866.655      391.666      635.757        0.531        0.095       90.979        7.852        0.007      334.751        4.930      858.922
03/31/2014  00:59:00       23.176       27.717        3.588       24.265       29.547       21.415      588.791      873.032      458.614        0.162        0.096       36.130       15.963        0.195      334.808        5.025      858.914
03/31/2014  01:00:00       26.544       65.632       -5.683       27.682       38.329       21.508      766.284     1469.088      462.600        0.387        0.135       70.797       19.179        0.073      334.716        4.872      858.922
03/31/2014  01:01:00       17.184       91.503       -8.942       15.067       28.089       15.154      227.026      789.008      229.633        0.500        0.062       93.102       10.474        0.013      334.686        4.822      858.920
03/31/2014  01:02:00       23.191       45.190       -7.502       15.579       22.301        9.527      242.706      497.344       90.757        0.173        0.042       50.793        7.732        0.023      334.706        4.855      858.917
03/31/2014  01:03:00       46.261       44.046        1.727       24.920       27.813       19.741      620.998      773.578      389.700        0.293        0.089       63.876       15.949        0.062      334.695        4.838      858.915
03/31/2014  01:04:00       39.980       43.507       -7.180       20.780       20.265       15.942      431.800      410.685      254.161        0.232        0.055       59.087       11.348        0.037      334.700        4.846      858.923
03/31/2014  01:05:00       19.125       32.370       -6.727       12.423       16.578        7.980      154.320      274.824       63.687        0.098        0.025       37.598        4.220        0.013      334.695        4.839      858.924
03/31/2014  01:06:00       32.803       39.852       -0.298       22.343       21.804       12.816      499.197      475.403      164.242        0.190        0.057       51.616       12.295        0.057      334.749        4.926      858.927
03/31/2014  01:07:00       71.190       54.910       12.618       23.062       19.151       16.302      531.863      366.755      265.768        0.470        0.058       89.906       10.956        0.015      334.686        4.821      858.930
03/31/2014  01:08:00       94.572       53.286        7.634       25.618       24.848       21.639      656.279      617.426      468.240        0.679        0.087      108.551       14.029        0.017      334.681        4.812      858.926
03/31/2014  01:09:00       96.205       51.867       -2.430       27.219       22.941       26.036      740.873      526.281      677.861        0.695        0.097      109.296       16.857        0.024      334.670        4.794      858.929
03/31/2014  01:10:00       91.346       47.726        4.162       27.344       26.190       20.043      747.701      685.906      401.726        0.624        0.092      103.062       12.624        0.015      334.689        4.826      858.928
03/31/2014  01:11:00      102.438       74.376        4.090       31.682       23.587       22.782     1003.744      556.326      519.022        0.906        0.104      126.591       12.630        0.010      334.671        4.796      858.922
03/31/2014  01:12:00       78.036       82.231        6.844       27.087       20.718       21.411      733.715      429.228      458.450        0.726        0.081      113.365        5.550        0.002      334.675        4.802      858.912
03/31/2014  01:13:00      115.140       58.154       -0.486       23.636       21.858       20.376      558.662      477.782      415.162        0.905        0.073      128.992       11.036        0.007      334.689        4.826      858.901
03/31/2014  01:14:00      105.270       57.548        4.974       31.099       23.924       22.482      967.155      572.368      505.460        0.823        0.102      119.973       15.559        0.017      334.693        4.834      858.896
03/31/2014  01:15:00       95.780       51.060        5.274       33.964       25.962       24.369     1153.541      674.048      593.836        0.711        0.121      108.540       14.969        0.019      334.697        4.839      858.880
03/31/2014  01:16:00       73.129       36.676        8.782       37.441       26.481       21.651     1401.824      701.221      468.785        0.467        0.129       81.811       19.597        0.057      334.803        5.017      858.859
03/31/2014  01:17:00       52.749       64.963       68.257       46.548       38.859       44.638     2166.714     1510.046     1992.527        0.866        0.283       83.682       32.561        0.151      334.891        5.163      858.837
03/31/2014  01:18:00       78.870       83.137       69.118       41.183       27.230       31.825     1696.051      741.489     1012.813        1.068        0.173      114.596       22.693        0.039      334.925        5.219      858.824
03/31/2014  01:19:00       89.461       53.180       26.434       45.069       33.602       28.358     2031.192     1129.092      804.205        0.775        0.198      104.074       22.035        0.045      334.901        5.180      858.814
03/31/2014  01:20:00       59.976       39.469       24.561       50.821       37.014       25.891     2582.821     1370.037      670.344        0.519        0.231       71.798       11.546        0.026      334.851        5.096      858.802
03/31/2014  01:21:00       22.665       43.692       58.521       31.428       39.324       19.260      987.707     1546.343      370.946        0.438        0.145       49.221       16.467        0.112      334.877        5.141      858.792
03/31/2014  01:22:00       79.338       80.688       52.486       59.067       35.532       41.113     3488.939     1262.558     1690.264        1.100        0.322      113.159       39.912        0.124      334.831        5.063      858.761
03/31/2014  01:23:00       88.066       56.385      -12.245       43.230       47.030       35.350     1868.868     2211.814     1249.616        0.821        0.267      104.570       20.857        0.040      334.902        5.184      858.720
03/31/2014  01:24:00       44.370       20.635        9.484       30.941       33.310       30.938      957.338     1109.555      957.135        0.275        0.151       48.933       17.079        0.122      334.941        5.247      858.699
03/31/2014  01:25:00       35.707       10.546       -6.351       20.590       23.962       15.218      423.933      574.166      231.599        0.133        0.061       37.232       14.058        0.143      334.984        5.317      858.691
03/31/2014  01:26:00       -0.071        0.316        3.181       15.322       18.001       13.462      234.761      324.023      181.231        0.037        0.037        0.324        6.868      449.336      334.978        5.309      858.697
03/31/2014  01:27:00       20.657      -28.259       19.801       20.297       23.982       15.146      411.968      575.121      229.415        0.142        0.061       35.004       13.895        0.158      335.132        5.562      858.702
03/31/2014  01:28:00      -26.652       -8.562        6.954       34.721       21.797       16.402     1205.553      475.110      269.031        0.139        0.097       27.994       20.277        0.525      334.992        5.330      858.711
03/31/2014  01:29:00      -22.461      -22.636        9.962       27.354       14.529       18.276      748.242      211.096      334.025        0.120        0.065       31.889       11.399        0.128      335.006        5.354      858.728
03/31/2014  01:30:00      -77.533      -44.848       -4.039       27.973       24.398       15.367      782.492      595.268      236.145        0.483        0.081       89.570       16.929        0.036      334.934        5.236      858.746
03/31/2014  01:31:00      -42.229      -41.780        7.166       43.246       32.570       23.601     1870.222     1060.775      557.009        0.353        0.174       59.404       26.268        0.196      334.994        5.336      858.761
03/31/2014  01:32:00     -113.295      -83.799        3.425       41.562       35.690       28.530     1727.368     1273.809      813.947        1.184        0.191      140.919       28.695        0.041      334.884        5.151      858.748
03/31/2014  01:33:00     -107.481      -63.630       -6.413       39.404       35.338       21.707     1552.698     1248.750      471.192        0.946        0.164      124.904       17.558        0.020      334.965        5.285      858.735
03/31/2014  01:34:00      -98.777      -69.410       -1.458       48.704       25.237       21.605     2372.109      636.893      466.762        0.903        0.174      120.725       22.681        0.035      334.905        5.187      858.719
03/31/2014  01:35:00      -95.625      -33.810       -7.345       38.407       26.489       20.185     1475.119      701.679      407.421        0.646        0.129      101.426       19.761        0.038      334.876        5.138      858.696
03/31/2014  01:36:00      -90.494       -2.949       -2.315       26.317       30.774       16.460      692.595      947.050      270.924        0.506        0.096       90.542       11.728        0.017      334.897        5.172      858.666
03/31/2014  01:37:00      -83.040       -7.034      -11.196       22.172       19.489       12.394      491.601      379.807      153.611        0.405        0.051       83.337       12.052        0.021      334.877        5.140      858.643
03/31/2014  01:38:00      -18.393      -15.657       -8.010       24.972        8.609        6.315      623.616       74.108       39.875        0.069        0.037       24.154        5.294        0.048      334.844        5.083      858.613
03/31/2014  01:39:00        0.911      -12.738       10.569       12.967       10.504        9.482      168.155      110.328       89.910        0.032        0.018       12.771        7.776        0.371      334.964        5.284      858.591
03/31/2014  01:40:00      -22.359       -5.537       -0.488       17.159        6.731        5.656      294.438       45.305       31.995        0.045        0.019       23.035        6.222        0.073      334.930        5.227      858.573
03/31/2014  01:41:00      -33.679      -28.608      -18.940       14.771       13.735       12.313      218.196      188.656      151.618        0.143        0.028       44.189        6.254        0.020      334.884        5.150      858.562
03/31/2014  01:42:00      -14.720      -22.513      -13.711       12.902       13.971       10.960      166.455      195.181      120.123        0.070        0.024       26.898        7.445        0.077      334.918        5.207      858.560
03/31/2014  01:43:00      -15.583      -12.753        4.200       14.593       21.530       11.793      212.963      463.562      139.081        0.062        0.041       20.136       14.521        0.520      335.014        5.368      858.558
03/31/2014  01:44:00      -15.228        1.280       -3.069       14.976       10.508       11.620      224.270      110.410      135.022        0.036        0.023       15.281        7.323        0.230      334.956        5.271      858.543
03/31/2014  01:45:00       -4.323       -0.227       10.288       17.562       15.792       12.349      308.428      249.372      152.488        0.042        0.036        4.329       11.143        6.626      335.021        5.377      858.527
03/31/2014  01:46:00        1.584       23.065       50.417       19.695       27.627       16.621      387.881      763.259      276.254        0.225        0.071       23.119       15.052        0.424      334.995        5.337      858.505
03/31/2014  01:47:00       -7.524       26.491       58.325        7.791       22.238       14.498       60.701      494.521      210.186        0.246        0.038       27.539       14.075        0.261      334.961        5.279      858.484
03/31/2014  01:48:00        6.950      -17.961       28.441       21.000       51.829       26.787      441.014     2686.243      717.524        0.251        0.192       19.259       33.943        3.106      335.012        5.365      858.470
03/31/2014  01:49:00       -9.480      -39.235      -11.985       23.499       26.161       14.722      552.221      684.395      216.748        0.161        0.073       40.364        2.070        0.003      334.993        5.333      858.447
03/31/2014  01:50:00      -35.033      -11.522        0.987       26.809       10.943       12.160      718.704      119.757      147.854        0.117        0.049       36.879       14.293        0.150      335.006        5.354      858.425
03/31/2014  01:51:00      -33.608      -20.752       -2.360       14.430       16.458        9.806      208.213      270.876       96.149        0.107        0.029       39.498        6.053        0.023      335.006        5.355      858.409
03/31/2014  01:52:00      -69.175      -25.471        1.685       24.759       29.311       13.715      613.029      859.126      188.090        0.355        0.083       73.715       10.317        0.020      334.916        5.203      858.397
03/31/2014  01:53:00      -35.629      -45.395        1.852       30.393       19.186       16.539      923.756      368.112      273.540        0.245        0.078       57.707       13.494        0.055      335.046        5.421      858.393
03/31/2014  01:54:00      -50.259      -41.100        1.009       45.364       25.132       17.013     2057.904      631.615      289.429        0.360        0.149       64.924       12.789        0.039      335.014        5.368      858.406
03/31/2014  01:55:00      -78.620      -36.176        4.440       36.651       28.787       18.276     1343.327      828.670      334.008        0.501        0.125       86.544       20.488        0.056      334.936        5.238      858.398
03/31/2014  01:56:00      -50.490      -33.573        4.856       35.651       26.025       14.016     1270.993      677.295      196.449        0.292        0.107       60.633       14.754        0.059      334.925        5.219      858.393
03/31/2014  01:57:00      -78.317      -13.177        0.616       62.853       21.592       19.204     3950.484      466.203      368.790        0.555        0.239       79.417       26.542        0.112      334.940        5.244      858.386
03/31/2014  01:58:00     -122.368        2.501      -11.558       19.104       36.950       13.844      364.974     1365.287      191.652        0.852        0.096      122.393        9.914        0.007      334.838        5.074      858.372
03/31/2014  01:59:00      -74.317       -3.465      -14.862       34.809       12.958       10.985     1211.692      167.914      120.667        0.363        0.075       74.398       12.240        0.027      334.805        5.021      858.356
03/31/2014  02:00:00      -83.401        4.409       -4.164       23.981       16.344       14.611      575.065      267.139      213.483        0.402        0.053       83.517       14.337        0.029      334.847        5.090      858.342
03/31/2014  02:01:00      -20.852        1.617        4.844       19.065        9.439       13.207      363.478       89.088      174.413        0.054        0.031       20.915       13.608        0.423      334.902        5.181      858.336
03/31/2014  02:02:00       17.000        2.697       14.904       18.547       13.179       13.568      343.978      173.674      184.094        0.061        0.035       17.213        8.080        0.220      334.923        5.217      858.337
03/31/2014  02:03:00       -5.069       -5.264       13.084        9.935        8.639        7.659       98.694       74.641       58.664        0.023        0.012        7.308        4.834        0.438      334.988        5.323      858.343
03/31/2014  02:04:00       -9.206        4.714        9.968       12.739       15.427        8.289      162.293      237.998       68.716        0.034        0.023       10.342        5.073        0.241      334.967        5.290      858.347
03/31/2014  02:05:00      -21.833        9.093        5.301       17.433        8.589       15.298      303.920       73.777      234.015        0.060        0.031       23.651       14.293        0.365      334.928        5.227      858.335
03/31/2014  02:06:00      -11.150       33.214       20.159       26.443       22.969       20.491      699.213      527.595      419.884        0.164        0.082       35.036       17.733        0.256      334.917        5.205      858.315
03/31/2014  02:07:00       12.753       30.575       49.084       22.291       24.173       13.841      496.910      584.349      191.579        0.239        0.064       33.128       11.998        0.131      334.962        5.282      858.299
03/31/2014  02:08:00       39.820       33.035       17.949       18.940       16.249       13.154      358.705      264.037      173.024        0.190        0.040       51.739        6.785        0.017      334.904        5.183      858.278
03/31/2014  02:09:00       11.896       43.419        3.602       20.877       12.914       12.622      435.841      166.771      159.308        0.140        0.038       45.019        6.897        0.023      334.887        5.154      858.264
03/31/2014  02:10:00      -61.899       -4.003      -11.325       22.863       26.843        9.753      522.725      720.526       95.129        0.266        0.067       62.029        2.889        0.002      334.899        5.176      858.260
03/31/2014  02:11:00      -91.623      -91.966      -13.112       55.444       49.746       23.981     3074.079     2474.639      575.102        1.157        0.306      129.817       12.852        0.010      334.899        5.177      858.270
03/31/2014  02:12:00     -114.448      -91.307        3.476       60.720       45.742       28.142     3686.921     2092.326      791.948        1.401        0.329      146.408       30.661        0.044      334.872        5.131      858.271
03/31/2014  02:13:00     -123.070     -110.414       -9.734       57.066       50.155       28.473     3256.509     2515.501      810.730        1.701        0.329      165.340       18.679        0.013      334.908        5.190      858.263
03/31/2014  02:14:00     -131.184     -123.276      -13.362       54.513       51.197       25.444     2971.686     2621.151      647.376        1.941        0.312      180.018       18.192        0.010      334.856        5.102      858.264
03/31/2014  02:15:00     -110.373      -90.643       -2.231       58.207       38.742       25.936     3388.064     1500.944      672.664        1.298        0.278      142.823       24.811        0.030      334.874        5.133      858.264
03/31/2014  02:16:00      -81.043      -79.411       11.366       43.748       34.068       24.052     1913.862     1160.635      578.516        0.833        0.183      113.464       16.510        0.021      334.898        5.175      858.249
03/31/2014  02:17:00      -90.834      -81.789       -4.347       42.943       35.544       22.538     1844.104     1263.346      507.969        0.929        0.181      122.231       11.810        0.009      334.906        5.187      858.249
03/31/2014  02:18:00     -156.882      -64.063       -4.786       44.954       46.086       30.653     2020.861     2123.957      939.625        1.691        0.254      169.458       28.158        0.028      334.834        5.067      858.232
03/31/2014  02:19:00     -161.337      -55.969       -4.285       48.401       43.373       26.791     2342.703     1881.186      717.764        1.706        0.247      170.770       27.929        0.027      334.791        4.994      858.224
03/31/2014  02:20:00     -127.191      -42.501       -0.627       62.498       63.904       25.001     3906.000     4083.711      625.075        1.330        0.431      134.104       27.961        0.043      334.817        5.038      858.214
03/31/2014  02:21:00     -187.790      -30.356       -8.188       52.229       41.523       30.744     2727.819     1724.179      945.168        2.082        0.270      190.228       25.926        0.019      334.795        5.000      858.208
03/31/2014  02:22:00     -136.909      -23.768        5.708       56.104       55.744       30.975     3147.702     3107.375      959.437        1.328        0.361      138.957       30.628        0.049      334.800        5.011      858.213
03/31/2014  02:23:00     -123.660      -82.927       -2.567       67.666       69.933       41.817     4578.674     4890.583     1748.623        1.669        0.561      148.891       38.876        0.068      334.841        5.078      858.200
03/31/2014  02:24:00     -149.955      -93.513       -9.314       65.987       81.904       42.690     4354.299     6708.258     1822.455        2.210        0.644      176.724       35.656        0.041      334.799        5.008      858.192
03/31/2014  02:25:00      -84.129      -11.948        4.962       59.529       45.442       25.590     3543.713     2064.941      654.855        0.675        0.313       84.974       24.701        0.085      334.823        5.050      858.180
03/31/2014  02:26:00      -92.725      -60.913       -0.857       58.862       60.697       34.579     3464.737     3684.089     1195.720        1.033        0.417      110.942       33.024        0.089      334.796        5.005      858.171
03/31/2014  02:27:00     -159.993      -72.019        1.101       41.369       49.780       25.048     1711.390     2478.080      627.389        1.780        0.241      175.456       21.552        0.015      334.759        4.941      858.168
03/31/2014  02:28:00      -56.959      -48.671        2.239       56.361       51.042       32.735     3176.572     2605.259     1071.609        0.623        0.343       74.921       26.775        0.128      334.818        5.040      858.169
03/31/2014  02:29:00      -64.269      -67.024        0.178       43.961       40.435       26.410     1932.575     1634.967      697.500        0.644        0.213       92.859       24.161        0.068      334.823        5.051      858.169
03/31/2014  02:30:00      -19.008      -63.987        7.452       38.502       40.549       31.240     1482.395     1644.213      975.909        0.431        0.205       66.750       28.633        0.184      334.937        5.240      858.164
03/31/2014  02:31:00      -81.194      -74.837       -5.115       52.160       35.651       28.345     2720.627     1270.971      803.463        0.851        0.240      110.422       29.826        0.073      334.888        5.158      858.175
03/31/2014  02:32:00     -111.266      -47.878        2.320       44.404       42.242       24.492     1971.722     1784.383      599.870        0.952        0.218      121.129       14.203        0.014      334.911        5.196      858.164
03/31/2014  02:33:00      -90.334      -51.120        5.391       55.488       34.835       23.475     3078.917     1213.449      551.081        0.782        0.242      103.795       21.212        0.042      334.898        5.174      858.154
03/31/2014  02:34:00     -100.179      -91.289       -2.404       33.481       42.976       24.043     1120.975     1846.940      578.043        1.096        0.177      135.535       17.850        0.017      334.911        5.198      858.138
03/31/2014  02:35:00      -86.758     -140.263       -2.899       38.307       50.333       22.526     1467.426     2533.429      507.406        1.586        0.225      164.927       13.299        0.007      334.840        5.078      858.129
03/31/2014  02:36:00      -56.990     -135.264       -7.547       26.593       44.575       17.745      707.183     1986.932      314.893        1.230        0.150      146.779       13.882        0.009      334.823        5.049      858.108
03/31/2014  02:37:00      -90.875      -99.919       -8.995       53.671       41.753       22.010     2880.532     1743.321      484.436        1.171        0.255      135.063       18.947        0.020      334.852        5.097      858.092
03/31/2014  02:38:00      -99.786      -93.954       -1.767       62.338       37.102       26.240     3886.002     1376.549      688.547        1.237        0.298      137.057       32.701        0.057      334.879        5.142      858.081
03/31/2014  02:39:00     -119.336      -16.993      -16.627       22.456       25.457       17.095      504.268      648.044      292.225        0.813        0.072      120.540       11.295        0.009      334.757        4.942      858.071
03/31/2014  02:40:00     -110.920      -64.698        1.215       34.699       32.505       21.740     1204.007     1056.559      472.643        0.961        0.137      128.410       20.847        0.026      334.784        4.984      858.070
03/31/2014  02:41:00      -99.624      -25.887       -7.371       32.734       28.144       19.530     1071.519      792.064      381.413        0.645        0.112      102.933       20.176        0.038      334.761        4.946      858.064
03/31/2014  02:42:00      -53.903      -22.025       15.380       35.416       27.724       24.219     1254.321      768.623      586.574        0.312        0.130       58.229       22.973        0.156      334.845        5.087      858.074
03/31/2014  02:43:00      -80.678      -66.072       -1.589       45.488       42.636       27.650     2069.164     1817.838      764.505        0.776        0.233      104.280       29.734        0.081      334.882        5.147      858.075
03/31/2014  02:44:00     -101.045      -49.179        3.444       52.350       64.087       29.075     2740.489     4107.088      845.362        1.017        0.385      112.378       26.982        0.058      334.798        5.007      858.072
03/31/2014  02:45:00     -176.706       16.089      -14.824       49.960       31.061       29.607     2495.992      964.789      876.560        1.802        0.217      177.437       28.032        0.025      334.728        4.891      858.067
03/31/2014  02:46:00     -128.594      -32.159       -3.356       44.222       41.258       27.159     1955.626     1702.233      737.620        1.099        0.220      132.554       21.685        0.027      334.752        4.931      858.070
03/31/2014  02:47:00     -119.692      -24.304        3.587       76.965       59.257       32.894     5923.647     3511.361     1081.983        1.272        0.526      122.134       34.735        0.081      334.787        4.990      858.077
03/31/2014  02:48:00      -88.180      -40.655        1.174       82.940       49.610       37.659     6879.107     2461.122     1418.167        1.009        0.538       97.101       30.985        0.102      334.828        5.058      858.074
03/31/2014  02:49:00     -166.326      -46.334      -10.435       46.550       39.108       24.398     2166.863     1529.458      595.282        1.710        0.215      172.659       13.880        0.006      334.788        4.990      858.081
03/31/2014  02:50:00     -114.771      -31.652        0.407       59.891       63.868       30.131     3586.946     4079.079      907.900        1.137        0.429      119.056       21.676        0.033      334.803        5.016      858.082
03/31/2014  02:51:00      -90.327      -42.773      -11.365       50.344       52.273       24.789     2534.548     2732.478      614.499        0.800        0.294       99.942       12.102        0.015      334.812        5.033      858.075
03/31/2014  02:52:00     -114.161      -58.772       -8.068       43.297       51.683       27.065     1874.603     2671.106      732.509        1.091        0.264      128.401       23.615        0.034      334.795        5.002      858.075
03/31/2014  02:53:00      -43.046      -28.018        6.226       55.247       33.310       32.794     3052.280     1109.532     1075.446        0.396        0.262       51.361       35.248        0.471      334.849        5.094      858.071
03/31/2014  02:54:00      -47.385      -25.559       -2.441       48.402       41.170       21.138     2342.777     1694.995      446.830        0.369        0.224       53.839       16.224        0.091      334.804        5.019      858.063
03/31/2014  02:55:00     -165.308       -8.161       -2.810       62.176       46.063       31.569     3865.812     2121.789      996.597        1.719        0.349      165.510       31.077        0.035      334.660        4.777      858.058
03/31/2014  02:56:00     -172.879      -35.112       -3.232       79.223       51.368       37.246     6276.353     2638.641     1387.294        2.071        0.515      176.409       38.014        0.046      334.629        4.725      858.036
03/31/2014  02:57:00     -180.136      -17.399       -2.157       75.486       50.130       35.655     5698.077     2512.977     1271.272        2.112        0.474      180.974       37.683        0.043      334.621        4.711      858.020
03/31/2014  02:58:00     -180.337      -33.953       -0.180       58.514       34.609       28.107     3423.879     1197.813      790.001        1.954        0.271      183.506       30.037        0.027      334.617        4.705      858.002
03/31/2014  02:59:00     -177.460      -40.450      -16.789       26.237       34.424       17.235      688.401     1185.035      297.046        1.779        0.109      182.012       16.216        0.008      334.589        4.659      857.988
03/31/2014  03:00:00     -104.951      -49.586       -4.044       39.654       33.261       20.333     1572.477     1106.323      413.445        0.829        0.155      116.075       19.938        0.030      334.640        4.745      857.972
03/31/2014  03:01:00      -76.116      -29.746       -1.123       28.067       26.778       22.156      787.730      717.077      490.899        0.434        0.100       81.722       19.017        0.054      334.634        4.736      857.959
03/31/2014  03:02:00      -60.913      -44.538       -1.024       38.560       38.640       18.764     1486.856     1493.031      352.097        0.451        0.167       75.459       17.840        0.056      334.685        4.820      857.946
03/31/2014  03:03:00      -11.091      -16.308       19.211       23.565       26.669       20.302      555.326      711.255      412.172        0.122        0.084       19.722       14.994        0.578      334.767        4.956      857.932
03/31/2014  03:04:00      -39.774      -23.342        5.110       33.595       23.637       15.633     1128.607      558.690      244.382        0.204        0.097       46.117       14.151        0.094      334.690        4.830      857.911
03/31/2014  03:05:00       -4.210        1.716       11.953       16.316        8.505       13.806      266.227       72.335      190.608        0.035        0.026        4.547       11.794        6.728      334.725        4.886      857.907
03/31/2014  03:06:00      -81.186      -37.576       -1.391       58.205       31.973       21.144     3387.858     1022.264      447.089        0.643        0.243       89.460       12.524        0.020      334.688        4.825      857.923
03/31/2014  03:07:00     -118.392      -89.785        1.807       57.093       40.334       28.075     3259.555     1626.796      788.179        1.388        0.284      148.587       29.591        0.040      334.645        4.753      857.940
03/31/2014  03:08:00      -85.616      -40.706        6.725       71.280       30.643       24.594     5080.863      939.019      604.842        0.783        0.331       94.800       30.065        0.101      334.667        4.792      857.957
03/31/2014  03:09:00     -132.661      -59.870       -4.013       46.717       49.529       27.145     2182.493     2453.127      736.875        1.328        0.269      145.545       23.119        0.025      334.623        4.718      857.964
03/31/2014  03:10:00     -184.049      -72.521      -11.523       48.230       49.238       29.978     2326.152     2424.384      898.659        2.246        0.282      197.821       31.556        0.025      334.597        4.672      857.960
03/31/2014  03:11:00     -135.348      -74.388       -9.108       39.425       42.116       23.466     1554.332     1773.721      550.639        1.391        0.194      154.443       11.748        0.006      334.613        4.699      857.943
03/31/2014  03:12:00     -134.502      -15.851        4.936       49.505       44.909       29.614     2450.696     2016.839      876.989        1.185        0.267      135.433       28.427        0.044      334.585        4.654      857.921
03/31/2014  03:13:00     -134.992      -37.434       -1.113       57.601       30.723       25.129     3317.872      943.910      631.452        1.226        0.245      140.086       28.913        0.043      334.563        4.618      857.885
03/31/2014  03:14:00     -102.002      -48.011       -6.588       40.206       31.841       20.929     1616.553     1013.879      438.025        0.791        0.153      112.737       19.092        0.029      334.597        4.673      857.846
03/31/2014  03:15:00     -119.360       16.681       -7.427       36.223       30.745       15.196     1312.116      945.235      230.918        0.853        0.124      120.520       13.524        0.013      334.582        4.650      857.815
03/31/2014  03:16:00     -106.195        2.652       -7.446       45.075       27.252       18.531     2031.741      742.657      343.395        0.723        0.156      106.228       21.682        0.042      334.584        4.652      857.785
03/31/2014  03:17:00      -80.823       38.268      -13.749       32.691       25.232       19.465     1068.676      636.679      378.898        0.513        0.104       89.425       17.879        0.040      334.592        4.666      857.770
03/31/2014  03:18:00     -121.049       21.457      -14.914       41.093       22.523       14.028     1688.652      507.302      196.772        0.886        0.120      122.936       13.614        0.012      334.542        4.583      857.753
03/31/2014  03:19:00      -72.223      -14.674       -9.903       20.979       24.006       14.600      440.114      576.294      213.152        0.338        0.061       73.699       10.733        0.021      334.570        4.631      857.733
03/31/2014  03:20:00      -87.445      -33.134       -7.549       18.352       17.725       14.853      336.793      314.180      220.614        0.484        0.044       93.512       10.231        0.012      334.574        4.637      857.721
03/31/2014  03:21:00      -40.444      -22.676        3.966       32.568       19.179       13.045     1060.700      367.830      170.182        0.188        0.080       46.367       10.907        0.055      334.617        4.706      857.712
03/31/2014  03:22:00      -53.549       -3.621       -3.831       29.328       15.518       13.917      860.121      240.803      193.691        0.209        0.065       53.671       15.241        0.081      334.657        4.775      857.709
03/31/2014  03:23:00      -58.165       14.323       -3.045       15.691       22.758       10.977      246.204      517.945      120.503        0.224        0.044       59.903        8.089        0.018      334.702        4.849      857.710
03/31/2014  03:24:00      -79.401       21.588      -14.972       19.742       20.559       14.774      389.756      422.661      218.273        0.401        0.052       82.284        9.453        0.013      334.640        4.745      857.706
03/31/2014  03:25:00      -68.044       27.272       -7.906       19.720       13.180       14.760      388.884      173.708      217.861        0.311        0.039       73.306        9.942        0.018      334.590        4.663      857.703
03/31/2014  03:26:00      -42.746      -31.646        3.783       37.161       34.093       17.163     1380.908     1162.302      294.561        0.284        0.142       53.186       19.599        0.136      334.677        4.808      857.703
03/31/2014  03:27:00      -51.742        4.982       -3.660       19.330       21.934       11.734      373.650      481.091      137.686        0.185        0.050       51.981        8.042        0.024      334.647        4.757      857.705
03/31/2014  03:28:00      -99.166      -35.176       -5.506       74.590       28.369       21.383     5563.714      804.828      457.232        0.896        0.341      105.220       32.932        0.098      334.661        4.781      857.708
03/31/2014  03:29:00      -96.608      -22.416      -11.178       28.722       17.906       13.177      824.941      320.607      173.624        0.564        0.066       99.174       14.829        0.022      334.537        4.574      857.701
03/31/2014  03:30:00     -120.237        9.598      -11.070       28.581       22.074       16.016      816.881      487.261      256.525        0.812        0.078      120.620       13.701        0.013      334.525        4.552      857.691
03/31/2014  03:31:00     -108.662        9.314       -7.781       25.156       24.060       15.087      632.835      578.890      227.617        0.670        0.072      109.060        9.973        0.008      334.547        4.591      857.670
03/31/2014  03:32:00      -98.227        2.777      -16.138       20.832       21.669       15.912      433.985      469.527      253.187        0.554        0.058       98.267       11.884        0.015      334.567        4.625      857.650
03/31/2014  03:33:00      -43.742      -16.077       -8.540       30.025       17.779       13.707      901.519      316.081      187.876        0.182        0.070       46.603        9.942        0.046      334.655        4.770      857.632
03/31/2014  03:34:00      -28.149      -23.170       -0.931       22.456       20.590       14.825      504.268      423.966      219.787        0.124        0.057       36.459       13.232        0.132      334.608        4.694      857.626
03/31/2014  03:35:00       -7.378      -18.320       -4.604       18.718       14.471       14.586      350.368      209.414      212.760        0.059        0.039       19.750        4.802        0.059      334.684        4.818      857.598
03/31/2014  03:36:00        0.490        9.101       -0.130        9.087        8.357        7.907       82.580       69.837       62.527        0.015        0.011        9.114        5.129        0.317      334.642        4.749      857.568
03/31/2014  03:37:00       26.898       38.482       -0.027       17.099       16.677       12.583      292.388      278.126      158.324        0.147        0.036       46.951        4.130        0.008      334.599        4.677      857.525
03/31/2014  03:38:00       12.541       24.175        0.516       22.168       12.256       13.313      491.425      150.218      177.233        0.078        0.041       27.235       10.022        0.135      334.610        4.699      857.489
03/31/2014  03:39:00       18.509       32.194       -2.206       16.601       12.513       10.477      275.584      156.583      109.771        0.096        0.027       37.135        8.646        0.054      334.637        4.742      857.474
03/31/2014  03:40:00       12.790       17.752        6.027       14.066       10.429       13.840      197.860      108.765      191.534        0.051        0.025       21.880        9.765        0.199      334.714        4.868      857.476
03/31/2014  03:41:00        6.547       16.953        1.813       13.237        7.647        9.385      175.222       58.477       88.081        0.033        0.016       18.173        7.300        0.161      334.652        4.768      857.467
03/31/2014  03:42:00      -43.925      -17.285       -6.073       16.348       17.267       10.036      267.258      298.152      100.720        0.147        0.033       47.203        5.882        0.016      334.691        4.830      857.460
03/31/2014  03:43:00      -54.248      -16.756       -4.207       11.628       14.142        9.212      135.219      200.010       84.860        0.183        0.021       56.777        4.736        0.007      334.739        4.911      857.453
03/31/2014  03:44:00      -37.283      -12.943       -1.247       17.662       18.366       11.412      311.933      337.326      130.241        0.117        0.039       39.466       11.995        0.092      334.711        4.864      857.444
03/31/2014  03:45:00      -19.120        9.255        0.728       11.640       13.610        9.255      135.482      185.239       85.659        0.043        0.020       21.242        6.298        0.088      334.746        4.922      857.427
03/31/2014  03:46:00        8.195       13.716       12.126        7.536       11.787        8.645       56.790      138.942       74.730        0.034        0.014       15.977        6.234        0.152      334.770        4.961      857.410
03/31/2014  03:47:00       11.580       35.943       -0.511       20.671       15.443       10.137      427.290      238.479      102.768        0.110        0.038       37.763        9.967        0.070      334.667        4.790      857.397
03/31/2014  03:48:00       -7.768       12.590       -9.228       10.166       12.269        7.447      103.340      150.521       55.453        0.031        0.015       14.793        6.665        0.203      334.655        4.769      857.389
03/31/2014  03:49:00      -29.859        1.213       -0.217       25.407       14.469        8.135      645.499      209.353       66.171        0.091        0.046       29.884        5.457        0.033      334.678        4.808      857.378
03/31/2014  03:50:00      -60.430      -24.455       -5.348       14.652       24.035       12.345      214.688      577.680      152.404        0.261        0.047       65.191       11.145        0.029      334.694        4.835      857.364
03/31/2014  03:51:00      -57.776      -41.839       -2.362       25.349       25.745       12.809      642.595      662.802      164.073        0.328        0.073       71.334        5.955        0.007      334.721        4.880      857.360
03/31/2014  03:52:00     -102.589      -12.569       -6.276       27.304       19.794       15.370      745.491      391.790      236.232        0.605        0.069      103.356       12.096        0.014      334.676        4.805      857.350
03/31/2014  03:53:00     -126.370      -69.994        6.491       53.234       41.538       25.763     2833.912     1725.418      663.710        1.307        0.261      144.460       23.498        0.026      334.708        4.857      857.344
03/31/2014  03:54:00     -192.946      -64.399       -0.767       37.289       33.338       25.059     1390.455     1111.421      627.938        2.225        0.156      203.409       24.085        0.014      334.609        4.690      857.351
03/31/2014  03:55:00     -130.913      -39.654       -1.716       42.257       40.591       23.443     1785.642     1647.624      549.596        1.135        0.199      136.787       21.256        0.024      334.665        4.786      857.364
03/31/2014  03:56:00     -129.679      -91.065      -13.473       40.057       45.129       19.327     1604.569     2036.644      373.528        1.465        0.201      158.460       15.534        0.010      334.712        4.864      857.368
03/31/2014  03:57:00     -162.259      -71.200        3.474       62.131       50.227       34.236     3860.248     2522.707     1172.119        1.948        0.378      177.193       29.089        0.027      334.691        4.829      857.374
03/31/2014  03:58:00     -156.014      -63.200        0.249       66.437       59.824       38.864     4413.918     3578.968     1510.441        1.892        0.475      168.329       31.293        0.035      334.612        4.697      857.375
03/31/2014  03:59:00     -103.999      -60.930       11.569       64.830       49.689       32.459     4202.924     2468.971     1053.582        1.119        0.386      120.533       31.572        0.069      334.668        4.791      857.369
03/31/2014  04:00:00     -145.363      -82.734       -6.204       79.412       46.795       34.546     6306.259     2189.776     1193.409        1.885        0.484      167.258       43.669        0.068      334.602        4.681      857.358
03/31/2014  04:01:00     -154.589      -25.371       -2.333       58.545       43.681       31.508     3427.544     1908.059      992.750        1.544        0.316      156.657       28.893        0.034      334.575        4.638      857.341
03/31/2014  04:02:00      -97.345      -61.069       -0.620       60.776       50.998       31.039     3693.716     2600.814      963.449        1.023        0.363      114.915       34.210        0.089      334.669        4.794      857.320
03/31/2014  04:03:00      -59.532      -47.938        9.230       52.027       32.775       17.138     2706.773     1074.176      293.715        0.500        0.204       76.434       21.650        0.080      334.647        4.758      857.314
03/31/2014  04:04:00      -87.157      -39.600       -5.383       31.018       25.599       18.280      962.137      655.313      334.168        0.557        0.098       95.731       14.801        0.024      334.636        4.739      857.313
03/31/2014  04:05:00      -99.523      -91.388        0.496       80.196       44.212       33.324     6431.429     1954.687     1110.498        1.387        0.475      135.117       38.512        0.081      334.696        4.837      857.289
03/31/2014  04:06:00      -58.183      -59.173        3.963       59.316       27.900       26.089     3518.349      778.422      680.658        0.594        0.249       82.986       26.318        0.101      334.691        4.829      857.263
03/31/2014  04:07:00      -64.633      -19.552        8.820       32.253       26.683       22.600     1040.225      711.999      510.759        0.345        0.113       67.525       19.833        0.086      334.654        4.769      857.234
03/31/2014  04:08:00      -45.611      -25.940        1.552       38.372       20.549       12.376     1472.407      422.267      153.163        0.240        0.102       52.471       11.528        0.048      334.636        4.740      857.235
03/31/2014  04:09:00      -44.628       -7.364        3.433       32.343       31.313       14.480     1046.056      980.474      209.660        0.215        0.112       45.231        8.733        0.037      334.626        4.722      857.258
03/31/2014  04:10:00      -11.480      -62.519       -5.213       22.507       25.487       14.813      506.554      649.601      219.419        0.272        0.069       63.564        9.764        0.024      334.746        4.921      857.272
03/31/2014  04:11:00      -10.177      -18.257       -1.581       23.782       17.666       13.805      565.564      312.084      190.566        0.075        0.053       20.902       10.280        0.242      334.759        4.944      857.276
03/31/2014  04:12:00      -45.339      -12.697        4.526       25.680       23.841       16.417      659.473      568.380      269.521        0.187        0.075       47.083       12.609        0.072      334.695        4.837      857.284
03/31/2014  04:13:00      -56.002      -14.145       -3.148       18.301       20.111       12.707      334.916      404.433      161.471        0.212        0.045       57.761        8.698        0.023      334.631        4.730      857.288
03/31/2014  04:14:00       -6.376      -44.430       -5.516       16.432       24.399       14.278      270.008      595.313      203.861        0.156        0.053       44.885       12.344        0.076      334.733        4.901      857.304
03/31/2014  04:15:00      -37.991      -42.193       -1.189       53.789       30.203       21.284     2893.277      912.215      453.005        0.374        0.213       56.776       13.778        0.059      334.786        4.989      857.324
03/31/2014  04:16:00      -63.686      -42.524        4.518       52.803       28.865       22.860     2788.201      833.163      522.560        0.501        0.207       76.578       18.249        0.057      334.689        4.827      857.340
03/31/2014  04:17:00      -92.352      -61.748       -3.116       51.538       38.251       23.743     2656.210     1463.152      563.754        0.852        0.234      111.093       23.675        0.045      334.636        4.740      857.343
03/31/2014  04:18:00     -102.360      -55.804       -9.834       22.589       34.559       16.432      510.261     1194.355      270.007        0.783        0.099      116.583       15.341        0.017      334.593        4.669      857.333
03/31/2014  04:19:00      -76.763      -22.304       -0.657       47.834       30.517       20.418     2288.097      931.312      416.905        0.501        0.182       79.938       20.645        0.067      334.603        4.684      857.326
03/31/2014  04:20:00     -106.072      -32.908      -14.511       33.374       37.173       19.680     1113.843     1381.853      387.299        0.771        0.144      111.059       17.605        0.025      334.577        4.641      857.319
03/31/2014  04:21:00     -125.376      -27.196       -3.322       38.933       42.085       22.021     1515.751     1771.124      484.930        1.012        0.189      128.292       21.877        0.029      334.553        4.602      857.313
03/31/2014  04:22:00     -109.816      -30.736       -2.040       21.182       22.315       17.033      448.665      497.947      290.114        0.712        0.062      114.036       10.105        0.008      334.602        4.683      857.315
03/31/2014  04:23:00     -116.270      -69.818       -0.024       33.981       28.249       24.649     1154.729      797.995      607.598        1.048        0.128      135.622       13.944        0.011      334.591        4.664      857.318
03/31/2014  04:24:00      -56.882      -30.194       -0.462       41.110       21.718       19.383     1690.008      471.661      375.720        0.334        0.127       64.399       14.511        0.051      334.598        4.676      857.317
03/31/2014  04:25:00      -68.492      -70.732       -4.162       32.891       25.502       17.283     1081.827      650.346      298.689        0.587        0.102       98.459       13.236        0.018      334.628        4.725      857.310
03/31/2014  04:26:00      -51.167      -37.318       -5.432       21.400       24.331       14.535      457.965      591.984      211.268        0.265        0.063       63.330        4.335        0.005      334.586        4.656      857.303
03/31/2014  04:27:00      -30.936       -5.832        0.336       15.413       17.828       13.920      237.570      317.848      193.776        0.087        0.037       31.481       10.783        0.117      334.594        4.667      857.298
03/31/2014  04:28:00      -20.457      -22.378        6.640       19.360       16.477       12.014      374.812      271.497      144.348        0.088        0.040       30.319       11.898        0.154      334.649        4.761      857.289
03/31/2014  04:29:00      -52.122       -6.795       -1.339       22.281       26.109        9.668      496.462      681.662       93.463        0.202        0.064       52.563        9.942        0.036      334.611        4.699      857.278
03/31/2014  04:30:00      -61.261      -22.199       -2.979       38.576       20.545       11.901     1488.131      422.099      141.643        0.315        0.103       65.159       10.118        0.024      334.645        4.755      857.276
03/31/2014  04:31:00      -48.589      -49.274        2.583       41.094       32.675       22.708     1688.694     1067.669      515.656        0.403        0.164       69.201       19.089        0.076      334.626        4.723      857.287
03/31/2014  04:32:00      -40.806      -65.477        0.610       26.758       28.129       14.383      715.987      791.225      206.873        0.383        0.086       77.151       14.608        0.036      334.624        4.719      857.302
03/31/2014  04:33:00      -88.678      -77.941        2.217       44.093       32.754       23.832     1944.160     1072.795      567.978        0.876        0.179      118.062       26.582        0.051      334.584        4.651      857.312
03/31/2014  04:34:00      -89.356      -81.896      -12.257       32.500       26.172       17.357     1056.272      684.953      301.269        0.844        0.102      121.209        9.636        0.006      334.584        4.653      857.303
03/31/2014  04:35:00     -113.746      -92.670       -3.512       49.895       28.999       21.002     2489.486      840.953      441.088        1.265        0.189      146.717       20.081        0.019      334.552        4.598      857.285
03/31/2014  04:36:00     -115.624     -110.089       -2.006       42.264       30.979       29.225     1786.276      959.726      854.097        1.455        0.180      159.651       25.040        0.025      334.491        4.500      857.270
03/31/2014  04:37:00     -130.409      -98.858       -4.756       47.182       43.348       25.835     2226.146     1879.027      667.440        1.579        0.239      163.644       25.683        0.025      334.462        4.451      857.257
03/31/2014  04:38:00      -94.726      -91.779       -2.229       19.534       26.657       17.343      381.595      710.592      300.765        0.940        0.070      131.896        7.252        0.003      334.473        4.470      857.240
03/31/2014  04:39:00     -105.391      -27.786        5.173       58.816       34.244       24.481     3459.293     1172.640      599.300        0.857        0.262      108.992       25.307        0.054      334.481        4.481      857.235
03/31/2014  04:40:00      -99.670      -13.004       -1.712       34.941       25.503       19.028     1220.861      650.428      362.055        0.617        0.112      100.515       12.070        0.014      334.448        4.428      857.221
03/31/2014  04:41:00      -20.573       -2.260       16.181       38.574       18.024       22.032     1487.927      324.862      485.422        0.149        0.115       20.696       17.727        0.734      334.524        4.553      857.221
03/31/2014  04:42:00      -11.817      -21.175       11.973       35.810       32.818       22.898     1282.349     1077.050      524.299        0.181        0.144       24.249       23.335        0.926      334.575        4.638      857.214
03/31/2014  04:43:00      -51.018      -59.475        4.047       40.184       37.753       23.875     1614.758     1425.285      570.007        0.488        0.181       78.359       25.427        0.105      334.513        4.536      857.209
03/31/2014  04:44:00      -43.024      -66.796        1.151       38.180       35.979       19.988     1457.681     1294.485      399.535        0.473        0.158       79.453       24.481        0.095      334.493        4.503      857.200
03/31/2014  04:45:00      -96.250      -35.391       -3.148       23.052       23.205       14.334      531.400      538.454      205.451        0.590        0.064      102.550       11.754        0.013      334.446        4.425      857.192
03/31/2014  04:46:00      -85.095      -31.519       -3.942       31.429       25.035       18.596      987.786      626.734      345.796        0.510        0.098       90.745       11.042        0.015      334.494        4.503      857.207
03/31/2014  04:47:00      -76.105      -22.385       -2.713       31.273       24.671       15.344      978.019      608.662      235.446        0.406        0.091       79.329       13.572        0.029      334.469        4.461      857.226
03/31/2014  04:48:00      -62.316       -1.890       -2.707       18.452       24.448       12.810      340.493      597.711      164.096        0.250        0.055       62.345       10.936        0.031      334.463        4.454      857.236
03/31/2014  04:49:00      -69.994       24.812      -10.193       12.495       14.376       13.832      156.127      206.659      191.336        0.309        0.028       74.261        9.077        0.015      334.484        4.488      857.236
03/31/2014  04:50:00      -56.136       10.111       -8.893       11.006        8.381       10.812      121.126       70.238      116.896        0.182        0.015       57.039        4.459        0.006      334.504        4.521      857.223
03/31/2014  04:51:00      -68.935      -10.374      -12.362       26.661       14.739       12.401      710.808      217.251      153.777        0.305        0.054       69.711       11.372        0.027      334.503        4.518      857.205
03/31/2014  04:52:00      -44.367      -10.456       -5.680       17.810       13.733       12.633      317.187      188.591      159.589        0.139        0.033       45.582       10.438        0.052      334.557        4.609      857.191
03/31/2014  04:53:00      -58.119       -1.892       -4.365       21.441       14.474       12.223      459.736      209.486      149.394        0.211        0.041       58.150       12.490        0.046      334.496        4.506      857.185
03/31/2014  04:54:00      -54.040      -14.669       -3.463       12.916       18.133       10.261      166.819      328.800      105.298        0.187        0.030       55.996        5.506        0.010      334.528        4.559      857.186
03/31/2014  04:55:00      -46.159      -16.638        0.708       18.535       16.907       11.283      343.547      285.831      127.309        0.158        0.038       49.066       10.234        0.044      334.579        4.645      857.177
03/31/2014  04:56:00      -58.856      -24.434        2.312       41.453       20.379       11.934     1718.383      415.300      142.419        0.317        0.114       63.726       15.579        0.060      334.648        4.759      857.174
03/31/2014  04:57:00      -39.170      -25.482        1.248       27.796       27.143       15.184      772.616      736.748      230.558        0.196        0.087       46.729        9.124        0.038      334.651        4.765      857.172
03/31/2014  04:58:00      -10.724      -29.750       14.400       35.939       21.817       21.489     1291.625      475.979      461.761        0.172        0.111       31.624       22.878        0.523      334.761        4.946      857.170
03/31/2014  04:59:00      -30.478      -39.699        7.122       30.308       33.250       21.726      918.575     1105.588      472.024        0.253        0.125       50.050       19.260        0.148      334.678        4.810      857.172
03/31/2014  05:00:00      -31.232      -29.046        0.809       28.911       23.012       16.299      835.865      529.558      265.660        0.173        0.082       42.651       12.844        0.091      334.745        4.920      857.174
03/31/2014  05:01:00      -91.537      -35.418       -8.068       27.688       19.896       14.159      766.603      395.836      200.489        0.553        0.068       98.150       14.418        0.022      334.609        4.695      857.167
03/31/2014  05:02:00      -86.477      -10.604       -7.505       31.621       26.117       14.449      999.913      682.076      208.788        0.477        0.095       87.125       11.734        0.018      334.580        4.646      857.148
03/31/2014  05:03:00      -97.287       -0.500       -4.224       23.433       28.906       14.897      549.088      835.532      221.935        0.554        0.080       97.288       12.108        0.015      334.538        4.577      857.138
03/31/2014  05:04:00     -115.518        5.422      -14.550       25.246       14.623       13.641      637.374      213.831      186.083        0.731        0.052      115.645        8.959        0.006      334.563        4.618      857.134
03/31/2014  05:05:00      -77.178      -20.063        0.889       72.167       38.331       26.752     5208.137     1469.296      715.685        0.687        0.370       79.743       29.860        0.140      334.617        4.707      857.138
03/31/2014  05:06:00      -52.486      -34.090       -3.192       44.078       42.032       28.932     1942.877     1766.669      837.067        0.424        0.227       62.585       30.457        0.237      334.579        4.645      857.142
03/31/2014  05:07:00      -70.773       -6.907       -3.997       65.539       40.692       17.761     4295.315     1655.849      315.450        0.567        0.313       71.110       18.296        0.066      334.464        4.454      857.146
03/31/2014  05:08:00     -108.459        4.411       -7.939       38.358       25.721       13.065     1471.350      661.561      170.697        0.707        0.115      108.549        9.190        0.007      334.503        4.519      857.138
03/31/2014  05:09:00       19.596      -11.799       31.543       15.647       31.148       14.759      244.831      970.208      217.823        0.148        0.072       22.874        8.634        0.142      334.614        4.703      857.127
03/31/2014  05:10:00       60.095       47.923       -5.084       19.296       12.559       14.672      372.336      157.734      215.264        0.334        0.037       76.864        7.446        0.009      334.496        4.505      857.120
03/31/2014  05:11:00       53.471       49.698       -5.362       19.051       19.677       18.738      362.926      387.181      351.127        0.323        0.055       73.000       11.452        0.025      334.459        4.447      857.106
03/31/2014  05:12:00       47.902       42.797        3.114       18.426       12.110       16.416      339.534      146.651      269.495        0.245        0.038       64.235       10.763        0.028      334.432        4.403      857.087
03/31/2014  05:13:00      117.971       46.756        5.093       32.250       25.917       16.699     1040.063      671.686      278.852        0.906        0.100      126.899        7.049        0.003      334.440        4.415      857.076
03/31/2014  05:14:00      111.172       57.139       16.947       38.858       30.724       33.271     1509.914      943.958     1106.961        0.974        0.178      124.996       21.747        0.030      334.410        4.364      857.081
03/31/2014  05:15:00       91.333       34.043        1.386       32.756       23.312       18.656     1072.957      543.449      348.031        0.573        0.098       97.471       13.036        0.018      334.342        4.252      857.091
03/31/2014  05:16:00       59.215       36.874        3.135       20.423       23.658       19.147      417.083      559.719      366.597        0.311        0.067       69.758       12.335        0.031      334.351        4.267      857.102
03/31/2014  05:17:00       31.316       31.399       -1.802       21.305       22.600       18.249      453.918      510.769      333.039        0.163        0.065       44.346       15.585        0.124      334.329        4.230      857.108
03/31/2014  05:18:00       34.536       32.036        2.818       21.681       27.691       20.777      470.086      766.782      431.696        0.195        0.083       47.107       15.389        0.107      334.348        4.260      857.109
03/31/2014  05:19:00       22.699       35.207        5.471       33.772       18.688       15.412     1140.563      349.226      237.523        0.176        0.086       41.890       11.595        0.077      334.367        4.293      857.110
03/31/2014  05:20:00       19.673       50.611       -7.168       16.374       28.479       12.708      268.094      811.049      161.491        0.212        0.062       54.300       13.711        0.064      334.347        4.259      857.115
03/31/2014  05:21:00       12.102      100.569      -20.380       27.897       19.496        9.942      778.263      380.097       98.846        0.597        0.063      101.295        8.602        0.007      334.435        4.406      857.118
03/31/2014  05:22:00       -1.431      103.951      -14.181       18.995       17.604       12.148      360.823      309.904      147.585        0.591        0.041      103.961        6.438        0.004      334.490        4.499      857.131
03/31/2014  05:23:00       -5.924       67.046        2.559       15.926       24.904       17.589      253.631      620.213      309.381        0.286        0.059       67.307       10.642        0.025      334.581        4.647      857.144
03/31/2014  05:24:00        0.452       39.966       -2.545       15.138       21.348       13.167      229.150      455.732      173.372        0.123        0.043       39.968       13.567        0.115      334.550        4.599      857.149
03/31/2014  05:25:00        8.924       39.609        5.347       18.708       21.423       15.164      350.004      458.963      229.955        0.136        0.052       40.602       10.651        0.069      334.554        4.603      857.142
03/31/2014  05:26:00       21.107       60.526       -5.066       16.244       23.120       14.782      263.858      534.513      218.502        0.258        0.051       64.100       14.302        0.050      334.506        4.522      857.122
03/31/2014  05:27:00        5.232       89.040      -13.307       17.829       21.933       11.949      317.879      481.060      142.774        0.454        0.047       89.194       12.226        0.019      334.518        4.544      857.093
03/31/2014  05:28:00       -5.729      102.919      -13.260       16.333       20.215       11.329      266.781      408.646      128.340        0.580        0.040      103.079        5.455        0.003      334.522        4.550      857.075
03/31/2014  05:29:00      -22.772       35.854       -4.870       22.284       36.986       12.351      496.581     1367.970      152.551        0.192        0.101       42.474       13.695        0.104      334.495        4.507      857.068
03/31/2014  05:30:00      -24.388       26.460       -3.452       20.750       22.533       13.708      430.546      507.735      187.900        0.122        0.056       35.984       15.045        0.175      334.567        4.622      857.050
03/31/2014  05:31:00        0.934       48.149        7.318       24.458       28.351       15.558      598.198      803.776      242.053        0.201        0.082       48.158       11.852        0.061      334.636        4.740      857.032
03/31/2014  05:32:00       28.744       48.190       -0.281       21.373       27.005       20.853      456.820      729.294      434.853        0.238        0.081       56.112       19.636        0.122      334.543        4.583      856.998
03/31/2014  05:33:00       78.087       53.484        1.126       33.581       21.617       16.521     1127.652      467.299      272.942        0.541        0.093       94.647       13.374        0.020      334.501        4.513      856.957
03/31/2014  05:34:00       99.087       49.816        7.902       35.469       36.507       25.978     1258.082     1332.770      674.864        0.781        0.163      110.905       25.119        0.051      334.484        4.487      856.923
03/31/2014  05:35:00       89.555       48.021        4.177       37.423       30.281       28.334     1400.506      916.960      802.826        0.673        0.156      101.617       21.771        0.046      334.458        4.444      856.897
03/31/2014  05:36:00       77.233       56.416       10.580       27.741       20.985       24.119      769.575      440.386      581.707        0.553        0.090       95.644       13.684        0.020      334.399        4.348      856.896
03/31/2014  05:37:00       47.748       34.186        9.713       28.816       24.618       19.325      830.376      606.063      373.472        0.268        0.090       58.724       17.800        0.092      334.396        4.342      856.889
03/31/2014  05:38:00       61.880       47.443        7.165       30.226       20.562       20.594      913.585      422.788      424.096        0.395        0.088       77.974       11.353        0.021      334.375        4.307      856.885
03/31/2014  05:39:00      101.242       53.998       13.770       22.841       19.280       21.338      521.696      371.710      455.306        0.735        0.067      114.742       14.148        0.015      334.380        4.317      856.875
03/31/2014  05:40:00       90.667       47.736        5.004       37.417       24.660       18.759     1400.049      608.124      351.909        0.644        0.118      102.465        6.625        0.004      334.406        4.360      856.869
03/31/2014  05:41:00      120.909       64.721       10.439       51.471       28.518       21.481     2649.257      813.274      461.421        1.142        0.196      137.142       12.410        0.008      334.426        4.391      856.866
03/31/2014  05:42:00      108.015       52.550       31.499       48.479       45.171       38.476     2350.259     2040.441     1480.390        1.064        0.294      120.120       27.917        0.054      334.452        4.435      856.862
03/31/2014  05:43:00       94.693       84.178       61.638       47.937       34.604       45.466     2297.956     1197.411     2067.121        1.271        0.278      126.699       34.376        0.074      334.556        4.606      856.863
03/31/2014  05:44:00       99.939       86.120       54.037       41.204       28.254       32.149     1697.806      798.312     1033.538        1.193        0.176      131.926       19.870        0.023      334.546        4.588      856.850
03/31/2014  05:45:00       94.654       91.788       77.771       55.558       54.094       44.672     3086.650     2926.177     1995.617        1.572        0.400      131.850       35.593        0.073      334.500        4.514      856.835
03/31/2014  05:46:00       84.901       81.981       94.758       47.570       60.638       39.025     2262.870     3677.001     1522.933        1.518        0.373      118.022       43.750        0.137      334.486        4.489      856.814
03/31/2014  05:47:00      116.949       43.841       30.338       40.576       33.395       35.452     1646.376     1115.234     1256.831        1.027        0.201      124.896       24.888        0.040      334.495        4.505      856.797
03/31/2014  05:48:00      109.498       69.646       42.560       40.321       39.062       30.483     1625.786     1525.850      929.188        1.137        0.204      129.770       15.376        0.014      334.479        4.479      856.784
03/31/2014  05:49:00       85.923       33.343       43.237       51.749       32.188       33.687     2677.928     1036.097     1134.820        0.761        0.242       92.166       29.795        0.105      334.478        4.477      856.780
03/31/2014  05:50:00       94.466       21.103       40.753       57.309       37.334       32.528     3284.370     1393.861     1058.102        0.838        0.287       96.794       33.196        0.118      334.497        4.509      856.763
03/31/2014  05:51:00      101.507       85.667       55.615       47.454       37.665       33.424     2251.919     1418.681     1117.160        1.276        0.239      132.825       25.609        0.037      334.484        4.486      856.737
03/31/2014  05:52:00      107.237       81.098       59.596       33.579       35.482       32.604     1127.582     1258.949     1063.003        1.254        0.172      134.450       23.821        0.031      334.456        4.440      856.721
03/31/2014  05:53:00      103.091       42.171        9.375       49.138       30.679       30.538     2414.498      941.192      932.566        0.839        0.214      111.382       23.352        0.044      334.440        4.417      856.709
03/31/2014  05:54:00      118.333       55.195       35.402       50.419       37.680       32.196     2542.047     1419.799     1036.607        1.165        0.250      130.572       28.226        0.047      334.540        4.579      856.706
03/31/2014  05:55:00       52.560       42.380       36.239       22.671       26.651       24.891      513.959      710.295      619.586        0.386        0.092       67.517       19.938        0.087      334.533        4.568      856.737
03/31/2014  05:56:00       39.378      -22.527       -8.252       21.711       29.490        9.745      471.375      869.686       94.956        0.178        0.072       45.366        8.580        0.036      334.540        4.580      856.774
03/31/2014  05:57:00        0.121      -44.793       -3.845       18.757       34.102       12.639      351.808     1162.932      159.743        0.185        0.084       44.793        7.800        0.030      334.761        4.948      856.812
03/31/2014  05:58:00       40.978      -43.284       -2.734       29.382       29.783       22.219      863.330      887.049      493.680        0.290        0.112       59.605       10.057        0.028      334.632        4.731      856.815
03/31/2014  05:59:00       -0.415       19.487       12.316       12.592       12.732       15.489      158.561      162.107      239.923        0.055        0.028       19.492        8.665        0.198      334.610        4.698      856.790
03/31/2014  06:00:00       -9.080       24.144       -2.155       17.534       12.212        8.000      307.429      149.121       64.006        0.060        0.026       25.795        6.367        0.061      334.590        4.665      856.750
03/31/2014  06:01:00      -16.318       38.052       -8.375       14.361       14.324        7.240      206.227      205.173       52.412        0.112        0.023       41.404        3.431        0.007      334.566        4.621      856.715
03/31/2014  06:02:00       17.297       51.339       -5.917       15.899       18.022       11.242      252.780      324.801      126.377        0.184        0.035       54.174       10.708        0.039      334.532        4.565      856.696
03/31/2014  06:03:00        6.812       16.336       -2.560        9.282       14.057        8.453       86.154      197.609       71.457        0.034        0.018       17.699        7.726        0.191      334.532        4.565      856.696
03/31/2014  06:04:00        2.542       47.235      -13.906        9.881       10.346        5.442       97.639      107.034       29.612        0.133        0.012       47.303        3.004        0.004      334.521        4.546      856.716
03/31/2014  06:05:00       -3.476       23.024       -5.397        7.718        8.446        5.846       59.568       71.341       34.176        0.037        0.008       23.285        3.671        0.025      334.523        4.550      856.735
03/31/2014  06:06:00      -17.172       10.667       -2.366        9.645        6.077        6.448       93.033       36.927       41.574        0.029        0.009       20.215        2.211        0.012      334.548        4.591      856.741
03/31/2014  06:07:00      -40.928        9.527       -1.158       18.870       13.145        8.649      356.072      172.780       74.811        0.119        0.030       42.022        6.662        0.025      334.549        4.593      856.735
03/31/2014  06:08:00      -56.598       14.154      -10.915       12.935       11.575        8.283      167.317      133.978       68.605        0.195        0.018       58.341        7.439        0.016      334.549        4.594      856.723
03/31/2014  06:09:00      -59.638       -3.668       -3.688       16.109       12.559        8.781      259.485      157.724       77.114        0.204        0.025       59.751        5.043        0.007      334.621        4.715      856.711
03/31/2014  06:10:00      -61.728      -29.991       -4.296       42.287       20.176       18.471     1788.162      407.083      341.174        0.363        0.127       68.628       20.571        0.090      334.619        4.713      856.717
03/31/2014  06:11:00      -70.723      -58.277        5.426       54.060       34.572       22.444     2922.453     1195.208      503.753        0.652        0.231       91.640       23.813        0.068      334.671        4.797      856.731
03/31/2014  06:12:00      -88.306      -76.820       -5.091       39.702       32.910       23.816     1576.219     1083.081      567.219        0.848        0.161      117.044       22.920        0.038      334.655        4.770      856.743
03/31/2014  06:13:00      -75.857      -38.892        4.841       48.348       24.379       21.470     2337.494      594.332      460.978        0.534        0.170       85.246       18.572        0.047      334.668        4.791      856.737
03/31/2014  06:14:00     -104.396      -29.168        1.865       24.583       25.997       14.953      604.328      675.826      223.582        0.663        0.075      108.394       13.188        0.015      334.595        4.670      856.733
03/31/2014  06:15:00      -93.816      -25.115      -10.193       19.324       12.464       10.985      373.411      155.361      120.665        0.509        0.032       97.119        9.912        0.010      334.598        4.673      856.723
03/31/2014  06:16:00      -41.773       -9.857      -12.284       12.748       17.232        7.291      162.499      296.951       53.158        0.125        0.026       42.921        5.655        0.017      334.632        4.733      856.706
03/31/2014  06:17:00      -51.807       -3.554       -4.687       21.911       13.645        8.364      480.093      186.184       69.955        0.173        0.037       51.929        3.645        0.005      334.639        4.744      856.699
03/31/2014  06:18:00      -57.616        0.167       -5.269       30.494       14.058       13.847      929.857      197.624      191.740        0.233        0.066       57.616       14.797        0.066      334.590        4.662      856.671
03/31/2014  06:19:00      -82.653        6.886      -11.211       36.370       19.927       17.460     1322.813      397.097      304.841        0.451        0.101       82.940       13.477        0.026      334.499        4.513      856.647
03/31/2014  06:20:00      -69.549        3.874       -6.265       20.478       24.863       14.490      419.340      618.168      209.963        0.307        0.062       69.657       13.212        0.036      334.499        4.510      856.634
03/31/2014  06:21:00      -96.868        6.784      -17.988       21.486       16.585       11.480      461.641      275.056      131.780        0.531        0.043       97.105        8.098        0.007      334.484        4.486      856.625
03/31/2014  06:22:00      -58.415      -14.728       -3.793       28.341       26.079       15.095      803.197      680.140      227.858        0.268        0.086       60.243       12.647        0.044      334.483        4.485      856.626
03/31/2014  06:23:00      -82.041       -3.035       -7.340       20.828       22.390       15.369      433.812      501.299      236.219        0.398        0.059       82.097        9.356        0.013      334.474        4.469      856.631
03/31/2014  06:24:00      -89.106        3.828       -5.012       27.164       22.685       16.178      737.909      514.591      261.739        0.475        0.076       89.188       12.618        0.020      334.476        4.473      856.639
03/31/2014  06:25:00     -119.819        3.557      -11.490       18.425       17.698       12.321      339.479      313.218      151.800        0.765        0.040      119.872        9.784        0.007      334.473        4.468      856.644
03/31/2014  06:26:00     -123.528      -11.265      -17.675       26.297       24.905       15.600      691.528      620.272      243.345        0.863        0.078      124.040       11.743        0.009      334.481        4.482      856.647
03/31/2014  06:27:00     -147.583      -20.878      -16.241       41.753       29.104       23.684     1743.316      847.015      560.937        1.282        0.158      149.053       21.906        0.022      334.404        4.355      856.653
03/31/2014  06:28:00     -140.716        4.178      -20.895       36.680       42.002       19.505     1345.402     1764.127      380.447        1.187        0.174      140.778       15.639        0.012      334.369        4.296      856.651
03/31/2014  06:29:00     -154.029       26.002      -17.146       22.822       25.938       16.968      520.821      672.802      287.901        1.309        0.074      156.208       10.549        0.005      334.378        4.311      856.650
03/31/2014  06:30:00     -109.008       15.791      -12.404       34.683       17.969       14.737     1202.905      322.879      217.188        0.701        0.087      110.146       12.296        0.012      334.372        4.301      856.632
03/31/2014  06:31:00      -63.461       42.448       -9.566       17.533       21.470       12.937      307.396      460.955      167.366        0.343        0.047       76.349       12.151        0.025      334.388        4.330      856.610
03/31/2014  06:32:00      -40.295       36.537       -8.881       18.173       12.402        8.830      330.241      153.810       77.969        0.180        0.028       54.393        9.017        0.027      334.467        4.460      856.595
03/31/2014  06:33:00      -30.498       16.925      -10.227       20.911       25.092       10.077      437.274      629.626      101.542        0.124        0.058       34.880       11.820        0.115      334.576        4.639      856.590
03/31/2014  06:34:00       17.801       10.030       11.109        9.920       11.126       10.652       98.412      123.791      113.460        0.044        0.017       20.432        5.139        0.063      334.563        4.616      856.603
03/31/2014  06:35:00       12.015       26.940        0.186        9.892       12.463       10.737       97.859      155.315      115.289        0.062        0.018       29.498        9.389        0.101      334.558        4.609      856.619
03/31/2014  06:36:00        9.667        4.021       13.407       12.578       16.979        8.804      158.200      288.302       77.509        0.041        0.026       10.470        9.299        0.789      334.590        4.662      856.635
03/31/2014  06:37:00       -6.405       12.596       19.330        7.127       13.058       10.032       50.798      170.507      100.637        0.045        0.016       14.131        8.714        0.380      334.635        4.737      856.657
03/31/2014  06:38:00       -2.450        0.681       17.768        8.311       16.631        7.496       69.077      276.587       56.193        0.036        0.020        2.543        3.429        1.817      334.723        4.883      856.657
03/31/2014  06:39:00        0.793       19.776       13.584       17.326        8.918        9.850      300.191       79.532       97.015        0.053        0.024       19.792        5.551        0.079      334.658        4.776      856.651
03/31/2014  06:40:00      -14.136       23.045        4.944       14.266       19.560       14.086      203.517      382.613      198.427        0.077        0.039       27.035        8.426        0.097      334.683        4.817      856.638
03/31/2014  06:41:00       -3.365       33.944       42.793       14.965       23.244       25.788      223.938      540.284      665.008        0.221        0.071       34.110       16.722        0.240      334.698        4.841      856.622
03/31/2014  06:42:00      -13.174       30.212       65.709       27.472       29.198       21.215      754.690      852.509      450.079        0.373        0.103       32.959       16.827        0.261      334.740        4.911      856.609
03/31/2014  06:43:00        7.713       -3.797       32.459       26.522       40.882       37.748      703.393     1671.311     1424.898        0.246        0.190        8.597       35.050       16.621      334.755        4.937      856.601
03/31/2014  06:44:00       50.165      -44.848        5.128       50.115       49.446       31.444     2511.540     2444.923      988.741        0.525        0.297       67.289       32.803        0.238      334.756        4.939      856.594
03/31/2014  06:45:00       80.062      -67.461        4.439       62.278       52.164       31.204     3878.549     2721.060      973.685        0.928        0.379      104.694       36.988        0.125      334.740        4.912      856.597
03/31/2014  06:46:00        4.869      -43.085       24.455       37.228       54.964       28.200     1385.930     3021.030      795.244        0.384        0.260       43.359       29.115        0.451      334.785        4.986      856.596
03/31/2014  06:47:00       -5.402       11.384       22.333       26.795       23.468       20.218      717.997      550.743      408.786        0.117        0.084       12.601       18.073        2.057      334.788        4.992      856.590
03/31/2014  06:48:00      -23.483        6.003       35.905       63.859       58.215       39.354     4077.991     3389.033     1548.743        0.544        0.451       24.239       45.341        3.499      334.796        5.003      856.573
03/31/2014  06:49:00      -37.731     -131.501       -7.528       51.558       74.866       32.467     2658.180     5604.874     1054.103        1.404        0.466      136.807       20.633        0.023      334.847        5.089      856.566
03/31/2014  06:50:00      -36.807      -28.280       16.223       52.533       65.610       31.970     2759.725     4304.708     1022.103        0.525        0.404       46.417       36.187        0.608      334.864        5.118      856.561
03/31/2014  06:51:00       -8.701      -38.469       -1.893       50.723       60.183       39.878     2572.803     3621.944     1590.226        0.467        0.389       39.441       32.617        0.684      334.944        5.251      856.551
03/31/2014  06:52:00      -12.105      -85.103       -6.025       54.340       46.654       23.850     2952.868     2176.641      568.830        0.656        0.285       85.960       20.316        0.056      334.973        5.301      856.553
03/31/2014  06:53:00       -3.113       -8.207       31.485       25.089       51.888       38.066      629.465     2692.416     1449.002        0.292        0.239        8.778       40.960       21.775      334.931        5.229      856.563
03/31/2014  06:54:00      -21.018        9.480       27.310       23.187       15.799       19.134      537.649      249.617      366.093        0.122        0.058       23.057        9.095        0.156      334.800        5.011      856.552
03/31/2014  06:55:00       -6.429      -31.736       11.867       19.174       38.526       23.282      367.625     1484.289      542.057        0.179        0.120       32.381       23.482        0.526      334.861        5.113      856.552
03/31/2014  06:56:00       33.410      -36.908       10.118       33.476       52.473       37.245     1120.656     2753.395     1387.187        0.392        0.263       49.784       37.288        0.561      334.824        5.051      856.562
03/31/2014  06:57:00       11.915       -1.437       24.392       51.674       45.172       40.527     2670.177     2040.466     1642.426        0.354        0.318       12.002       34.310        8.172      334.816        5.038      856.556
03/31/2014  06:58:00       27.893      -19.852       31.638       61.235       85.202       41.598     3749.781     7259.327     1730.404        0.745        0.637       34.237       44.788        1.711      334.880        5.144      856.557
03/31/2014  06:59:00      -30.953     -120.513        3.840       73.927       79.046       52.395     5465.186     6248.239     2745.275        1.497        0.723      124.425       38.575        0.096      334.954        5.268      856.560
03/31/2014  07:00:00       14.491     -101.143        3.701       92.587       73.273       61.112     8572.423     5368.859     3734.729        1.406        0.884      102.175       47.208        0.213      334.955        5.270      856.571
03/31/2014  07:01:00      -17.438     -113.976      -19.885       74.582       83.656       45.683     5562.437     6998.316     2086.940        1.417        0.732      115.302       46.863        0.165      334.967        5.290      856.588
03/31/2014  07:02:00      -19.744      -45.368        8.412       38.232       41.984       24.824     1461.677     1762.617      616.226        0.318        0.192       49.478       26.622        0.289      334.905        5.185      856.609
03/31/2014  07:03:00       -7.744      -49.175       -2.352       39.416       28.463       23.399     1553.626      810.143      547.493        0.270        0.146       49.781       15.318        0.095      334.913        5.199      856.606
03/31/2014  07:04:00      -88.197      -72.963      -11.185       55.669       52.848       37.994     3098.992     2792.896     1443.532        1.028        0.367      114.465       31.942        0.078      334.766        4.956      856.607
03/31/2014  07:05:00      -82.515      -87.772        6.657       62.289       51.446       38.326     3879.948     2646.735     1468.882        1.127        0.400      120.468       29.937        0.062      334.722        4.883      856.615
03/31/2014  07:06:00     -135.354     -146.098       -6.494       69.948       95.446       45.256     4892.776     9110.000     2048.108        2.788        0.803      199.162       46.526        0.055      334.669        4.792      856.605
03/31/2014  07:07:00      -82.713      -53.675        1.751       75.686       45.045       30.915     5728.321     2029.069      955.728        0.922        0.436       98.602       27.868        0.080      334.707        4.857      856.591
03/31/2014  07:08:00       59.180      -74.167       10.690       88.548       57.708       49.355     7840.675     3330.234     2435.961        1.136        0.680       94.884       50.441        0.283      334.829        5.059      856.577
03/31/2014  07:09:00       73.440     -118.260        1.340       66.256       85.682       54.066     4389.804     7341.376     2923.110        1.701        0.733      139.208       50.164        0.130      334.843        5.083      856.567
03/31/2014  07:10:00       81.220      -58.750       30.922       80.645       72.345       54.285     6503.622     5233.871     2946.863        1.284        0.734      100.241       51.799        0.267      334.789        4.992      856.551
03/31/2014  07:11:00      -29.615      -98.408       31.589       56.432       82.933       54.798     3184.571     6877.833     3002.787        1.231        0.653      102.767       23.694        0.053      334.746        4.921      856.524
03/31/2014  07:12:00       -2.276     -123.674      -23.826       77.566       50.358       41.403     6016.445     2535.975     1714.201        1.307        0.513      123.695       37.979        0.094      334.813        5.032      856.532
03/31/2014  07:13:00       23.042      -79.907       -5.131       79.320       64.238       34.031     6291.738     4126.551     1158.087        0.926        0.579       83.163       34.831        0.175      334.820        5.044      856.542
03/31/2014  07:14:00       57.531      -33.068       90.314       92.456      130.913      108.342     8548.065    17138.258    11737.918        2.498        1.871       66.358      110.030        2.749      334.661        4.778      856.536
03/31/2014  07:15:00       25.962     -149.591       -9.150       90.829       74.180       47.529     8249.960     5502.653     2258.975        1.957        0.801      151.827       20.791        0.019      334.699        4.841      856.553
03/31/2014  07:16:00      -24.039      -68.947        4.569       43.144       52.339       31.852     1861.385     2739.339     1014.568        0.548        0.281       73.017       27.431        0.141      334.818        5.043      856.560
03/31/2014  07:17:00       -6.184     -103.594      -10.276       79.783       89.212       38.577     6365.356     7958.739     1488.205        1.334        0.791      103.778       18.635        0.032      334.788        4.991      856.544
03/31/2014  07:18:00      -43.243      -81.549       -1.802       70.896       86.093       38.022     5026.200     7412.077     1445.693        1.120        0.694       92.305       43.178        0.219      334.635        4.738      856.510
03/31/2014  07:19:00       30.795        7.321       78.617       58.913       73.142       51.030     3470.737     5349.706     2604.080        0.930        0.571       31.653       48.921        2.389      334.674        4.800      856.475
03/31/2014  07:20:00       81.812      -98.196       15.781       55.735       88.094       47.365     3106.341     7760.570     2243.425        1.484        0.656      127.811       57.894        0.205      334.626        4.722      856.462
03/31/2014  07:21:00        8.451        0.317       45.633       33.913       64.323       44.119     1150.078     4137.480     1946.515        0.469        0.362        8.457       44.685       27.917      334.643        4.751      856.478
03/31/2014  07:22:00        2.916       -5.602       25.302       21.287       23.340       18.476      453.134      544.760      341.368        0.101        0.067        6.316       15.234        5.818      334.714        4.869      856.474
03/31/2014  07:23:00        0.988       30.168       89.568       44.047       87.802       77.631     1940.141     7709.205     6026.515        1.230        0.784       30.184       67.411        4.988      334.690        4.828      856.444
03/31/2014  07:24:00       83.886      -73.637       58.008       99.263      158.490      113.104     9853.149    25119.185    12792.588        3.179        2.388      111.621      116.401        1.087      334.467        4.456      856.403
03/31/2014  07:25:00      110.032     -108.400       11.487      102.557      160.610      104.386    10517.838    25795.636    10896.340        3.559        2.360      154.459      108.270        0.491      334.448        4.426      856.375
03/31/2014  07:26:00       63.963      -21.870       73.041       71.008       73.921       77.507     5042.081     5464.351     6007.354        1.321        0.826       67.598       58.444        0.748      334.428        4.393      856.365
03/31/2014  07:27:00      116.975      -46.682       31.421       86.264       67.646       61.941     7441.503     4575.914     3836.634        1.635        0.793      125.946       56.286        0.200      334.394        4.338      856.390
03/31/2014  07:28:00       48.280       39.948       94.215       93.298      104.830       67.665     8704.462    10989.430     4578.614        1.853        1.214       62.664       83.323        1.768      334.429        4.395      856.407
03/31/2014  07:29:00      109.736      -54.418       33.349       72.406       92.381       64.202     5242.687     8534.167     4121.884        1.700        0.895      122.488       72.562        0.351      334.409        4.359      856.418
03/31/2014  07:30:00      126.564      -99.982      -14.690       80.318       80.584       54.476     6451.013     6493.734     2967.603        2.107        0.796      161.291       54.120        0.113      334.425        4.388      856.421
03/31/2014  07:31:00      110.808     -104.092      -21.354       66.201       59.631       48.061     4382.634     3555.876     2309.886        1.691        0.512      152.032       38.185        0.063      334.431        4.399      856.437
03/31/2014  07:32:00       55.034      -76.689       -1.262       52.736       79.804       31.017     2781.084     6368.623      962.025        0.951        0.506       94.392       42.895        0.207      334.511        4.531      856.451
03/31/2014  07:33:00       59.111      -35.133       15.048       55.713       53.657       38.982     3103.990     2879.124     1519.632        0.623        0.375       68.764       31.174        0.206      334.487        4.493      856.459
03/31/2014  07:34:00       30.214       19.065       42.601       32.106       44.098       26.335     1030.815     1944.597      693.558        0.338        0.183       35.726       31.644        0.785      334.456        4.441      856.458
03/31/2014  07:35:00       37.567       28.219       73.851       48.709       64.151       50.370     2372.542     4115.357     2537.104        0.834        0.451       46.985       46.542        0.981      334.490        4.496      856.448
03/31/2014  07:36:00       88.617      -12.604       40.650       78.368       90.147       73.572     6141.547     8126.461     5412.839        1.467        0.984       89.509       75.274        0.707      334.451        4.432      856.441
03/31/2014  07:37:00       79.549      -29.613       21.677       76.318       88.848       49.679     5824.415     7894.033     2468.005        1.193        0.809       84.882       64.027        0.569      334.415        4.372      856.469
03/31/2014  07:38:00       82.425        4.664       48.369       57.196       56.870       40.969     3271.332     3234.170     1678.429        0.867        0.409       82.556       39.381        0.228      334.443        4.420      856.475
03/31/2014  07:39:00       47.878       12.577       43.635       75.595       75.197       37.413     5714.608     5654.653     1399.699        0.856        0.638       49.503       21.640        0.191      334.531        4.565      856.467
03/31/2014  07:40:00       74.514      -41.309       37.494       68.929       80.369       44.777     4751.140     6459.158     2004.940        1.094        0.661       85.199       50.612        0.353      334.508        4.528      856.470
03/31/2014  07:41:00      113.577     -122.904        3.026       67.122       72.535       41.237     4505.329     5261.283     1700.470        1.974        0.573      167.348       36.078        0.046      334.501        4.515      856.457
03/31/2014  07:42:00       74.717      102.168       81.029       71.114       75.542       71.599     5057.194     5706.636     5126.438        1.924        0.795      126.574       37.505        0.088      334.432        4.399      856.455
03/31/2014  07:43:00       87.459       54.736       59.223       72.240       54.145       40.762     5218.669     2931.676     1661.569        1.198        0.491      103.175       24.987        0.059      334.405        4.356      856.450
03/31/2014  07:44:00       39.422      -73.224       10.494       71.566       84.795       42.493     5121.717     7190.221     1805.668        1.057        0.706       83.161       57.983        0.486      334.520        4.545      856.452
03/31/2014  07:45:00       51.930      -35.213       21.408       56.430       57.319       52.485     3184.347     3285.441     2754.676        0.681        0.461       62.743       43.550        0.482      334.446        4.424      856.447
03/31/2014  07:46:00       75.786      -37.454       19.371       63.332       60.774       44.604     4010.999     3693.507     1989.505        0.861        0.485       84.536       52.335        0.383      334.427        4.392      856.456
03/31/2014  07:47:00      149.847     -143.910      -11.777       42.997       39.570       35.540     1848.741     1565.767     1263.083        2.399        0.234      207.760       27.858        0.018      334.432        4.397      856.454
03/31/2014  07:48:00      148.915     -131.434       -4.274       50.599       52.675       38.844     2560.225     2774.629     1508.859        2.315        0.342      198.622       40.861        0.042      334.452        4.431      856.443
03/31/2014  07:49:00       30.732      -10.168       26.239       39.895       37.261       31.296     1591.638     1388.349      979.456        0.285        0.198       32.370       16.510        0.260      334.536        4.573      856.438
03/31/2014  07:50:00       33.886      -62.070       13.895       52.911       67.296       41.707     2799.621     4528.709     1739.475        0.713        0.453       70.718       47.753        0.456      334.613        4.700      856.445
03/31/2014  07:51:00       48.296      -62.925        6.256       37.934       55.682       31.686     1438.961     3100.518     1003.990        0.594        0.277       79.323       30.187        0.145      334.597        4.675      856.449
03/31/2014  07:52:00       27.365      -10.613       23.932       25.928       48.986       19.055      672.265     2399.623      363.076        0.243        0.172       29.351       18.425        0.394      334.528        4.561      856.440
03/31/2014  07:53:00       86.183     -127.267      -22.171       69.833       71.036       33.925     4876.668     5046.133     1150.888        1.759        0.554      153.703       45.218        0.087      334.572        4.631      856.435
03/31/2014  07:54:00       21.818     -120.702       -8.043      117.219       58.944       35.833    13740.281     3474.434     1283.992        1.680        0.925      122.658       45.285        0.136      334.612        4.697      856.434
03/31/2014  07:55:00      -51.995     -102.315       -3.547       48.005       73.875       40.291     2304.464     5457.453     1623.365        1.128        0.469      114.769       41.863        0.133      334.592        4.665      856.427
03/31/2014  07:56:00        3.108      -10.004       52.166       59.747       84.781       40.790     3569.653     7187.753     1663.786        0.762        0.621       10.476       49.227       22.081      334.553        4.601      856.399
03/31/2014  07:57:00      -36.883      -32.708        2.383       39.805       26.588       21.686     1584.410      706.945      470.287        0.260        0.138       49.297       18.347        0.139      334.551        4.597      856.390
03/31/2014  07:58:00      -23.105      -33.338       24.210       65.352       45.974       33.847     4270.897     2113.585     1145.653        0.488        0.377       40.561       35.655        0.773      334.590        4.663      856.393
03/31/2014  07:59:00       51.068     -211.369      -38.186      139.421      120.761       51.727    19438.078    14583.199     2675.645        4.271        1.835      217.451       72.418        0.111      334.514        4.533      856.413
03/31/2014  08:00:00       56.067      -86.538        9.376       78.103      121.142       76.905     6100.006    14675.426     5914.374        1.870        1.334      103.113       75.805        0.540      334.436        4.407      856.410
03/31/2014  08:01:00       29.582       -4.550       52.861       71.702       72.730       55.663     5141.205     5289.663     3098.364        0.861        0.676       29.929       63.940        4.564      334.411        4.365      856.391
03/31/2014  08:02:00      -26.905       19.404       52.146       53.425       71.290       54.587     2854.196     5082.226     2979.745        0.737        0.546       33.172       49.136        2.194      334.444        4.420      856.367
03/31/2014  08:03:00       48.390     -111.149      -10.711      104.286       59.413       59.500    10875.541     3529.950     3540.268        1.637        0.897      121.226       55.819        0.212      334.471        4.464      856.358
03/31/2014  08:04:00      -56.253     -137.675       -4.185       59.098       80.399       40.569     3492.630     6463.997     1645.829        1.687        0.580      148.724       40.897        0.076      334.603        4.683      856.356
03/31/2014  08:05:00       31.960        9.753       61.915       47.009       56.090       44.701     2209.800     3146.077     1998.186        0.615        0.368       33.415       42.308        1.603      334.495        4.505      856.333
03/31/2014  08:06:00       52.407       21.057       57.377       62.086       47.823       39.916     3854.708     2287.018     1593.299        0.711        0.387       56.479       34.501        0.373      334.303        4.188      856.306
03/31/2014  08:07:00       74.727      -27.432       42.659       50.021       58.145       41.900     2502.052     3380.849     1755.600        0.790        0.382       79.603       42.961        0.291      334.339        4.246      856.285
03/31/2014  08:08:00       79.837      -12.215       18.740       43.843       58.434       52.738     1922.241     3414.514     2781.257        0.749        0.406       80.766       32.614        0.163      334.362        4.285      856.286
03/31/2014  08:09:00       53.865       56.784       66.304       55.054       58.089       31.656     3030.937     3374.282     1002.084        0.896        0.370       78.268       26.903        0.118      334.393        4.337      856.264
03/31/2014  08:10:00       39.948       69.759       80.279       43.122       49.349       40.129     1859.535     2435.324     1610.318        0.940        0.295       80.387       37.295        0.215      334.397        4.343      856.263
03/31/2014  08:11:00       67.369      -33.472       14.253       59.045       72.876       38.360     3486.337     5310.870     1471.493        0.806        0.513       75.226       44.033        0.343      334.341        4.250      856.285
03/31/2014  08:12:00       47.585      -44.316        7.412       58.772       73.880       46.988     3454.104     5458.205     2207.837        0.770        0.556       65.025       43.125        0.440      334.403        4.352      856.296
03/31/2014  08:13:00       42.201       17.494       53.567       60.904       58.473       51.185     3709.350     3419.114     2619.863        0.735        0.487       45.683       49.989        1.197      334.448        4.426      856.301
03/31/2014  08:14:00       37.024       38.432       61.754       41.481       33.741       19.792     1720.696     1138.456      391.739        0.496        0.163       53.365       15.824        0.088      334.353        4.271      856.307
03/31/2014  08:15:00       34.708       86.325       67.431       53.130       43.077       47.160     2822.789     1855.652     2224.022        1.005        0.345       93.041       35.310        0.144      334.413        4.369      856.306
03/31/2014  08:16:00       88.051       92.139       57.178       57.206       36.282       43.334     3272.477     1316.392     1877.802        1.299        0.323      127.446       29.061        0.052      334.504        4.518      856.296
03/31/2014  08:17:00       89.999       92.659       92.157       55.620       46.927       37.967     3093.547     2202.151     1441.501        1.596        0.337      129.172       13.788        0.011      334.433        4.401      856.294
03/31/2014  08:18:00       87.390       72.546       34.239       56.075       53.902       56.053     3144.438     2905.461     3141.893        1.163        0.460      113.578       42.889        0.143      334.404        4.354      856.276
03/31/2014  08:19:00       60.605       37.187       -2.303       30.048       27.635       23.326      902.853      763.689      544.091        0.364        0.111       71.105       13.703        0.037      334.428        4.395      856.268
03/31/2014  08:20:00       77.789       30.684       41.800       43.336       45.231       37.855     1877.977     2045.824     1433.007        0.705        0.268       83.622       31.322        0.140      334.551        4.598      856.261
03/31/2014  08:21:00      108.875       30.361       50.128       49.272       39.101       43.028     2427.746     1528.909     1851.410        1.055        0.290      113.029       36.966        0.107      334.431        4.399      856.254
03/31/2014  08:22:00       85.670       83.174        6.859       40.975       41.091       27.696     1678.949     1688.509      767.063        0.922        0.207      119.404       22.995        0.037      334.378        4.311      856.234
03/31/2014  08:23:00       65.490       18.976        0.270       25.533       19.348       22.015      651.949      374.363      484.656        0.308        0.076       68.184       11.007        0.026      334.436        4.408      856.215
03/31/2014  08:24:00       50.027       21.063       -0.659       19.305       29.705       21.744      372.685      882.370      472.788        0.234        0.086       54.280        6.452        0.014      334.596        4.674      856.217
03/31/2014  08:25:00       69.265       36.723       24.053       51.196       31.249       31.916     2621.063      976.529     1018.608        0.567        0.231       78.398       11.690        0.022      334.743        4.917      856.197
03/31/2014  08:26:00      122.767       93.751       55.203       70.562       70.223       64.784     4979.019     4931.253     4197.009        2.050        0.705      154.470       49.418        0.102      334.706        4.854      856.195
03/31/2014  08:27:00      135.372       79.001       68.408       67.686       63.902       60.560     4581.452     4083.526     3667.563        2.079        0.617      156.738       37.569        0.057      334.710        4.862      856.176
03/31/2014  08:28:00      145.836       69.620       45.866       75.452       54.341       49.963     5693.079     2952.952     2496.284        1.968        0.557      161.601       39.713        0.060      334.694        4.834      856.157
03/31/2014  08:29:00      143.396      118.351       82.854       93.037       80.883       78.245     8655.927     6542.009     6122.230        3.137        1.066      185.928       63.637        0.117      334.762        4.945      856.120
03/31/2014  08:30:00      129.298       95.338       88.285       65.350       64.545       51.618     4270.628     4166.113     2664.430        2.235        0.555      160.646       37.035        0.053      334.751        4.927      856.124
03/31/2014  08:31:00       74.374       92.204       76.483       65.418       56.391       60.651     4279.523     3179.926     3678.559        1.551        0.557      118.461       49.540        0.175      334.790        4.994      856.124
03/31/2014  08:32:00      138.699       72.680       47.549       86.478       73.389       52.232     7478.494     5385.922     2728.185        2.118        0.780      156.587       44.939        0.082      334.822        5.048      856.096
03/31/2014  08:33:00      196.063       99.632       23.140       68.801       56.172       52.663     4733.517     3155.307     2773.379        2.978        0.533      219.926       18.457        0.007      334.731        4.894      856.073
03/31/2014  08:34:00      173.973      100.643        3.333       62.499       45.137       39.803     3906.094     2037.340     1584.290        2.397        0.376      200.987       31.140        0.024      334.738        4.907      856.048
03/31/2014  08:35:00      178.685       90.697       26.894       70.510       47.819       58.356     4971.701     2286.612     3405.461        2.577        0.533      200.385       33.541        0.028      334.914        5.200      856.034
03/31/2014  08:36:00      141.441       48.128       43.197       68.601       50.210       47.584     4706.042     2521.010     2264.191        1.684        0.475      149.405       35.616        0.057      334.942        5.247      856.044
03/31/2014  08:37:00      153.903       63.072       31.862      119.834       70.230       56.836    14360.109     4932.276     3230.385        2.560        1.126      166.325       22.151        0.018      334.820        5.043      856.025
03/31/2014  08:38:00       44.136      -48.614       -6.226       46.895       56.887       34.392     2199.149     3236.113     1182.805        0.548        0.331       65.661       25.868        0.155      334.959        5.276      856.019
03/31/2014  08:39:00       50.589      -63.555       16.756       48.971       32.890       26.923     2398.119     1081.769      724.825        0.554        0.210       81.231       20.636        0.065      335.054        5.434      856.020
03/31/2014  08:40:00       20.614       11.571       41.694       39.494       29.031       30.806     1559.752      842.808      949.010        0.282        0.168       23.639       21.426        0.822      335.273        5.798      856.012
03/31/2014  08:41:00        8.621        9.214       50.533       33.020       46.379       25.120     1090.299     2151.013      631.009        0.329        0.194       12.618       18.627        2.179      335.339        5.906      856.009
03/31/2014  08:42:00       18.787       39.082       27.012       30.867       33.995       27.700      952.773     1155.643      767.288        0.274        0.144       43.363       19.130        0.195      335.178        5.640      856.000
03/31/2014  08:43:00       15.608       10.244       31.666       45.679       44.817       26.179     2086.616     2008.522      685.322        0.306        0.239       18.670       23.256        1.552      335.274        5.798      855.988
03/31/2014  08:44:00       57.929        0.432       57.300       58.907       67.611       49.715     3470.010     4571.315     2471.560        0.857        0.526       57.930       50.761        0.768      335.123        5.547      855.968
03/31/2014  08:45:00       88.338       15.675       64.305       63.926       95.773       65.330     4086.486     9172.536     4268.049        1.485        0.876       89.718       62.998        0.493      335.019        5.375      855.958
03/31/2014  08:46:00       53.632      -87.303       27.183       50.458      125.225       54.982     2545.984    15681.209     3022.992        1.624        1.063      102.461       73.135        0.509      335.012        5.364      855.973
03/31/2014  08:47:00       -4.510        2.650       19.321       29.496       46.898       26.435      870.001     2199.411      698.811        0.208        0.188        5.231       13.337        6.500      335.180        5.644      855.939
03/31/2014  08:48:00       -9.832      -53.486        5.855       31.575       44.617       26.330      996.990     1990.703      693.272        0.334        0.184       54.382       18.302        0.113      335.281        5.811      855.922
03/31/2014  08:49:00       29.330      -70.762       16.695       63.574       70.503       42.983     4041.637     4970.729     1847.515        0.850        0.543       76.600       33.137        0.187      335.272        5.796      855.900
03/31/2014  08:50:00       -7.938       30.098       79.699       26.497       39.002       30.508      702.066     1521.146      930.730        0.524        0.158       31.127       26.988        0.752      335.392        5.995      855.873
03/31/2014  08:51:00      -16.209       42.388       80.318       22.057       31.801       26.445      486.517     1011.308      699.364        0.535        0.110       45.381       19.100        0.177      335.455        6.099      855.865
03/31/2014  08:52:00        9.007      -51.148       20.949       38.280       69.345       45.667     1465.384     4808.697     2085.452        0.575        0.418       51.935       46.549        0.803      335.290        5.824      855.865
03/31/2014  08:53:00      -36.844      -40.818        1.850       64.349       50.195       33.246     4140.820     2519.497     1105.275        0.539        0.388       54.987       26.952        0.240      335.551        6.260      855.860
03/31/2014  08:54:00     -141.343       -3.464        4.061       66.488       70.197       36.361     4420.596     4927.586     1322.100        1.534        0.534      141.386       32.844        0.054      335.230        5.727      855.853
03/31/2014  08:55:00     -132.665        7.102        8.122       79.322       66.953       37.536     6291.901     4482.639     1408.950        1.495        0.609      132.855       38.268        0.083      335.259        5.775      855.826
03/31/2014  08:56:00     -138.126     -117.730        7.998       98.177       98.182       53.953     9638.795     9639.795     2910.914        2.759        1.109      181.491       54.544        0.090      335.399        6.007      855.805
03/31/2014  08:57:00     -133.956      -91.207       -8.798       92.089       46.509       40.605     8480.347     2163.089     1648.746        1.931        0.615      162.059       20.476        0.016      335.246        5.749      855.810
03/31/2014  08:58:00       -6.494       59.149       61.512       32.006       41.170       38.125     1024.364     1694.979     1453.506        0.575        0.209       59.504       28.770        0.234      335.611        6.360      855.811
03/31/2014  08:59:00       -1.278       17.689       57.888       27.187       51.177       31.016      739.132     2619.122      961.996        0.399        0.216       17.735       30.855        3.027      335.712        6.530      855.801
03/31/2014  09:00:00       58.147       19.275       58.888       61.561       50.499       48.564     3789.709     2550.175     2358.477        0.796        0.435       61.259       45.892        0.561      335.431        6.059      855.804
03/31/2014  09:01:00      -22.509      -92.741      -27.604       74.930       67.612       41.790     5614.453     4571.422     1746.431        1.090        0.597       95.433       47.764        0.250      335.520        6.209      855.807
03/31/2014  09:02:00      -68.208        2.084        1.470       32.815       47.602       31.168     1076.856     2265.955      971.428        0.449        0.216       68.240       30.917        0.205      335.262        5.779      855.804
03/31/2014  09:03:00       74.021      -13.714       26.821      105.715       83.119       75.566    11175.733     6908.830     5710.286        1.509        1.190       75.281       66.082        0.771      335.614        6.365      855.791
03/31/2014  09:04:00      -26.596     -226.143      -13.232      155.060      150.493       73.616    24043.632    22648.003     5419.271        5.206        2.606      227.701       80.002        0.123      335.441        6.073      855.778
03/31/2014  09:05:00     -123.867     -253.919        2.514      100.688      199.692       67.632    10138.156    39877.022     4574.042        6.720        2.729      282.521       55.816        0.039      335.363        5.945      855.781
03/31/2014  09:06:00     -100.899     -123.596       11.618       96.890       77.664       54.136     9387.754     6031.754     2930.690        2.197        0.918      159.551       47.244        0.088      335.482        6.145      855.764
03/31/2014  09:07:00        1.554       19.180       74.286       87.391       85.626       54.879     7637.141     7331.886     3011.707        1.193        0.899       19.243       49.504        6.618      335.642        6.412      855.779
03/31/2014  09:08:00      -16.660       32.886      109.609       88.413       86.754       74.571     7816.897     7526.294     5560.859        1.713        1.045       36.865       41.230        1.251      335.715        6.532      855.741
03/31/2014  09:09:00      -67.310      -38.161       -0.684       94.116       61.440       45.820     8857.808     3774.923     2099.459        1.036        0.737       77.375       22.174        0.082      335.670        6.458      855.769
03/31/2014  09:10:00      -75.229       -6.241        5.089       68.238       62.915       41.420     4656.408     3958.357     1715.654        0.803        0.517       75.488       32.296        0.183      335.593        6.331      855.772
03/31/2014  09:11:00     -111.349      -57.405        5.788       79.812       59.105       37.940     6369.970     3493.379     1439.424        1.351        0.565      125.276       29.545        0.056      335.634        6.398      855.763
03/31/2014  09:12:00      -74.822     -103.794        2.254      102.524       76.926       46.573    10511.212     5917.543     2169.056        1.748        0.930      127.951       27.135        0.045      335.534        6.231      855.767
03/31/2014  09:13:00     -138.670     -142.259       -6.811      114.308       80.145       49.148    13066.392     6423.166     2415.519        3.070        1.095      198.663       43.462        0.048      335.335        5.897      855.770
03/31/2014  09:14:00     -133.053     -112.333        5.465       89.671       71.709       45.279     8040.927     5142.117     2050.159        2.279        0.762      174.132       23.442        0.018      335.440        6.073      855.791
03/31/2014  09:15:00      -41.400     -161.683       -7.568       74.832      114.842       49.600     5599.836    13188.610     2460.203        2.458        1.062      166.899       50.114        0.090      335.422        6.043      855.800
03/31/2014  09:16:00      -71.714     -154.664       -1.667       92.783       60.488       39.792     8608.630     3658.824     1583.365        2.146        0.693      170.481       27.263        0.026      335.538        6.236      855.795
03/31/2014  09:17:00      -20.545     -214.727      -30.901      101.649      129.389       64.736    10332.517    16741.471     4190.752        3.937        1.563      215.708       64.477        0.089      335.536        6.233      855.798
03/31/2014  09:18:00     -111.753      -62.559        3.976       75.144       73.462       46.177     5646.595     5396.656     2132.301        1.479        0.659      128.072       35.778        0.078      335.547        6.252      855.773
03/31/2014  09:19:00     -112.035      -98.842       -6.576       80.026       67.877       47.277     6404.140     4607.341     2235.131        1.780        0.662      149.404       35.203        0.056      335.460        6.108      855.764
03/31/2014  09:20:00     -148.785     -138.560      -10.155       84.526       79.653       44.294     7144.619     6344.629     1961.940        2.844        0.773      203.312       42.742        0.044      335.576        6.298      855.758
03/31/2014  09:21:00     -178.589      -89.227        9.275      150.457      103.259       67.757    22637.398    10662.509     4591.064        3.891        1.895      199.638       73.217        0.135      335.540        6.241      855.736
03/31/2014  09:22:00      -99.299     -114.945        6.137      122.006       87.408       52.808    14885.435     7640.076     2788.647        2.421        1.266      151.896       36.989        0.059      335.554        6.265      855.751
03/31/2014  09:23:00      -78.273     -153.374       -5.262      103.604       82.106       54.664    10733.818     6741.392     2988.118        2.507        1.023      172.192       35.659        0.043      335.482        6.144      855.747
03/31/2014  09:24:00     -139.828     -158.616       -6.734      107.746       90.072       54.169    11609.294     8113.003     2934.235        3.370        1.133      211.450       36.537        0.030      335.404        6.013      855.740
03/31/2014  09:25:00       98.817     -134.676       -4.032      117.269      124.036       65.877    13751.939    15384.973     4339.733        3.069        1.674      167.040       84.405        0.255      335.648        6.419      855.727
03/31/2014  09:26:00      -39.972      -59.255       -1.048       75.124       58.445       50.540     5643.625     3415.839     2554.307        0.836        0.581       71.477       37.016        0.268      335.721        6.544      855.724
03/31/2014  09:27:00      -27.074      -32.435        4.431       31.411       29.053       21.216      986.672      844.074      450.124        0.204        0.114       42.250        7.154        0.029      335.788        6.655      855.731
03/31/2014  09:28:00       18.214      -13.447        3.504       40.026       47.692       26.510     1602.062     2274.531      702.766        0.255        0.229       22.641       24.819        1.202      335.884        6.814      855.742
03/31/2014  09:29:00      -25.903       -2.739       19.257       45.275       39.972       30.378     2049.790     1597.752      922.800        0.281        0.229       26.047       25.892        0.988      335.898        6.839      855.726
03/31/2014  09:30:00      -31.358      -69.106      -16.385       64.744       31.796       29.895     4191.737     1010.996      893.728        0.606        0.305       75.888       19.355        0.065      335.862        6.779      855.735
03/31/2014  09:31:00      -17.056     -152.177       -2.988       74.832       83.435       48.124     5599.816     6961.366     2315.953        1.916        0.744      153.130       35.048        0.052      335.728        6.552      855.722
03/31/2014  09:32:00      -45.689     -100.628       10.786       98.822       81.956       47.433     9765.795     6716.798     2249.843        1.553        0.937      110.514       36.790        0.111      335.734        6.563      855.701
03/31/2014  09:33:00      -45.408      -67.548       -8.014       54.145       55.181       36.854     2931.688     3044.889     1358.250        0.701        0.367       81.392       32.036        0.155      335.679        6.474      855.721
03/31/2014  09:34:00      -26.629     -106.792       -0.844       48.783       85.123       47.452     2379.773     7245.917     2251.700        1.199        0.594      110.062       39.063        0.126      335.866        6.784      855.718
03/31/2014  09:35:00      -22.168     -116.160        1.510       49.356       64.492       33.801     2436.053     4159.171     1142.499        1.086        0.387      118.256       26.071        0.049      335.905        6.850      855.753
03/31/2014  09:36:00      -35.140     -234.260       11.876      100.645      148.071       67.236    10129.358    21924.946     4520.698        4.641        1.829      236.881       58.432        0.061      335.749        6.589      855.734
03/31/2014  09:37:00       57.455      -80.129       28.641      103.860      121.204       73.943    10786.852    14690.477     5467.517        2.074        1.547       98.599       85.256        0.748      335.645        6.415      855.730
03/31/2014  09:38:00       20.813      -53.574       18.415       54.753       81.721       44.580     2997.912     6678.307     1987.366        0.765        0.583       57.475       32.708        0.324      335.884        6.816      855.707
03/31/2014  09:39:00       80.178      -35.035       43.478       73.322      105.489       75.820     5376.049    11127.990     5748.736        1.590        1.113       87.498       67.665        0.598      335.646        6.417      855.674
03/31/2014  09:40:00        2.948      -49.816       33.608       48.071       80.711       44.624     2310.868     6514.198     1991.317        0.722        0.541       49.903       36.746        0.542      335.675        6.468      855.653
03/31/2014  09:41:00      -99.580      -66.543        3.726       78.084       53.146       36.402     6097.143     2824.513     1325.072        1.230        0.512      119.767       34.013        0.081      335.785        6.651      855.653
03/31/2014  09:42:00      -39.816     -162.774        6.680       80.955      119.619       45.967     6553.726    14308.692     2112.994        2.555        1.149      167.573       43.741        0.068      335.789        6.656      855.695
03/31/2014  09:43:00       44.433      -57.336       53.975       77.252      152.834       85.612     5967.796    23358.297     7329.388        2.241        1.833       72.537      102.189        1.985      335.674        6.463      855.649
03/31/2014  09:44:00       76.507     -101.349       48.445       98.235      156.783       69.409     9650.179    24581.054     4817.630        2.875        1.952      126.984       90.309        0.506      335.541        6.241      855.615
03/31/2014  09:45:00      -29.683      -53.957        6.748       87.414       68.947       37.254     7641.272     4753.736     1387.837        0.881        0.689       61.583       21.320        0.120      335.728        6.554      855.610
03/31/2014  09:46:00      -66.226      -37.084        9.323       37.468       47.102       29.337     1403.818     2218.624      860.673        0.516        0.224       75.902       23.649        0.097      335.763        6.613      855.614
03/31/2014  09:47:00      -20.494      -48.653       -1.085       58.377       53.243       38.923     3407.892     2834.791     1514.973        0.527        0.388       52.793       32.833        0.387      335.799        6.674      855.603
03/31/2014  09:48:00      -40.641     -143.099        3.564       81.345       83.673       50.619     6617.052     7001.219     2562.234        1.916        0.809      148.758       35.523        0.057      335.821        6.709      855.624
03/31/2014  09:49:00       44.038      -72.158        9.977      104.845       77.126       53.769    10992.537     5948.474     2891.068        1.353        0.992       84.535       49.129        0.338      335.888        6.822      855.593
03/31/2014  09:50:00       -5.527     -122.473        2.274      103.604      120.836       60.360    10733.875    14601.230     3643.274        2.200        1.449      122.598       38.254        0.097      335.813        6.696      855.595
03/31/2014  09:51:00       26.093     -171.947      -13.199       94.585      130.225       63.722     8946.241    16958.559     4060.524        3.019        1.498      173.916       62.036        0.127      335.745        6.582      855.591
03/31/2014  09:52:00       22.843     -180.268       -6.897      109.448      131.982       77.752    11978.885    17419.311     6045.355        3.425        1.772      181.710       68.198        0.141      335.663        6.445      855.568
03/31/2014  09:53:00      -33.819     -102.849        2.889       98.349       79.698       40.103     9672.532     6351.735     1608.240        1.468        0.882      108.267       46.198        0.182      335.600        6.341      855.573
03/31/2014  09:54:00       28.171      -27.912       54.326       83.907       84.664       50.085     7040.442     7167.981     2508.527        1.062        0.836       39.658       44.956        1.285      335.787        6.654      855.551
03/31/2014  09:55:00       49.703      -17.389       58.632       66.376       82.290       60.747     4405.707     6771.663     3690.239        1.054        0.743       52.657       55.382        1.106      335.628        6.388      855.534
03/31/2014  09:56:00      109.462     -119.079       15.188       81.161       63.990       50.329     6587.096     4094.744     2532.980        1.980        0.661      161.746       41.548        0.066      335.595        6.332      855.503
03/31/2014  09:57:00       15.609       38.946       92.134       74.721       63.174       66.469     5583.188     3990.981     4418.183        1.212        0.700       41.958       70.021        2.785      335.748        6.589      855.479
03/31/2014  09:58:00       -0.146      -80.379       18.371       62.162       68.587       49.392     3864.162     4704.134     2439.563        0.890        0.550       80.379       27.346        0.116      335.837        6.736      855.483
03/31/2014  09:59:00       14.682      -80.304      -11.219       83.296       39.866       38.997     6938.178     1589.314     1520.786        0.842        0.502       81.635       40.347        0.244      335.803        6.681      855.500
03/31/2014  10:00:00      -45.735     -107.081       13.336       77.173       81.921       44.381     5955.726     6711.109     1969.684        1.418        0.732      116.439       46.251        0.158      335.855        6.765      855.504
03/31/2014  10:01:00       54.794      -88.668        5.803       88.277       84.147       57.202     7792.916     7080.796     3272.080        1.452        0.907      104.232       53.585        0.264      335.847        6.753      855.492
03/31/2014  10:02:00       31.774      -21.453       30.508       63.381       47.074       34.912     4017.173     2215.919     1218.834        0.492        0.373       38.338       30.242        0.622      336.110        7.193      855.475
03/31/2014  10:03:00       43.787      -71.546       26.111       61.777       81.117       44.831     3816.426     6580.040     2009.797        1.006        0.620       83.882       49.773        0.352      335.767        6.620      855.471
03/31/2014  10:04:00       53.229     -103.540       -0.937       46.607       73.226       35.977     2172.207     5362.005     1294.349        1.119        0.441      116.422       35.593        0.093      335.679        6.474      855.457
03/31/2014  10:05:00        7.027       28.530       70.636       48.871       65.067       45.452     2388.416     4233.669     2065.911        0.727        0.434       29.383       46.880        2.546      335.829        6.723      855.433
03/31/2014  10:06:00      -32.035      -78.692        8.006       60.161       41.398       32.251     3619.358     1713.759     1040.107        0.683        0.319       84.963       32.073        0.142      335.897        6.835      855.437
03/31/2014  10:07:00      -18.801      -51.285       17.092       74.455       64.390       49.279     5543.580     4146.049     2428.407        0.769        0.606       54.622       49.879        0.834      335.974        6.964      855.464
03/31/2014  10:08:00       24.516      -15.180       34.118       38.377       62.965       45.201     1472.780     3964.545     2043.143        0.474        0.374       28.835       41.253        2.047      335.980        6.975      855.447
03/31/2014  10:09:00       94.459     -129.325       -0.963       93.558       70.569       54.664     8753.066     4979.967     2988.198        2.118        0.836      160.148       45.824        0.082      335.874        6.798      855.446
03/31/2014  10:10:00       56.412     -100.366       11.432       88.160      107.111       64.529     7772.247    11472.748     4163.977        1.839        1.170      115.133       46.874        0.166      335.891        6.826      855.457
03/31/2014  10:11:00      -51.330     -108.491       12.417       61.657       79.458       42.880     3801.613     6313.598     1838.669        1.325        0.598      120.022       25.497        0.045      335.858        6.771      855.453
03/31/2014  10:12:00      -64.696      -58.513        9.403      124.290       98.342       58.354    15448.052     9671.194     3405.177        1.811        1.426       87.231       35.454        0.165      335.884        6.813      855.434
03/31/2014  10:13:00     -186.932     -153.066        1.239      129.370       98.771       58.044    16736.622     9755.656     3369.142        4.411        1.493      241.605       55.758        0.053      335.524        6.212      855.408
03/31/2014  10:14:00      -75.023     -103.288       -0.166       82.525       99.519       38.607     6810.318     9904.042     1490.507        1.725        0.910      127.659       40.135        0.099      335.694        6.497      855.422
03/31/2014  10:15:00     -158.285     -166.945        1.113       86.454      126.733       47.997     7474.294    16061.300     2303.722        3.938        1.292      230.054       52.782        0.053      335.647        6.418      855.430
03/31/2014  10:16:00     -152.246     -150.798      -18.648      117.556      100.284       51.014    13819.482    10056.785     2602.466        3.637        1.324      214.287       31.017        0.021      335.707        6.518      855.415
03/31/2014  10:17:00      -32.778      -80.279       11.788       87.698       59.979       38.719     7691.003     3597.527     1499.163        1.022        0.639       86.713       28.962        0.112      335.890        6.824      855.401
03/31/2014  10:18:00      -34.894      -50.170       26.851       63.242       63.134       33.253     3999.612     3985.882     1105.775        0.677        0.455       61.111       15.659        0.066      335.983        6.980      855.397
03/31/2014  10:19:00      -50.114      -65.131        7.448       51.056       47.779       29.651     2606.666     2282.859      879.176        0.629        0.288       82.179       23.681        0.083      335.846        6.752      855.402
03/31/2014  10:20:00      -77.999      -70.159      -14.514       81.663       57.978       32.715     6668.855     3361.399     1070.254        1.116        0.555      104.910       13.208        0.016      335.888        6.820      855.387
03/31/2014  10:21:00     -181.065     -168.865        2.833      137.527      105.610       62.400    18913.580    11153.497     3893.736        4.763        1.698      247.588       57.544        0.054      335.731        6.558      855.375
03/31/2014  10:22:00     -210.367     -233.141        6.598      143.521      147.458       74.275    20598.209    21743.766     5516.742        7.325        2.393      314.021       81.845        0.068      335.617        6.368      855.326
03/31/2014  10:23:00      -84.624     -113.415       25.554      105.322      104.796       56.488    11092.631    10982.213     3190.848        2.297        1.263      141.506       52.107        0.136      335.749        6.588      855.331
03/31/2014  10:24:00     -171.145     -111.341        9.831      123.379       91.154       52.181    15222.330     8309.009     2722.817        3.401        1.313      204.175       50.820        0.062      335.850        6.755      855.320
03/31/2014  10:25:00     -143.078     -165.224        2.539      137.699       87.808       58.174    18961.008     7710.178     3384.188        3.891        1.503      218.564       34.847        0.025      335.795        6.665      855.311
03/31/2014  10:26:00      -88.573      -66.029        4.448       73.105       65.300       45.476     5344.353     4264.149     2068.034        1.195        0.584      110.477       32.229        0.085      335.848        6.754      855.317
03/31/2014  10:27:00     -167.377     -145.126       -9.370      131.109       78.741       56.190    17189.488     6200.079     3157.361        3.785        1.327      221.533       47.840        0.047      335.728        6.554      855.307
03/31/2014  10:28:00     -196.864     -150.674        2.527      103.276       88.357       54.108    10665.978     7806.894     2927.640        4.143        1.070      247.907       56.464        0.052      335.709        6.519      855.277
03/31/2014  10:29:00     -219.195     -137.158        6.913      132.751      118.241       55.292    17622.892    13980.872     3057.200        5.078        1.733      258.570       64.560        0.062      335.678        6.470      855.251
03/31/2014  10:30:00     -112.489     -163.617      -14.314      112.164       84.493       65.972    12580.765     7139.097     4352.305        3.185        1.204      198.556       45.606        0.053      335.769        6.621      855.250
03/31/2014  10:31:00      -64.985     -117.486       -3.471       71.493       70.788       40.237     5111.185     5010.953     1619.030        1.489        0.587      134.261       34.353        0.065      335.700        6.508      855.239
03/31/2014  10:32:00     -115.672     -153.771       -8.479       90.224       83.068       59.245     8140.318     6900.328     3510.011        2.782        0.928      192.420       45.496        0.056      335.715        6.531      855.249
03/31/2014  10:33:00      -17.869     -146.764       -9.556       48.842       62.290       34.796     2385.581     3880.007     1210.745        1.471        0.374      147.848       21.675        0.021      335.623        6.378      855.227
03/31/2014  10:34:00     -113.076     -128.864        5.722       76.317       55.607       41.841     5824.307     3092.088     1750.686        2.004        0.533      171.441       35.505        0.043      335.700        6.507      855.233
03/31/2014  10:35:00      -57.142     -212.851        7.600       81.219       97.068       36.734     6596.499     9422.237     1349.388        3.299        0.868      220.388       34.621        0.025      335.719        6.539      855.220
03/31/2014  10:36:00       -8.074     -171.936      -20.511      123.989       61.884       51.226    15373.182     3829.629     2624.143        2.593        1.091      172.125       39.010        0.051      335.993        6.995      855.191
03/31/2014  10:37:00       -3.577     -179.974      -11.524      102.974       66.043       48.125    10603.630     4361.727     2315.999        2.491        0.864      180.010       39.998        0.049      336.202        7.344      855.214
03/31/2014  10:38:00      -35.682      -69.620        5.740       72.923      114.998       41.562     5317.743    13224.433     1727.369        1.321        1.013       78.231       42.813        0.299      336.226        7.385      855.202
03/31/2014  10:39:00       -8.840     -142.454        1.422       89.240      121.285       54.667     7963.768    14710.089     2988.429        2.301        1.283      142.728       36.995        0.067      336.033        7.062      855.214
03/31/2014  10:40:00      -59.791      -92.440        4.880       82.341       81.919       69.828     6780.116     6710.726     4875.947        1.525        0.918      110.091       52.905        0.231      336.127        7.220      855.230
03/31/2014  10:41:00      -40.799      -21.797       19.732       87.753       76.721       37.154     7700.663     5886.164     1380.402        0.875        0.748       46.257       21.989        0.226      336.282        7.479      855.250
03/31/2014  10:42:00     -134.705     -151.727       15.266      111.510      160.362       64.986    12434.370    25715.858     4223.237        4.188        2.119      202.895       74.441        0.135      335.846        6.749      855.237
03/31/2014  10:43:00     -154.777     -154.245       15.200      136.840      118.349       61.654    18725.101    14006.464     3801.246        4.225        1.827      218.512       82.541        0.143      335.697        6.502      855.247
03/31/2014  10:44:00      -86.756     -164.267       -3.856      109.800       96.633       42.100    12056.072     9337.869     1772.405        2.884        1.158      185.769       31.156        0.028      335.743        6.577      855.253
03/31/2014  10:45:00     -126.151     -136.627        2.555      119.825       70.851       56.610    14358.083     5019.907     3204.645        2.858        1.129      185.959       27.458        0.022      335.727        6.552      855.238
03/31/2014  10:46:00      -51.685     -137.819       -0.885       90.467      123.404       56.268     8184.210    15228.629     3166.134        2.412        1.329      147.192       65.092        0.196      335.880        6.806      855.276
03/31/2014  10:47:00      -59.918     -120.228        8.444      139.341      132.219       57.468    19415.821    17481.874     3302.538        2.915        2.010      134.332       57.120        0.181      335.753        6.595      855.269
03/31/2014  10:48:00      -59.208     -141.872       -2.927      108.839       93.622       57.481    11846.004     8765.069     3304.113        2.377        1.196      153.731       24.775        0.026      335.843        6.744      855.252
03/31/2014  10:49:00       35.989     -139.802       -7.339      121.939      117.038       75.460    14869.206    13697.803     5694.273        2.757        1.713      144.360       49.985        0.120      335.967        6.951      855.220
03/31/2014  10:50:00      -41.704      -88.844       -9.316      102.485       87.997       45.958    10503.275     7743.502     2112.106        1.503        1.018       98.145       35.517        0.131      335.889        6.821      855.228
03/31/2014  10:51:00      -49.871     -201.885      -25.697      146.072      127.855       68.265    21337.162    16346.882     4660.065        4.312        2.117      207.954       57.730        0.077      335.762        6.608      855.239
03/31/2014  10:52:00       50.377     -204.391      -14.317      129.475      117.913       54.102    16763.890    13903.377     2927.011        3.905        1.680      210.507       47.363        0.051      335.737        6.567      855.235
03/31/2014  10:53:00       11.854      -25.969       52.031       81.332      115.978       65.310     6614.824    13450.965     4265.353        1.392        1.217       28.547       82.469        8.346      335.993        6.995      855.214
03/31/2014  10:54:00      -61.377     -104.985       24.618       62.553      128.304       50.150     3912.938    16462.009     2515.053        1.914        1.144      121.609       66.550        0.299      336.029        7.055      855.207
03/31/2014  10:55:00        4.219      -65.282       54.183       71.172      120.205       81.642     5065.385    14449.362     6665.452        1.669        1.309       65.418       75.416        1.329      335.983        6.979      855.185
03/31/2014  10:56:00      -28.053     -111.948       -8.679       78.464       78.159       62.369     6156.601     6108.878     3889.860        1.477        0.808      115.409       47.050        0.166      336.020        7.040      855.213
03/31/2014  10:57:00      -29.165     -294.509      -15.852      129.150      149.340       80.974    16679.830    22302.322     6556.804        6.668        2.277      295.950       62.028        0.044      335.876        6.799      855.199
03/31/2014  10:58:00      -58.482     -238.153       -4.739      145.770      156.123       83.037    21248.997    24374.455     6895.073        5.633        2.626      245.229       77.625        0.100      335.727        6.551      855.203
03/31/2014  10:59:00      -65.260     -211.452        3.210       97.586      108.812       61.225     9522.942    11840.066     3748.474        3.704        1.256      221.293       46.312        0.044      335.893        6.826      855.190
03/31/2014  11:00:00       20.436     -202.526      -15.823      155.894      182.356       71.376    24302.819    33253.885     5094.534        5.216        3.133      203.554       64.359        0.100      335.869        6.788      855.184
03/31/2014  11:01:00      -27.725      -20.547       12.627       76.021       93.987       54.617     5779.207     8833.469     2982.982        0.947        0.880       34.509       44.904        1.693      336.091        7.160      855.153
03/31/2014  11:02:00      118.340     -226.879        8.691      130.839      191.961      105.136    17118.904    36849.183    11053.570        6.527        3.251      255.887      105.782        0.171      335.905        6.847      855.146
03/31/2014  11:03:00       39.117     -192.880      -15.504      112.744      115.701       53.628    12711.163    13386.672     2875.914        3.397        1.449      196.807       48.939        0.062      335.948        6.920      855.161
03/31/2014  11:04:00       21.631      -95.531        8.482      130.322      104.437       62.176    16983.797    10907.171     3865.808        2.071        1.588       97.950       63.297        0.418      336.159        7.273      855.142
03/31/2014  11:05:00      -47.441      -63.071       17.278       99.960       82.806       47.252     9991.946     6856.812     2232.710        1.280        0.954       78.921       46.001        0.340      336.091        7.159      855.143
03/31/2014  11:06:00      -78.924      -51.790       19.060       96.550       86.002       38.205     9321.953     7396.263     1459.607        1.372        0.909       94.399       42.974        0.207      336.123        7.213      855.134
03/31/2014  11:07:00       -9.975      -94.635       10.830       63.442       57.985       46.030     4024.857     3362.313     2118.729        0.934        0.475       95.159       29.272        0.095      336.242        7.412      855.142
03/31/2014  11:08:00       -3.024     -207.238      -13.544      143.756       89.365       69.578    20665.831     7986.106     4841.164        3.831        1.675      207.260       48.447        0.055      336.006        7.016      855.157
03/31/2014  11:09:00      -94.182      -66.749       -4.244      111.436      121.062       61.134    12417.991    14655.992     3737.389        2.207        1.541      115.436       68.734        0.355      335.906        6.849      855.161
03/31/2014  11:10:00      -57.645      -85.686       16.683       87.328       87.422       39.456     7626.155     7642.577     1556.770        1.388        0.841      103.271       37.537        0.132      335.949        6.923      855.143
03/31/2014  11:11:00      -85.990      -74.269       23.247      101.480       69.041       51.647    10298.259     4766.624     2667.367        1.559        0.887      113.623       54.995        0.234      335.967        6.953      855.131
03/31/2014  11:12:00      -34.784      -66.254       15.326       68.242       70.191       41.286     4656.997     4926.716     1704.565        0.856        0.564       74.830       34.809        0.216      336.159        7.274      855.132
03/31/2014  11:13:00       20.401      -99.315       15.614      101.856      118.679       65.540    10374.565    14084.636     4295.546        1.963        1.438      101.389       61.451        0.367      336.354        7.597      855.144
03/31/2014  11:14:00       11.467      -38.254       87.258       87.233       89.153       67.441     7609.605     7948.261     4548.350        1.465        1.005       39.936       37.738        0.893      336.252        7.429      855.148
03/31/2014  11:15:00       87.231     -173.365      -11.623      107.204      135.980       72.761    11492.753    18490.588     5294.167        3.653        1.764      194.074       66.296        0.117      336.073        7.129      855.190
03/31/2014  11:16:00        6.931      -10.413       24.489       55.815       52.236       40.943     3115.291     2728.574     1676.322        0.414        0.376       12.509       31.625        6.392      335.932        6.894      855.189
03/31/2014  11:17:00       59.641      -50.160       22.951       50.464       85.618       45.806     2546.574     7330.412     2098.230        0.929        0.599       77.930       53.409        0.470      335.978        6.971      855.139
03/31/2014  11:18:00      -61.859      -39.564       23.872       58.830       87.220       36.910     3460.999     7607.243     1362.327        0.919        0.622       73.429       41.856        0.325      336.034        7.066      855.139
03/31/2014  11:19:00     -207.462     -134.441        4.176      130.178       94.630       62.496    16946.197     8954.912     3905.689        4.546        1.490      247.214       62.932        0.065      335.791        6.656      855.133
03/31/2014  11:20:00     -223.525     -121.225       10.065      152.999       88.666       57.881    23408.822     7861.726     3350.254        4.968        1.731      254.281       65.310        0.066      335.745        6.581      855.140
03/31/2014  11:21:00     -242.380     -106.242       -2.756      109.640       90.304       50.330    12020.917     8154.855     2533.103        4.637        1.135      264.642       48.532        0.034      335.580        6.305      855.110
03/31/2014  11:22:00     -217.962      -74.050      -15.787       89.634       71.560       37.434     8034.308     5120.800     1401.278        3.390        0.728      230.197       36.472        0.025      335.609        6.356      855.106
03/31/2014  11:23:00     -120.998      -33.208       -2.626       98.229       64.455       39.125     9648.940     4154.423     1530.740        1.554        0.767      125.472       36.624        0.085      335.787        6.652      855.084
03/31/2014  11:24:00     -261.811     -110.799       -8.329       68.616       53.722       39.681     4708.145     2886.020     1574.555        4.503        0.458      284.291       35.789        0.016      335.532        6.223      855.051
03/31/2014  11:25:00     -180.344      -48.058       -2.034       71.240       48.180       27.888     5075.181     2321.336      777.747        2.150        0.409      186.638       25.826        0.019      335.558        6.271      855.042
03/31/2014  11:26:00      -38.234      -19.882        4.039       44.806       26.384       21.268     2007.598      696.141      452.326        0.251        0.158       43.095       24.056        0.312      336.002        7.013      855.018
03/31/2014  11:27:00      -22.568       17.749       19.245       19.997       22.595       19.607      399.876      510.529      384.427        0.124        0.065       28.712        7.181        0.063      336.049        7.089      854.980
03/31/2014  11:28:00      -36.483       12.567       -9.250       15.875       17.271       14.759      252.025      298.298      217.826        0.117        0.038       38.587        6.513        0.028      335.841        6.744      854.956
03/31/2014  11:29:00       -8.158       30.071       -0.628       27.902       24.766       23.914      778.530      613.351      571.882        0.147        0.098       31.158       18.433        0.350      336.044        7.081      854.944
03/31/2014  11:30:00      -16.274       62.407      119.356       50.942       84.754       68.201     2595.087     7183.162     4651.324        1.641        0.721       64.494       51.086        0.627      336.173        7.297      854.904
03/31/2014  11:31:00       28.394       49.375       87.464       47.375      101.967       75.429     2244.424    10397.253     5689.608        1.461        0.917       56.958       81.976        2.071      335.847        6.754      854.931
03/31/2014  11:32:00       66.240      -30.831       59.863       97.764      179.291      111.610     9557.871    32145.331    12456.722        3.153        2.708       73.064      127.760        3.058      336.052        7.093      854.927
03/31/2014  11:33:00       90.434      -73.701       49.254      101.590      114.769       80.965    10320.547    13171.871     6555.316        2.304        1.502      116.663       83.862        0.517      336.000        7.007      854.921
03/31/2014  11:34:00      109.841      -64.144       55.516      132.987      130.350      115.064    17685.478    16991.137    13239.772        3.358        2.396      127.199      119.874        0.888      335.916        6.866      854.869
03/31/2014  11:35:00      139.324     -128.018       29.833       91.899      142.047      109.101     8445.508    20177.316    11902.955        3.860        2.026      189.209      102.018        0.291      335.708        6.518      854.859
03/31/2014  11:36:00       46.614       39.879       72.551       64.573       94.746       65.035     4169.668     8976.857     4229.550        1.320        0.869       61.345       73.602        1.440      335.851        6.760      854.836
03/31/2014  11:37:00      150.552      110.987       47.600       34.327       35.636       44.216     1178.316     1269.930     1955.062        2.083        0.220      187.040       23.987        0.016      335.617        6.370      854.788
03/31/2014  11:38:00       69.171       50.595       28.041       56.091       31.713       28.604     3146.236     1005.720      818.175        0.655        0.249       85.700       15.387        0.032      335.884        6.815      854.758
03/31/2014  11:39:00       41.669       54.474        8.799       33.968       30.670       29.354     1153.814      940.632      861.639        0.387        0.148       68.584       22.817        0.111      335.989        6.990      854.747
03/31/2014  11:40:00       -7.483      -56.475       12.327       24.655       51.405       31.521      607.881     2642.432      993.561        0.382        0.212       56.969       23.487        0.170      336.435        7.734      854.726
03/31/2014  11:41:00       24.596      -66.364       29.071       34.847       62.193       42.961     1214.321     3867.998     1845.677        0.639        0.346       70.775       40.803        0.332      336.437        7.739      854.689
03/31/2014  11:42:00       49.900      -96.607       15.959       51.559       63.753       61.073     2658.289     4064.508     3729.887        1.126        0.523      108.733       57.244        0.277      336.348        7.589      854.666
03/31/2014  11:43:00      -76.390      -25.399       13.072      131.947       84.232       61.830    17409.989     7094.994     3822.903        1.748        1.416       80.502       65.672        0.666      336.545        7.918      854.628
03/31/2014  11:44:00      -73.328       23.737        1.591       89.687      128.100       55.575     8043.806    16409.625     3088.575        1.674        1.377       77.074       50.572        0.431      336.338        7.573      854.659
03/31/2014  11:45:00     -157.477     -112.076       -8.134       95.993       62.985       42.125     9214.686     3967.099     1774.536        2.619        0.748      193.287       40.345        0.044      335.903        6.846      854.690
03/31/2014  11:46:00      -99.521      -95.360       -7.828       54.044       44.507       26.557     2920.726     1980.834      705.296        1.233        0.280      137.833       24.780        0.032      335.705        6.516      854.666
03/31/2014  11:47:00      -21.037      -65.965       -6.366       15.924       31.605       16.755      253.569      998.898      280.721        0.318        0.077       69.238       14.717        0.045      335.791        6.661      854.672
03/31/2014  11:48:00      -46.868      -43.412       13.641      126.981      104.628       61.211    16124.198    10946.914     3746.738        1.754        1.541       63.885       66.500        1.084      336.295        7.499      854.652
03/31/2014  11:49:00     -255.431     -161.599      -13.054      100.327       73.129       51.026    10065.602     5347.874     2603.666        5.477        0.901      302.257       45.636        0.023      336.011        7.022      854.602
03/31/2014  11:50:00     -180.634     -208.500       -7.494      128.948       93.271       42.507    16627.711     8699.454     1806.815        5.164        1.357      275.864       46.883        0.029      335.974        6.960      854.548
03/31/2014  11:51:00      -76.944     -131.211        5.472      105.742       97.577       40.343    11181.278     9521.240     1627.576        2.274        1.117      152.108       25.851        0.029      336.166        7.284      854.535
03/31/2014  11:52:00      -29.508      -82.216       -6.483       40.532       45.713       28.063     1642.867     2089.635      787.547        0.610        0.226       87.351       20.615        0.056      336.192        7.329      854.508
03/31/2014  11:53:00      -53.118     -215.911       16.374       94.867      112.285       54.350     8999.812    12607.975     2953.908        3.713        1.228      222.349       51.813        0.054      336.352        7.594      854.515
03/31/2014  11:54:00       16.187     -279.790      -17.673      158.016      192.712       82.988    24969.079    37138.045     6886.970        7.391        3.450      280.258       85.564        0.093      336.361        7.608      854.440
03/31/2014  11:55:00       55.351     -188.895      -10.788      173.962      120.500       79.371    30262.759    14520.323     6299.758        4.496        2.554      196.838       86.481        0.193      336.478        7.804      854.388
03/31/2014  11:56:00      -51.177     -145.823       13.653      103.798      140.992       56.598    10774.080    19878.843     3203.315        2.896        1.693      154.542       56.475        0.134      336.456        7.769      854.383
03/31/2014  11:57:00        0.246     -240.773      -10.075      170.304      140.468       69.147    29003.363    19731.120     4781.356        5.578        2.676      240.773       39.554        0.027      336.454        7.764      854.362
03/31/2014  11:58:00      -50.332     -268.169      -21.937      132.722      145.141       88.337    17615.252    21065.859     7803.338        6.070        2.324      272.851       38.830        0.020      336.434        7.730      854.360
03/31/2014  11:59:00      -28.645     -141.775      -21.106       75.066       83.455       47.573     5634.962     6964.787     2263.167        1.811        0.743      144.640       43.991        0.093      336.365        7.616      854.356
03/31/2014  12:00:00      -17.511      -69.272       -1.383       62.038       57.180       36.191     3848.767     3269.599     1309.758        0.677        0.421       71.451       16.552        0.054      336.608        8.025      854.351
03/31/2014  12:01:00        4.258      -81.779       18.243      117.078      119.933       81.287    13707.203    14383.845     6607.647        2.086        1.735       81.890       77.182        0.888      336.737        8.238      854.355
03/31/2014  12:02:00      161.659     -154.514        2.776      108.827      129.826       65.952    11843.253    16854.733     4349.642        4.153        1.652      223.625       73.290        0.107      336.202        7.343      854.304
03/31/2014  12:03:00      105.401     -192.849      -22.072       71.396      101.832       56.894     5097.422    10369.670     3236.968        3.374        0.935      219.773       56.111        0.065      336.471        7.792      854.284
03/31/2014  12:04:00       99.238     -175.824       39.996      140.217      169.316       99.767    19660.803    28667.949     9953.528        5.031        2.914      201.897      117.533        0.339      336.529        7.889      854.267
03/31/2014  12:05:00       81.865     -112.846       30.073      121.013      114.143       62.590    14644.204    13028.672     3917.550        2.596        1.580      139.413       69.401        0.248      336.532        7.897      854.251
03/31/2014  12:06:00       87.835     -101.453       65.458      116.451      209.890      129.517    13560.874    44053.652    16774.602        4.833        3.719      134.193      145.423        1.174      336.436        7.734      854.194
03/31/2014  12:07:00        6.273     -163.461      -30.281      108.416       91.243       52.580    11754.012     8325.239     2764.699        2.526        1.142      163.582       56.979        0.121      336.605        8.018      854.211
03/31/2014  12:08:00       -4.831      -46.971       35.171       97.960       77.037       52.632     9596.182     5934.638     2770.123        1.088        0.915       47.219       35.904        0.578      336.743        8.250      854.238
03/31/2014  12:09:00      -43.154      -58.964       16.837      108.798       88.923       56.376    11837.061     7907.374     3178.206        1.427        1.146       73.069       49.438        0.458      336.676        8.137      854.194
03/31/2014  12:10:00      -66.793      -37.193       46.559      118.977      160.854      104.423    14155.503    25873.990    10904.072        2.946        2.547       76.450      104.764        1.878      336.556        7.936      854.182
03/31/2014  12:11:00      -52.172     -166.284        2.169      162.591      143.915       71.131    26435.894    20711.539     5059.605        4.128        2.610      174.276       83.944        0.232      336.537        7.903      854.173
03/31/2014  12:12:00       47.302     -254.499        0.032      163.033      146.882       88.536    26579.912    21574.238     7838.595        6.149        2.800      258.858       71.282        0.076      336.505        7.848      854.115
03/31/2014  12:13:00      -44.908     -141.103      -13.531       89.206      113.998       66.894     7957.781    12995.446     4474.806        2.376        1.271      148.077       63.522        0.184      336.585        7.985      854.110
03/31/2014  12:14:00      -45.699     -216.008        8.855      121.153      161.276       62.903    14678.164    26009.941     3956.748        4.673        2.232      220.789       71.099        0.104      336.606        8.018      854.114
03/31/2014  12:15:00      -55.848     -240.777      -12.427      120.296      136.459       73.500    14471.010    18620.993     5402.234        4.986        1.925      247.169       65.008        0.069      336.660        8.108      854.072
03/31/2014  12:16:00       56.303     -145.023       14.325      146.679      170.316      124.356    21514.697    29007.621    15464.506        4.518        3.299      155.569      124.162        0.637      336.552        7.928      854.039
03/31/2014  12:17:00      -22.090       -3.889       55.360       85.008      104.439       68.464     7226.339    10907.485     4687.346        1.319        1.141       22.430       73.793       10.824      336.762        8.281      854.039
03/31/2014  12:18:00      -47.474        7.281        3.195       37.388       34.056       25.183     1397.864     1159.813      634.184        0.275        0.160       48.029       21.011        0.191      336.689        8.161      853.979
03/31/2014  12:19:00        9.273       -0.116       29.568       27.199       41.451       29.357      739.801     1718.227      861.840        0.214        0.166        9.274       21.873        5.563      336.898        8.511      853.956
03/31/2014  12:20:00      -77.751       16.995       -0.343       47.584       34.795       30.086     2264.282     1210.664      905.176        0.536        0.219       79.587       21.589        0.074      336.760        8.277      853.923
03/31/2014  12:21:00      -35.746      -36.777       17.595       70.949       71.068       36.916     5033.727     5050.679     1362.781        0.719        0.572       51.286       24.171        0.222      336.783        8.318      853.901
03/31/2014  12:22:00      -38.605      -68.314       11.081       77.693       55.580       40.797     6036.164     3089.105     1664.390        0.853        0.539       78.467       31.118        0.157      336.791        8.328      853.891
03/31/2014  12:23:00     -108.146      -75.583       -1.719      102.040       81.784       46.465    10412.116     6688.657     2158.964        1.833        0.963      131.940       46.097        0.122      336.524        7.882      853.862
03/31/2014  12:24:00       -2.085      -73.030       12.755       78.154      101.755       53.251     6108.016    10354.052     2835.682        1.240        0.965       73.060       46.790        0.410      336.779        8.310      853.827
03/31/2014  12:25:00      -47.669      -92.202       19.260       66.801       89.709       47.496     4462.436     8047.737     2255.884        1.295        0.738      103.796       35.598        0.118      336.836        8.404      853.800
03/31/2014  12:26:00       82.617     -113.623       -1.815       74.039       66.470       40.761     5481.704     4418.225     1661.433        1.565        0.578      140.484       41.016        0.085      336.797        8.339      853.770
03/31/2014  12:27:00      -47.414      -13.677       11.707       56.269       39.813       26.025     3166.253     1585.112      677.301        0.400        0.271       49.347       15.120        0.094      336.947        8.591      853.746
03/31/2014  12:28:00      -34.214      -22.057        0.816       52.960       59.631       36.326     2804.747     3555.859     1319.568        0.467        0.384       40.708       38.466        0.893      336.984        8.653      853.736
03/31/2014  12:29:00      -26.647     -188.579      -17.330       86.804       70.933       40.180     7534.849     5031.499     1614.445        2.537        0.709      190.452       34.596        0.033      336.699        8.173      853.733
03/31/2014  12:30:00      -74.878     -175.600       -1.810       81.121      104.625       42.986     6580.693    10946.417     1847.786        2.791        0.969      190.898       51.599        0.073      336.575        7.966      853.711
03/31/2014  12:31:00      -86.897      -77.537       -4.489       68.455       67.404       36.579     4686.019     4543.292     1338.017        1.207        0.528      116.461       21.887        0.035      336.653        8.098      853.714
03/31/2014  12:32:00       13.731      -85.474       10.284       66.759       51.751       45.955     4456.820     2678.157     2111.860        0.842        0.462       86.570       30.846        0.127      336.859        8.443      853.730
03/31/2014  12:33:00      -30.060     -100.987       -8.012       65.930       58.357       44.301     4346.829     3405.536     1962.594        1.044        0.486      105.366       30.413        0.083      336.952        8.599      853.738
03/31/2014  12:34:00      108.612     -128.842       25.350      116.304      168.723       78.945    13526.536    28467.353     6232.310        3.862        2.411      168.514      102.439        0.370      336.558        7.938      853.724
03/31/2014  12:35:00       14.207      -96.004        9.398       91.032       88.620       46.195     8286.846     7853.545     2133.983        1.389        0.914       97.049       50.273        0.268      336.912        8.532      853.723
03/31/2014  12:36:00       52.106     -114.527       10.393       89.038       96.492       67.545     7927.773     9310.713     4562.300        1.887        1.090      125.823       31.987        0.065      336.879        8.475      853.724
03/31/2014  12:37:00      -21.485      -99.313       14.162       91.835       63.461       49.140     8433.730     4027.312     2414.759        1.270        0.744      101.611       25.647        0.064      336.722        8.214      853.720
03/31/2014  12:38:00     -105.976      -75.222       11.521       56.588       73.786       44.252     3202.187     5444.350     1958.243        1.381        0.530      129.958       31.134        0.057      336.490        7.826      853.697
03/31/2014  12:39:00      -98.523       -7.986       -4.907       61.248       47.206       22.122     3751.275     2228.360      489.365        0.813        0.323       98.846       16.383        0.027      336.519        7.874      853.669
03/31/2014  12:40:00      -25.297        5.229       16.852       44.971       31.745       29.390     2022.411     1007.775      863.792        0.242        0.195       25.832       30.421        1.387      336.921        8.547      853.631
03/31/2014  12:41:00      -30.496        2.032       15.356       49.577       34.440       33.775     2457.878     1186.095     1140.733        0.298        0.239       30.563       24.738        0.655      337.014        8.702      853.604
03/31/2014  12:42:00      -40.169       35.658        3.983       28.313       28.836       29.134      801.621      831.511      848.781        0.269        0.124       53.712        9.635        0.032      336.822        8.380      853.565
03/31/2014  12:43:00     -137.539      -86.495      -12.624       68.806       77.373       42.287     4734.228     5986.589     1788.224        1.953        0.625      162.476       36.176        0.050      336.704        8.183      853.545
03/31/2014  12:44:00     -188.277     -131.867      -15.548       70.334       65.013       40.872     4946.893     4226.683     1670.531        3.196        0.542      229.863       32.797        0.020      336.432        7.726      853.539
03/31/2014  12:45:00      -64.877      -29.952       11.724       42.936       35.804       26.229     1843.490     1281.923      687.975        0.453        0.191       71.457       29.210        0.167      336.660        8.112      853.514
03/31/2014  12:46:00      -56.550      -78.890        9.062       54.398       42.560       35.544     2959.161     1811.364     1263.382        0.777        0.302       97.065       31.801        0.107      336.612        8.032      853.516
03/31/2014  12:47:00       28.717      -69.386        8.306       70.868       96.623       49.926     5022.239     9335.956     2492.602        1.128        0.843       75.094       58.898        0.615      336.870        8.462      853.511
03/31/2014  12:48:00      -81.950      -64.275       -9.775       75.630       72.866       34.515     5719.851     5309.506     1191.268        1.158        0.611      104.149       21.602        0.043      336.739        8.243      853.502
03/31/2014  12:49:00      -36.540     -117.247       12.698       80.216       88.124       41.811     6434.596     7765.806     1748.141        1.559        0.797      122.809       21.468        0.031      337.053        8.766      853.502
03/31/2014  12:50:00       28.588       -8.668       47.283       49.072      101.069       51.346     2408.042    10215.030     2636.394        0.919        0.763       29.873       58.952        3.894      337.017        8.708      853.487
03/31/2014  12:51:00      -16.184       34.721       86.996       50.654       86.711       59.680     2565.836     7518.725     3561.727        1.134        0.682       38.307       52.969        1.912      337.100        8.846      853.446
03/31/2014  12:52:00       33.829      -91.434       23.663       87.461      103.853       88.394     7649.438    10785.415     7813.418        1.815        1.312       97.491       75.504        0.600      336.808        8.357      853.399
03/31/2014  12:53:00       53.916      -94.522       25.228       64.661      112.732       71.596     4181.101    12708.398     5126.019        1.724        1.101      108.818       73.988        0.462      336.859        8.441      853.413
03/31/2014  12:54:00      -83.244     -194.608      -16.040       71.465       71.323       38.857     5107.290     5086.904     1509.850        2.838        0.585      211.665       22.938        0.012      336.952        8.595      853.445
03/31/2014  12:55:00      -66.354     -149.849        1.946      120.116       94.502       45.776    14427.911     8930.556     2095.401        2.615        1.273      163.883       36.454        0.049      336.877        8.472      853.448
03/31/2014  12:56:00      -50.968     -118.451        2.522       66.052       53.838       39.003     4362.912     2898.532     1521.231        1.271        0.439      128.951       18.882        0.021      336.856        8.437      853.440
03/31/2014  12:57:00      -99.295     -136.996       10.582       91.967       62.124       46.179     8457.858     3859.424     2132.539        2.159        0.722      169.197       40.098        0.056      336.777        8.305      853.424
03/31/2014  12:58:00     -202.706     -121.578      -23.580       58.382       51.281       36.679     3408.501     2629.694     1345.378        3.190        0.369      236.371       25.790        0.012      336.476        7.801      853.395
03/31/2014  12:59:00     -166.188     -112.217       15.158       93.628       79.154       46.834     8766.117     6265.313     2193.394        2.883        0.861      200.527       51.050        0.065      336.697        8.170      853.382
03/31/2014  13:00:00      -46.197      -54.851       31.199       59.762       52.857       45.481     3571.475     2793.848     2068.527        0.727        0.422       71.713       28.020        0.153      337.075        8.804      853.384
03/31/2014  13:01:00      -57.616     -105.866       -7.485       73.996      147.941       49.443     5475.439    21886.431     2444.571        2.219        1.490      120.529       46.581        0.149      336.976        8.637      853.379
03/31/2014  13:02:00       28.773     -106.707       18.275       81.142       82.858       60.419     6584.077     6865.496     3650.442        1.482        0.855      110.519       56.136        0.258      337.089        8.828      853.367
03/31/2014  13:03:00      136.742     -239.540        9.897      119.684      165.320       97.988    14324.324    27330.706     9601.593        6.371        2.563      275.822      100.125        0.132      336.859        8.442      853.352
03/31/2014  13:04:00       67.261     -189.322      -16.364      180.327      174.513      102.768    32517.802    30454.858    10561.339        5.707        3.677      200.915      111.856        0.310      336.891        8.496      853.336
03/31/2014  13:05:00       42.673      -79.816       48.940       76.204      132.956       66.341     5806.996    17677.317     4401.114        1.923        1.394       90.507       69.763        0.594      337.122        8.882      853.378
03/31/2014  13:06:00       21.934      -98.625       19.468       86.004       99.496       64.363     7396.712     9899.400     4142.651        1.601        1.072      101.034       57.143        0.320      337.042        8.749      853.375
03/31/2014  13:07:00       55.855     -207.357      -10.827      123.214       95.008       65.744    15181.781     9026.544     4322.235        3.738        1.427      214.748       60.038        0.078      336.851        8.429      853.365
03/31/2014  13:08:00       85.978      -50.256       31.440       94.320      122.092       76.163     8896.299    14906.436     5800.746        2.025        1.480       99.588       89.416        0.806      336.811        8.363      853.333
03/31/2014  13:09:00      -26.556       48.579       66.777      117.941       92.107       79.309    13909.978     8483.785     6289.977        1.810        1.434       55.364       82.768        2.235      336.889        8.494      853.267
03/31/2014  13:10:00      112.355     -249.594      -10.180      128.584      119.879       82.863    16533.946    14370.994     6866.330        5.639        1.889      273.716       69.215        0.064      336.903        8.513      853.269
03/31/2014  13:11:00       56.196     -190.408      -15.705       94.659       95.092       79.438     8960.328     9042.462     6310.475        3.198        1.216      198.527       67.889        0.117      336.869        8.457      853.281
03/31/2014  13:12:00      119.252     -164.305       24.715      143.398      167.041       90.300    20563.113    27902.694     8154.109        4.921        2.831      203.020      112.260        0.306      336.774        8.299      853.308
03/31/2014  13:13:00        0.948       16.487      111.744       67.326      138.144       69.009     4532.843    19083.895     4762.269        2.056        1.419       16.514       90.029       29.721      336.794        8.332      853.298
03/31/2014  13:14:00       15.188      -21.944       34.799       41.124       76.271       67.993     1691.176     5817.296     4623.096        0.702        0.607       26.688       58.906        4.872      336.821        8.379      853.282
03/31/2014  13:15:00      100.924      -35.347       58.494       85.365      115.466       73.181     7287.234    13332.342     5355.431        2.041        1.299      106.935       73.173        0.468      336.830        8.393      853.251
03/31/2014  13:16:00      -36.734     -214.292      -19.863      110.555      103.843       77.877    12222.329    10783.376     6064.778        3.836        1.454      217.418       34.489        0.025      336.870        8.458      853.220
03/31/2014  13:17:00      -48.910     -214.751       18.092       82.552      170.145       61.112     6814.798    28949.319     3734.678        4.416        1.975      220.250       79.829        0.131      336.913        8.530      853.249
03/31/2014  13:18:00      -29.994     -121.454        0.054       56.790       84.102       46.269     3225.076     7073.173     2140.790        1.404        0.622      125.103       42.508        0.115      336.925        8.552      853.204
03/31/2014  13:19:00     -145.074      -56.412       -0.561       52.034       57.251       37.276     2707.558     3277.691     1389.476        1.580        0.369      155.656       33.985        0.048      336.749        8.259      853.169
03/31/2014  13:20:00     -188.694      -76.364       -2.025      120.867       77.718       39.797    14608.818     6040.139     1583.764        3.183        1.112      203.560       47.537        0.055      336.717        8.204      853.138
03/31/2014  13:21:00      -89.956      -59.902        5.286      112.726       54.469       44.273    12707.222     2966.922     1960.141        1.467        0.882      108.075       57.818        0.286      336.842        8.415      853.121
03/31/2014  13:22:00      -94.088     -148.452        4.099      134.904      103.960       52.408    18198.957    10807.741     2746.636        3.132        1.588      175.757       31.669        0.032      336.918        8.539      853.100
03/31/2014  13:23:00     -197.870     -170.141        6.698      132.791      119.046       58.031    17633.525    14171.909     3367.563        5.165        1.759      260.961       69.095        0.070      336.865        8.450      853.090
03/31/2014  13:24:00     -262.884     -170.381        0.813      127.280       92.740       51.940    16200.221     8600.766     2697.778        6.281        1.375      313.269       53.429        0.029      336.754        8.266      853.074
03/31/2014  13:25:00     -132.786     -121.521        3.599      131.233       68.270       53.746    17222.137     4660.796     2888.603        2.859        1.239      179.999       64.578        0.129      336.945        8.584      853.071
03/31/2014  13:26:00      -42.934     -151.613      -19.729       63.224      105.717       45.465     3997.289    11176.061     2067.062        2.123        0.862      157.574       28.597        0.033      336.894        8.499      853.023
03/31/2014  13:27:00     -108.676      -99.971       -2.075       91.361       80.605       45.370     8346.844     6497.104     2058.459        1.935        0.845      147.664       36.752        0.062      336.804        8.349      852.972
03/31/2014  13:28:00       19.880      -76.058       26.833      111.933      130.540       68.938    12528.940    17040.776     4752.509        2.060        1.716       78.614       73.657        0.878      336.986        8.654      852.929
03/31/2014  13:29:00      -75.760      -12.864       19.150       83.316       57.751       40.314     6941.473     3335.126     1625.211        0.908        0.595       76.844       36.511        0.226      337.120        8.879      852.912
03/31/2014  13:30:00     -128.353     -134.943       12.137      103.098       86.942       51.270    10629.252     7558.924     2628.634        2.782        1.041      186.237       50.963        0.075      336.935        8.569      852.902
03/31/2014  13:31:00     -144.018     -119.591       -4.683       75.241       45.305       43.374     5661.138     2052.535     1881.273        2.233        0.480      187.198       31.112        0.028      336.822        8.379      852.888
03/31/2014  13:32:00      -65.526       24.577        6.712       76.642       49.866       36.194     5874.000     2486.667     1310.035        0.730        0.484       69.984       36.555        0.273      337.003        8.685      852.884
03/31/2014  13:33:00      -81.867       27.718      -10.204       37.369       31.899       21.791     1396.408     1017.554      474.864        0.523        0.144       86.431       20.200        0.055      336.708        8.192      852.857
03/31/2014  13:34:00      -47.539      -12.818        0.186       43.878       33.637       16.294     1925.242     1131.431      265.510        0.287        0.166       49.237       17.236        0.123      336.944        8.586      852.848
03/31/2014  13:35:00       -8.204      -74.835       14.549       38.996       64.980       29.106     1520.650     4222.421      847.169        0.623        0.330       75.283       34.573        0.211      337.151        8.931      852.842
03/31/2014  13:36:00        6.172       34.888       38.749       33.264       27.314       26.225     1106.480      746.063      687.730        0.265        0.127       35.430       19.136        0.292      337.439        9.414      852.822
03/31/2014  13:37:00      -52.225      -20.923        0.905       53.845       44.420       23.883     2899.315     1973.135      570.379        0.430        0.272       56.260       26.373        0.220      337.152        8.934      852.802
03/31/2014  13:38:00     -152.219      -77.485       -9.033       73.860       68.296       34.651     5455.258     4664.298     1200.723        2.029        0.566      170.805       38.541        0.051      336.924        8.551      852.779
03/31/2014  13:39:00     -204.666     -119.354        0.916      126.285       80.953       49.031    15947.846     6553.395     2404.008        4.051        1.245      236.925       56.663        0.057      336.946        8.585      852.751
03/31/2014  13:40:00     -157.253      -95.437       14.793      122.246       76.410       44.557    14944.054     5838.529     1985.342        2.841        1.138      183.947       52.691        0.082      337.104        8.852      852.756
03/31/2014  13:41:00     -177.594     -112.574       -1.012       69.256       61.742       33.164     4796.339     3812.076     1099.867        2.696        0.485      210.268       28.531        0.018      336.866        8.450      852.742
03/31/2014  13:42:00      -97.829      -75.216        2.437       68.908       47.207       28.665     4748.341     2228.478      821.674        1.151        0.390      123.402       23.905        0.038      336.998        8.676      852.706
03/31/2014  13:43:00      -68.826      -99.424       -8.982       70.505       34.421       21.103     4971.017     1184.775      445.354        1.065        0.330      120.922       17.377        0.021      336.828        8.391      852.680
03/31/2014  13:44:00       -2.029      -43.262        5.910       37.924       27.893       25.250     1438.246      778.001      637.570        0.238        0.143       43.309       21.407        0.244      336.906        8.523      852.643
03/31/2014  13:45:00        9.098       30.306       27.995       25.212       33.643       21.700      635.635     1131.870      470.876        0.201        0.112       31.642       19.380        0.375      337.302        9.183      852.609
03/31/2014  13:46:00        9.055       66.742        1.941       66.907       42.350       30.904     4476.608     1793.511      955.053        0.588        0.361       67.354       20.118        0.089      337.171        8.964      852.579
03/31/2014  13:47:00     -168.582      -34.462      -11.441       59.396       61.404       33.720     3527.879     3770.460     1137.070        1.909        0.422      172.068       27.871        0.026      337.223        9.050      852.579
03/31/2014  13:48:00     -260.915     -118.089        9.645       86.368       76.362       50.738     7459.409     5831.147     2574.373        4.899        0.793      286.395       49.167        0.029      336.769        8.291      852.593
03/31/2014  13:49:00     -184.535      -88.509       -7.044       68.318       68.021       34.419     4667.329     4626.838     1184.667        2.621        0.524      204.663       28.211        0.019      336.760        8.276      852.605
03/31/2014  13:50:00     -145.216     -113.926        4.203       92.654       64.306       42.975     8584.798     4135.315     1846.875        2.432        0.728      184.572       46.748        0.064      336.868        8.455      852.598
03/31/2014  13:51:00     -126.808     -118.964       -5.999       82.859       83.246       38.383     6865.571     6929.853     1473.280        2.277        0.763      173.875       33.151        0.036      336.905        8.517      852.579
03/31/2014  13:52:00      -75.083      -80.067       -0.207       78.890       45.155       38.037     6223.619     2038.980     1446.812        1.088        0.485      109.764       35.271        0.103      336.993        8.667      852.549
03/31/2014  13:53:00      -78.605      -74.238       -9.705       51.980       65.409       29.924     2701.884     4278.283      895.476        0.983        0.394      108.121       17.391        0.026      336.917        8.541      852.535
03/31/2014  13:54:00     -149.158      -42.084        1.947       87.559       63.692       36.026     7666.541     4056.632     1297.875        1.852        0.651      154.981       39.868        0.066      337.002        8.681      852.513
03/31/2014  13:55:00      -97.791      -40.473       16.563       76.822       54.522       41.341     5901.549     2972.656     1709.114        1.103        0.529      105.836       25.397        0.058      337.186        8.991      852.493
03/31/2014  13:56:00      -53.172      -96.650        0.874       38.159       68.955       29.002     1456.085     4754.737      841.088        0.961        0.353      110.311       30.404        0.076      336.960        8.612      852.490
03/31/2014  13:57:00      -53.913     -112.813       -3.100       31.567       50.288       21.604      996.450     2528.930      466.729        0.982        0.200      125.033       21.813        0.030      336.777        8.307      852.457
03/31/2014  13:58:00      -84.955     -110.199       -4.438       58.712       37.040       30.953     3447.050     1371.980      958.090        1.258        0.289      139.144       29.006        0.043      336.971        8.631      852.423
03/31/2014  13:59:00      -52.861     -117.960       12.061       62.940       60.874       37.449     3961.457     3705.627     1402.414        1.296        0.453      129.263       33.578        0.067      337.054        8.769      852.407
03/31/2014  14:00:00     -148.957      -97.931        1.129       84.755       57.406       38.167     7183.386     3295.443     1456.704        2.186        0.597      178.266       46.205        0.067      337.025        8.718      852.375
03/31/2014  14:01:00     -302.740      -46.876      -11.615       82.703       76.942       43.095     6839.741     5920.032     1857.151        5.430        0.731      306.348       35.967        0.014      336.847        8.420      852.362
03/31/2014  14:02:00     -114.731       11.367       14.704      104.138       56.602       50.477    10844.738     3203.798     2547.977        1.505        0.830      115.293       53.094        0.212      337.174        8.969      852.346
03/31/2014  14:03:00     -116.099      -38.112        6.423       76.134       45.727       38.951     5796.330     2090.993     1517.190        1.219        0.470      122.194       38.465        0.099      337.189        8.995      852.327
03/31/2014  14:04:00     -120.531      -45.866       -4.138      117.317       70.332       43.304    13763.222     4946.566     1875.216        1.861        1.029      128.963       58.287        0.204      337.166        8.955      852.309
03/31/2014  14:05:00     -169.331      -77.707      -15.192      102.005       89.563       45.518    10405.074     8021.616     2071.866        2.772        1.025      186.309       43.782        0.055      336.942        8.579      852.294
03/31/2014  14:06:00     -178.630      -25.278       -3.361       52.116       56.113       31.609     2716.129     3148.637      999.158        1.971        0.343      180.410       29.730        0.027      336.868        8.457      852.285
03/31/2014  14:07:00     -104.027       11.400        2.559       41.026       34.797       25.282     1683.171     1210.846      639.178        0.724        0.177      104.650       21.800        0.043      337.071        8.797      852.274
03/31/2014  14:08:00     -100.248      -50.734       -2.496       51.079       39.226       23.990     2609.050     1538.683      575.529        0.868        0.236      112.355       23.226        0.043      336.924        8.552      852.258
03/31/2014  14:09:00      -94.841      -65.124        1.695       54.322       55.318       30.248     2950.875     3060.041      914.928        1.008        0.346      115.048       27.491        0.057      336.902        8.515      852.253
03/31/2014  14:10:00     -122.630      -49.105        2.600       60.074       42.132       30.234     3608.892     1775.137      914.091        1.188        0.315      132.096       21.854        0.027      336.861        8.449      852.243
03/31/2014  14:11:00      -98.914      -78.972       12.528      118.109       49.277       36.260    13949.621     2428.264     1314.758        1.693        0.885      126.573       46.405        0.134      337.034        8.734      852.209
03/31/2014  14:12:00     -123.737      -27.221      -14.563       41.396       31.877       26.362     1713.631     1016.168      694.977        0.984        0.171      126.696       11.888        0.009      336.850        8.427      852.207
03/31/2014  14:13:00      -26.134      -29.699        3.910       25.514       23.915       17.645      650.944      571.923      311.345        0.156        0.077       39.560       12.127        0.094      337.027        8.724      852.210
03/31/2014  14:14:00      -51.994      -74.999       -7.059       33.329       19.611       16.993     1110.853      384.593      288.767        0.508        0.089       91.259       14.701        0.026      336.942        8.581      852.212
03/31/2014  14:15:00      -36.575      -20.315        7.349       27.168       43.034       24.257      738.083     1851.963      588.404        0.249        0.159       41.838       24.424        0.341      337.153        8.936      852.203
03/31/2014  14:16:00      -55.191      -51.601       -0.004       39.761       40.067       18.864     1580.903     1605.376      355.866        0.462        0.177       75.556       12.131        0.026      337.209        9.029      852.214
03/31/2014  14:17:00      -88.285      -66.303        0.853       77.051       72.999       40.149     5936.899     5328.900     1611.919        1.253        0.644      110.410       41.614        0.142      337.274        9.137      852.226
03/31/2014  14:18:00     -111.917      -99.702       -4.536       75.409       62.077       31.431     5686.446     3853.578      987.877        1.650        0.526      149.886       32.861        0.048      337.007        8.689      852.223
03/31/2014  14:19:00      -11.871     -118.076       -9.402       92.956      112.175       58.619     8640.817    12583.280     3436.240        1.941        1.233      118.672       70.753        0.355      337.324        9.219      852.211
03/31/2014  14:20:00       14.734     -110.755        1.698       89.813       79.293       53.532     8066.438     6287.458     2865.686        1.485        0.861      111.731       42.766        0.147      337.270        9.130      852.171
03/31/2014  14:21:00      -43.283     -133.502       -2.845       75.802       83.232       45.541     5745.999     6927.641     2073.948        1.722        0.737      140.343       37.577        0.072      337.405        9.356      852.169
03/31/2014  14:22:00      -10.312     -172.654       12.375      107.471      121.439       64.122    11549.932    14747.549     4111.641        3.023        1.520      172.962       70.210        0.165      337.314        9.202      852.168
03/31/2014  14:23:00       56.292      -38.244       48.728       91.101       81.497       56.195     8299.480     6641.819     3157.881        1.255        0.905       68.054       52.549        0.596      337.525        9.558      852.142
03/31/2014  14:24:00       36.644      -80.971       51.735       90.631      138.367       61.756     8214.021    19145.346     3813.794        2.087        1.559       88.877       79.393        0.798      337.524        9.556      852.125
03/31/2014  14:25:00       12.978     -117.409       -1.663      131.781       82.569       45.733    17366.145     6817.625     2091.516        2.011        1.314      118.124       35.945        0.093      337.461        9.448      852.139
03/31/2014  14:26:00      -55.957     -253.854        8.114       88.033       94.433       58.918     7749.820     8917.621     3471.362        4.388        1.007      259.948       39.536        0.023      337.262        9.113      852.139
03/31/2014  14:27:00        3.077     -267.305      -30.497      130.979       88.110       62.980    17155.381     7763.391     3966.488        5.063        1.444      267.323       31.628        0.014      337.258        9.107      852.137
03/31/2014  14:28:00       -3.731     -118.275       19.054      104.102       97.809       60.076    10837.179     9566.530     3609.130        1.918        1.201      118.334       58.175        0.242      337.262        9.117      852.113
03/31/2014  14:29:00      125.107     -175.990      -20.331      104.985       82.401       50.277    11021.809     6789.864     2527.755        3.368        1.017      215.926       26.139        0.015      337.235        9.071      852.123
03/31/2014  14:30:00       68.053     -151.581      -11.587       83.269       64.018       46.781     6933.734     4098.291     2188.506        2.048        0.661      166.157       33.379        0.040      337.344        9.251      852.136
03/31/2014  14:31:00      -54.688     -123.527        9.715       88.744      143.291       44.224     7875.437    20532.336     1955.781        2.435        1.518      135.091       46.626        0.119      337.527        9.561      852.143
03/31/2014  14:32:00       34.344     -148.550       10.363       80.794       89.106       54.049     6527.740     7939.899     2921.315        2.037        0.869      152.469       52.046        0.117      337.420        9.380      852.160
03/31/2014  14:33:00      -24.223      -78.876        5.814       57.361       81.115       48.560     3290.236     6579.701     2358.074        0.953        0.611       82.512       30.494        0.137      337.411        9.365      852.130
03/31/2014  14:34:00      -52.325     -229.706       -4.001      178.282      109.540       63.491    31784.528    11999.064     4031.152        5.166        2.391      235.590       33.705        0.020      337.267        9.123      852.133
03/31/2014  14:35:00     -250.110     -213.617       -1.693      127.817      116.441       82.718    16337.188    13558.559     6842.334        7.246        1.837      328.919       77.591        0.056      337.158        8.940      852.119
03/31/2014  14:36:00     -274.912     -199.652       -3.704      151.727      107.855       65.558    23021.196    11632.711     4297.786        7.719        1.948      339.761       71.759        0.045      337.063        8.781      852.104
03/31/2014  14:37:00     -327.603     -215.925        2.217      171.845      102.076       87.669    29530.700    10419.413     7685.824       10.078        2.382      392.361       86.391        0.048      336.978        8.639      852.050
03/31/2014  14:38:00     -260.419     -131.072       -7.191      137.748       97.271       54.948    18974.423     9461.673     3019.308        5.825        1.573      291.544       70.888        0.059      336.959        8.607      852.075
03/31/2014  14:39:00     -181.630     -165.326       -2.346      124.428       88.039       57.043    15482.220     7750.852     3253.901        4.340        1.324      245.606       59.938        0.060      336.961        8.610      852.080
03/31/2014  14:40:00     -379.803     -220.715      -26.999      125.226      113.671       77.442    15681.611    12921.142     5997.291       11.414        1.730      439.278       78.002        0.032      336.999        8.673      852.047
03/31/2014  14:41:00     -193.109     -137.062       23.142      188.454      151.799       90.783    35515.037    23042.991     8241.533        6.169        3.340      236.806      100.600        0.180      336.993        8.665      852.009
03/31/2014  14:42:00     -245.865     -171.406       -5.054      114.502      113.509       52.729    13110.761    12884.193     2780.300        5.931        1.439      299.715       44.320        0.022      336.802        8.345      851.968
03/31/2014  14:43:00      -97.509     -140.208       10.435      106.199      101.095       52.604    11278.182    10220.100     2767.198        2.677        1.213      170.781       49.462        0.084      336.888        8.489      851.911
03/31/2014  14:44:00     -124.083      -50.917        3.867       96.769       53.695       37.071     9364.336     2883.100     1374.281        1.581        0.681      134.124       38.117        0.081      337.019        8.708      851.881
03/31/2014  14:45:00     -134.719     -207.812       16.234      129.856      117.964       61.857    16862.619    13915.504     3826.247        4.809        1.730      247.659       61.881        0.062      336.976        8.634      851.899
03/31/2014  14:46:00     -285.294     -238.882       -5.037      162.366      162.351       73.017    26362.695    26357.708     5331.491        9.826        2.903      372.099       74.897        0.041      336.942        8.578      851.828
03/31/2014  14:47:00     -341.232     -157.115        6.245      155.433      186.801       79.961    24159.541    34894.539     6393.713       10.329        3.272      375.665       80.623        0.046      336.952        8.595      851.804
03/31/2014  14:48:00     -364.682     -155.989       -7.292      137.357      125.108       67.616    18866.876    15651.987     4571.861        9.823        1.955      396.643       61.322        0.024      336.953        8.596      851.763
03/31/2014  14:49:00     -343.799     -128.535      -13.431      154.835      129.518       61.692    23973.962    16774.989     3805.936        8.972        2.228      367.041       51.691        0.020      336.947        8.586      851.753
03/31/2014  14:50:00     -219.448      -42.203        4.800      122.228       97.053       57.357    14939.702     9419.318     3289.843        3.880        1.382      223.469       56.644        0.064      337.137        8.905      851.706
03/31/2014  14:51:00     -385.892     -106.215       -6.768      174.276      143.187       69.814    30372.285    20502.490     4874.050       10.798        2.787      400.243       70.339        0.031      337.002        8.678      851.676
03/31/2014  14:52:00     -147.407     -148.266       -1.703      114.804      106.714       66.219    13180.013    11387.784     4384.923        3.633        1.448      209.073       64.901        0.096      337.140        8.911      851.669
03/31/2014  14:53:00     -103.465     -209.863        2.241       94.778      123.165       63.850     8982.905    15169.629     4076.788        4.149        1.411      233.982       59.020        0.064      337.102        8.846      851.664
03/31/2014  14:54:00     -225.105     -153.332       -4.011      152.240       95.118       53.630    23176.900     9047.360     2876.153        5.464        1.755      272.365       49.939        0.034      337.156        8.936      851.655
03/31/2014  14:55:00     -418.804     -156.819      -18.646      215.704      161.094       73.653    46528.243    25951.216     5424.719       13.910        3.895      447.202       75.617        0.029      336.893        8.498      851.616
03/31/2014  14:56:00     -284.267     -246.293       -3.446      139.934      117.790       76.001    19581.388    13874.535     5776.120        9.035        1.962      376.122       71.997        0.037      337.030        8.725      851.621
03/31/2014  14:57:00     -135.754     -248.705        0.519      175.525      143.472       77.036    30808.921    20584.074     5934.472        6.879        2.866      283.343       80.515        0.081      337.124        8.882      851.658
03/31/2014  14:58:00      -13.188     -151.139       -0.230       99.658       78.232       58.921     9931.623     6120.246     3471.727        2.127        0.976      151.713       45.013        0.088      337.291        9.166      851.692
03/31/2014  14:59:00      -39.789      -52.200       13.353       56.476       71.457       50.718     3189.561     5106.140     2572.314        0.768        0.543       65.636       42.944        0.428      337.347        9.260      851.656
03/31/2014  15:00:00       30.786     -184.893       -8.055       99.267      117.095       48.991     9853.884    13711.304     2400.110        3.058        1.298      187.438       46.799        0.062      337.358        9.275      851.656
03/31/2014  15:01:00       31.978        6.968       20.123       43.856       94.350       53.299     1923.341     8901.921     2840.834        0.757        0.683       32.728       20.804        0.404      337.280        9.147      851.659
03/31/2014  15:02:00       73.466       66.680       -0.571       67.108       45.526       45.065     4503.450     2072.590     2030.843        0.922        0.430       99.214       37.308        0.141      337.085        8.820      851.599
03/31/2014  15:03:00       29.540      -21.861       10.495       56.761       57.824       41.151     3221.767     3343.568     1693.396        0.486        0.413       36.749       38.039        1.071      337.289        9.162      851.580
03/31/2014  15:04:00      -75.313      -91.008       40.094      115.829      116.767       71.209    13416.274    13634.418     5070.704        2.384        1.606      118.129       57.715        0.239      337.263        9.116      851.545
03/31/2014  15:05:00       38.888     -128.513       20.395      108.742       99.692       60.971    11824.764     9938.404     3717.470        2.196        1.274      134.268       53.282        0.157      337.368        9.292      851.547
03/31/2014  15:06:00       40.080     -118.378       26.895      109.379       81.905       57.235    11963.793     6708.396     3275.899        1.914        1.097      124.979       39.359        0.099      337.310        9.197      851.557
03/31/2014  15:07:00       25.036      -78.302       49.954       94.261      116.592       67.124     8885.093    13593.615     4505.571        1.811        1.349       82.207       70.445        0.734      337.405        9.356      851.565
03/31/2014  15:08:00      -34.329     -106.892       -4.327       85.297       61.018       43.649     7275.520     3723.151     1905.207        1.276        0.645      112.270       32.645        0.085      337.335        9.238      851.579
03/31/2014  15:09:00       27.011     -152.782       -2.989       98.892      101.086       36.358     9779.576    10218.431     1321.890        2.270        1.066      155.152       31.914        0.042      337.274        9.137      851.579
03/31/2014  15:10:00      113.943     -205.354        8.555       90.514       86.065       66.882     8192.741     7407.153     4473.135        3.765        1.004      234.847       45.990        0.038      337.182        8.981      851.583
03/31/2014  15:11:00      -54.123      -72.311        4.255      129.475       60.190       55.498    16763.769     3622.879     3080.015        1.582        1.173       90.323       58.144        0.414      337.096        8.836      851.567
03/31/2014  15:12:00       20.496      -28.613       30.850       51.578       60.583       61.571     2660.299     3670.293     3791.020        0.615        0.506       35.197       47.684        1.835      337.292        9.167      851.548
03/31/2014  15:13:00      -33.252      -19.060       -6.870       39.061       49.744       51.261     1525.782     2474.515     2627.724        0.407        0.331       38.327       33.945        0.784      337.204        9.021      851.531
03/31/2014  15:14:00       31.148     -137.215       20.018      105.616      170.346       96.423    11154.792    29017.615     9297.477        3.482        2.473      140.705       93.418        0.441      337.141        8.914      851.546
03/31/2014  15:15:00      208.636     -270.415      -20.188      166.941      183.388       92.995    27869.388    33631.012     8648.042        9.359        3.507      341.546      119.592        0.123      336.834        8.400      851.531
03/31/2014  15:16:00      169.575     -220.562        3.691      102.443      150.394       66.981    10494.615    22618.317     4486.454        5.750        1.880      278.215       44.747        0.026      336.764        8.282      851.549
03/31/2014  15:17:00      -17.173        3.996       71.583       48.173       57.256       57.918     2320.674     3278.273     3354.454        0.719        0.448       17.632       41.182        5.455      337.079        8.811      851.544
03/31/2014  15:18:00       -8.092     -136.570       19.883       71.702       84.937       48.451     5141.238     7214.315     2347.547        1.690        0.735      136.810       44.729        0.107      337.159        8.945      851.536
03/31/2014  15:19:00       87.968      -86.997       20.974      102.011      121.432       76.449    10406.252    14745.822     5844.408        2.337        1.550      123.721       72.843        0.347      337.050        8.759      851.558
03/31/2014  15:20:00      113.861     -197.585       16.171      134.291      181.389       70.739    18034.039    32902.065     5003.973        5.409        2.797      228.044       79.391        0.121      336.854        8.433      851.543
03/31/2014  15:21:00      241.202     -254.629        7.535      128.563      161.106       83.739    16528.384    25955.075     7012.172        8.627        2.475      350.734       85.701        0.060      336.716        8.201      851.522
03/31/2014  15:22:00       90.795      -37.485       83.478      107.543      149.974      127.708    11565.442    22492.053    16309.364        3.348        2.518       98.228      111.317        1.284      336.818        8.375      851.488
03/31/2014  15:23:00       -0.172       50.872      123.028       62.507       96.351      107.477     3907.086     9283.491    11551.385        2.123        1.237       50.872       89.519        3.097      336.928        8.557      851.466
03/31/2014  15:24:00       47.528      -83.111       17.457       92.401       90.526       46.734     8537.899     8195.027     2184.070        1.419        0.946       95.741       45.147        0.222      336.966        8.621      851.475
03/31/2014  15:25:00      -39.847      -59.616       29.434       65.725       62.992       38.527     4319.753     3968.028     1484.317        0.789        0.489       71.706       32.712        0.208      337.061        8.780      851.495
03/31/2014  15:26:00       38.225      -71.014       32.951       72.047       86.912       49.724     5190.724     7553.701     2472.491        1.140        0.761       80.648       32.797        0.165      337.066        8.790      851.478
03/31/2014  15:27:00       -5.362     -136.482       15.684      121.981      116.072       65.729    14879.362    13472.634     4320.296        2.578        1.634      136.587       64.064        0.220      336.955        8.601      851.455
03/31/2014  15:28:00       23.272     -122.977        2.355       86.924      103.929       65.965     7555.770    10801.284     4351.382        1.918        1.135      125.159       59.285        0.224      336.952        8.598      851.441
03/31/2014  15:29:00      -38.149     -121.343        6.924      136.389      118.252       62.555    18601.941    13983.645     3913.081        2.636        1.825      127.198       60.744        0.228      336.868        8.455      851.400
03/31/2014  15:30:00        4.699     -203.352       -1.537       95.541      151.142       56.035     9128.013    22843.822     3139.970        3.824        1.756      203.406       59.412        0.085      336.833        8.397      851.378
03/31/2014  15:31:00       45.749      -61.832       45.504      111.813      158.925       70.849    12502.155    25257.204     5019.582        2.537        2.139       76.917       82.755        1.158      336.943        8.583      851.350
03/31/2014  15:32:00       35.316     -103.348       54.565       99.172      169.167       77.822     9835.173    28617.445     6056.201        2.970        2.225      109.216       97.625        0.799      336.872        8.462      851.334
03/31/2014  15:33:00      105.191      -89.231       65.202      146.104      231.747      110.435    21346.342    53706.517    12195.815        5.525        4.362      137.940      132.593        0.924      336.652        8.094      851.296
03/31/2014  15:34:00      160.002     -206.024       44.675      163.007      234.195      107.261    26571.364    54847.066    11505.023        8.146        4.646      260.857      133.972        0.264      336.675        8.134      851.273
03/31/2014  15:35:00       63.952      -71.435       76.805      118.138      159.166       79.278    13956.601    25333.700     6285.069        3.032        2.279       95.879       91.649        0.914      336.751        8.263      851.285
03/31/2014  15:36:00      -19.816      -66.508       68.121       88.073      168.607       83.867     7756.921    28428.321     7033.728        2.633        2.161       69.397       86.282        1.546      336.819        8.375      851.290
03/31/2014  15:37:00       62.068     -207.331        3.193      135.916      168.110      125.051    18473.050    28261.116    15637.817        5.460        3.119      216.423      102.857        0.226      336.799        8.339      851.305
03/31/2014  15:38:00      107.060     -244.461      -21.605      131.045      182.684       74.790    17172.908    33373.593     5593.563        6.390        2.807      266.876       88.039        0.109      336.618        8.039      851.348
03/31/2014  15:39:00      125.011     -193.182      -20.817       79.849      100.448       56.381     6375.879    10089.710     3178.772        3.651        0.982      230.102       45.279        0.039      336.755        8.268      851.355
03/31/2014  15:40:00       69.236     -121.656       14.582      106.603      109.567       56.736    11364.286    12004.978     3218.934        2.319        1.329      139.978       52.686        0.142      336.820        8.377      851.334
03/31/2014  15:41:00       71.138      -40.101       43.416       79.757      101.615       54.833     6361.115    10325.533     3006.647        1.412        0.985       81.663       66.774        0.669      336.859        8.442      851.333
03/31/2014  15:42:00       41.340     -114.411       16.614       54.764       82.901       39.696     2999.086     6872.577     1575.758        1.326        0.572      121.651       36.448        0.090      336.843        8.416      851.293
03/31/2014  15:43:00       -0.827       22.546       63.904       75.305       94.813       94.036     5670.831     8989.467     8842.842        1.404        1.175       22.561       85.231       14.272      336.941        8.579      851.266
03/31/2014  15:44:00      -11.860     -153.201        9.375      144.347      166.882       77.647    20836.007    27849.545     6029.084        3.920        2.736      153.660       96.177        0.392      336.783        8.315      851.280
03/31/2014  15:45:00       89.059     -165.829       22.236      101.001      176.781       95.493    10201.237    31251.491     9118.918        4.324        2.529      188.230      110.114        0.342      336.770        8.292      851.253
03/31/2014  15:46:00       14.335      -92.593       33.172       47.529      100.883       57.759     2259.048    10177.443     3336.057        1.282        0.789       93.696       66.859        0.509      336.966        8.620      851.255
03/31/2014  15:47:00       62.171     -100.950       27.352       93.498      103.102       43.414     8741.827    10630.061     1884.742        1.803        1.063      118.558       43.233        0.133      336.928        8.558      851.247
03/31/2014  15:48:00       32.284      -39.747       40.446       47.109       57.613       27.300     2219.251     3319.288      745.272        0.527        0.314       51.206       18.440        0.130      337.111        8.865      851.263
03/31/2014  15:49:00      -53.461       -4.932       17.226       81.332       47.228       28.845     6614.919     2230.495      832.045        0.643        0.484       53.688       38.892        0.525      336.972        8.631      851.233
03/31/2014  15:50:00      -25.974      -72.313       26.158       82.565       76.640       44.792     6816.953     5873.678     2006.295        1.064        0.735       76.837       41.615        0.293      336.759        8.276      851.216
03/31/2014  15:51:00      192.485     -145.179       37.581      162.821      204.866      109.258    26510.802    41969.900    11937.418        6.996        4.021      241.096      141.008        0.342      336.712        8.194      851.205
03/31/2014  15:52:00       55.016     -155.294        4.179      141.804      153.502       95.382    20108.380    23562.987     9097.684        3.995        2.638      164.751       85.340        0.268      336.743        8.247      851.208
03/31/2014  15:53:00       16.283      -50.453       39.577       67.344       99.136       58.935     4535.169     9827.858     3473.317        1.110        0.892       53.016       63.969        1.456      336.955        8.603      851.249
03/31/2014  15:54:00      125.979     -217.268      -24.516      140.305      133.580       63.455    19685.383    17843.518     4026.567        5.261        2.078      251.150       61.958        0.061      336.754        8.265      851.245
03/31/2014  15:55:00       51.756     -131.185       24.699       69.650      128.915       72.145     4851.127    16619.143     5204.874        2.358        1.334      141.025       79.172        0.315      336.755        8.269      851.234
03/31/2014  15:56:00      114.900     -168.087       -1.760       77.946       62.872       53.826     6075.581     3952.902     2897.193        2.719        0.646      203.605       47.343        0.054      336.791        8.326      851.231
03/31/2014  15:57:00      -29.093      -46.591       32.135       66.026       69.959       49.428     4359.433     4894.319     2443.086        0.787        0.585       54.928       44.354        0.652      336.872        8.465      851.227
03/31/2014  15:58:00       52.302     -123.522       25.021       98.382      114.379       60.087     9678.979    13082.471     3610.454        2.249        1.319      134.138       66.289        0.244      336.887        8.489      851.229
03/31/2014  15:59:00      -36.139     -107.014       11.796       80.053       81.728       48.186     6408.418     6679.406     2321.937        1.415        0.770      112.952       45.872        0.165      336.911        8.529      851.244
03/31/2014  16:00:00     -109.883      -68.544        6.333       86.799       71.774       51.544     7534.025     5151.476     2656.760        1.607        0.767      129.508       45.101        0.121      336.740        8.244      851.238
03/31/2014  16:01:00      -15.272     -100.255       17.579       96.650       79.858       45.829     9341.313     6377.294     2100.262        1.420        0.891      101.412       24.837        0.060      336.816        8.369      851.222
03/31/2014  16:02:00      -87.397     -190.493       -1.569       83.658       81.850       41.312     6998.707     6699.381     1706.677        2.966        0.770      209.585       32.451        0.024      336.743        8.246      851.215
03/31/2014  16:03:00     -209.550      -98.842        2.705      100.614       65.149       53.897    10123.243     4244.355     2904.925        3.548        0.864      231.692       55.485        0.057      336.528        7.886      851.192
03/31/2014  16:04:00      -52.270      -64.989        6.308       75.735       82.394       41.170     5735.805     6788.736     1695.009        1.060        0.711       83.401       39.413        0.223      336.701        8.180      851.167
03/31/2014  16:05:00       -4.084      -61.803       -4.250       49.623       52.215       35.791     2462.436     2726.408     1281.004        0.516        0.323       61.938       28.332        0.209      336.787        8.323      851.170
03/31/2014  16:06:00       -3.887      -69.446       28.065       52.673       53.487       38.854     2774.493     2860.873     1509.637        0.638        0.357       69.555       32.998        0.225      336.927        8.556      851.130
03/31/2014  16:07:00      -66.903      -77.091        4.392       50.422       39.873       31.035     2542.413     1589.845      963.168        0.777        0.255      102.073       26.322        0.066      336.900        8.511      851.088
03/31/2014  16:08:00       50.079      -85.862       13.475      124.471      133.810       66.160    15493.143    17905.014     4377.135        2.391        1.889       99.399       92.101        0.859      336.863        8.449      851.077
03/31/2014  16:09:00       60.398     -138.014       19.699      118.372      127.946       62.799    14011.986    16370.167     3943.666        2.870        1.716      150.651       76.889        0.260      336.758        8.273      851.051
03/31/2014  16:10:00      -39.093      -30.733       18.501       42.568       38.536       33.559     1812.032     1485.045     1126.229        0.362        0.221       49.727       25.242        0.258      336.845        8.421      851.041
03/31/2014  16:11:00      -36.804      -99.955       -8.593       56.392       67.208       39.416     3180.002     4516.968     1553.647        1.033        0.463      106.516       26.934        0.064      336.846        8.421      851.033
03/31/2014  16:12:00       -8.923      -92.277       28.298       47.083       63.679       46.854     2216.787     4054.976     2195.272        0.893        0.423       92.707       39.976        0.186      336.844        8.419      851.007
03/31/2014  16:13:00      -62.770      -25.689       29.070       50.723       54.202       36.910     2572.842     2937.827     1362.380        0.616        0.344       67.823       18.022        0.071      336.836        8.405      850.979
03/31/2014  16:14:00       -8.133      -56.478       21.860       49.245       93.892       40.430     2425.057     8815.730     1634.612        0.830        0.644       57.060       19.230        0.114      336.882        8.482      850.965
03/31/2014  16:15:00      -47.971     -164.718      -15.568      106.591      110.319       47.112    11361.612    12170.256     2219.556        2.771        1.288      171.561       40.444        0.056      336.839        8.408      850.970
03/31/2014  16:16:00      -28.890     -185.366        0.731       92.917       89.819       51.773     8633.557     8067.496     2680.439        2.728        0.969      187.604       30.621        0.027      336.803        8.347      850.964
03/31/2014  16:17:00       -5.208      -67.894        9.544       81.325       79.570       43.631     6613.736     6331.406     1903.680        0.979        0.742       68.094       37.239        0.299      336.794        8.333      850.947
03/31/2014  16:18:00      -22.730      -61.883       -3.388       79.949       65.350       38.338     6391.807     4270.680     1469.778        0.824        0.607       65.925       21.038        0.102      336.837        8.407      850.929
03/31/2014  16:19:00      -70.113      -45.756        8.623       73.044       52.785       26.868     5335.487     2786.261      721.903        0.796        0.442       83.723       28.169        0.113      336.827        8.390      850.898
03/31/2014  16:20:00     -101.647     -101.378       -7.729       49.444       40.076       29.592     2444.714     1606.049      875.700        1.280        0.246      143.560       19.431        0.018      336.750        8.262      850.886
03/31/2014  16:21:00     -142.145      -95.027        9.867       78.486       67.341       37.193     6160.019     4534.802     1383.331        2.070        0.604      170.984       38.652        0.051      336.600        8.009      850.862
03/31/2014  16:22:00     -105.682     -138.060       -2.317       81.828       68.033       40.911     6695.779     4628.511     1673.681        2.161        0.650      173.865       41.508        0.057      336.409        7.689      850.853
03/31/2014  16:23:00     -128.468     -132.265       14.500      105.045       75.247       59.182    11034.374     5662.175     3502.500        2.720        1.010      184.385       62.043        0.113      336.386        7.651      850.830
03/31/2014  16:24:00     -145.836      -73.125       -4.519       71.732       76.459       37.129     5145.542     5845.937     1378.531        1.950        0.619      163.142       35.915        0.048      336.313        7.530      850.801
03/31/2014  16:25:00     -159.978     -111.589      -11.269       77.348       59.089       31.307     5982.700     3491.469      980.105        2.431        0.523      195.052       33.624        0.030      336.209        7.354      850.764
03/31/2014  16:26:00      -83.782       -6.664       -1.821       42.393       33.109       27.801     1797.175     1096.183      772.907        0.537        0.183       84.046       24.787        0.087      336.254        7.432      850.728
03/31/2014  16:27:00     -155.221      -32.766        1.365       48.232       56.972       34.560     2326.364     3245.865     1194.370        1.597        0.338      158.642       31.540        0.040      336.401        7.677      850.689
03/31/2014  16:28:00     -144.943      -27.989       -3.453       54.479       37.730       25.347     2967.984     1423.588      642.463        1.342        0.252      147.621       26.705        0.033      336.456        7.769      850.677
03/31/2014  16:29:00     -142.746      -49.301       -2.625       50.261       31.589       28.473     2526.174      997.852      810.695        1.357        0.217      151.020       24.167        0.026      336.460        7.776      850.685
03/31/2014  16:30:00     -205.610      -63.665       -7.419       76.015       68.657       34.341     5778.220     4713.826     1179.320        2.903        0.584      215.241       37.271        0.030      336.477        7.802      850.701
03/31/2014  16:31:00     -142.830      -33.088      -12.588       62.957       60.290       41.496     3963.643     3634.899     1721.939        1.549        0.466      146.613       38.289        0.068      336.335        7.566      850.719
03/31/2014  16:32:00     -128.218      -58.457       13.411       84.037       63.240       44.337     7062.276     3999.330     1965.807        1.653        0.651      140.915       43.634        0.096      336.432        7.729      850.693
03/31/2014  16:33:00     -146.674      -45.578       -9.208       86.227       81.389       35.130     7435.023     6624.089     1234.097        1.948        0.765      153.592       32.952        0.046      336.321        7.542      850.655
03/31/2014  16:34:00     -168.194      -27.669      -18.522       72.043       85.014       32.694     5190.190     7227.356     1068.889        2.144        0.674      170.454       22.685        0.018      336.307        7.519      850.624
03/31/2014  16:35:00      -86.131       75.946      -14.123       61.538       42.009       30.682     3786.931     1764.790      941.365        0.994        0.325      114.832       37.376        0.106      336.299        7.507      850.614
03/31/2014  16:36:00      -93.490       44.588       -5.879       39.340       28.341       24.243     1547.661      803.224      587.743        0.685        0.147      103.579       17.921        0.030      336.354        7.599      850.604
03/31/2014  16:37:00        3.240       36.594       30.076       73.530       29.967       30.402     5406.724      898.026      924.272        0.474        0.361       36.737       31.186        0.721      336.605        8.019      850.590
03/31/2014  16:38:00        5.067       27.975       47.031       32.696       30.268       22.690     1069.028      916.131      514.855        0.276        0.125       28.430       19.571        0.474      336.704        8.184      850.574
03/31/2014  16:39:00       -2.374       18.796       51.259       29.784       30.769       20.998      887.075      946.749      440.927        0.263        0.114       18.945       15.418        0.662      336.728        8.226      850.571
03/31/2014  16:40:00      -51.771        4.176       11.778       40.269       24.187       25.904     1621.633      584.991      671.010        0.286        0.144       51.939       26.986        0.270      336.608        8.023      850.603
03/31/2014  16:41:00     -122.666      -23.078       -5.121       54.248       74.252       29.931     2942.869     5513.425      895.885        1.248        0.468      124.818       29.768        0.057      336.546        7.920      850.639
03/31/2014  16:42:00      -22.331      -27.431       29.043       64.758       52.013       36.910     4193.593     2705.381     1362.324        0.518        0.413       35.372       38.855        1.207      336.614        8.034      850.671
03/31/2014  16:43:00     -238.983     -153.141        2.973      123.662       91.047       59.242    15292.332     8289.596     3509.565        5.383        1.355      283.840       63.035        0.049      336.306        7.516      850.695
03/31/2014  16:44:00     -258.970     -133.961       -7.755      109.012       91.888       52.702    11883.703     8443.344     2777.540        5.408        1.155      291.566       48.128        0.027      336.221        7.373      850.717
03/31/2014  16:45:00     -209.176     -109.301      -18.821      115.979       76.378       53.037    13451.069     5833.568     2812.892        3.907        1.105      236.011       41.688        0.031      336.325        7.548      850.699
03/31/2014  16:46:00     -205.466       20.372      -18.880      124.778       71.160       44.158    15569.502     5063.764     1949.944        3.278        1.129      206.473       54.929        0.071      336.301        7.509      850.639
03/31/2014  16:47:00     -279.671       18.880      -23.974      118.855      106.102       56.665    14126.570    11257.586     3210.977        5.387        1.430      280.307       59.858        0.046      336.287        7.482      850.590
03/31/2014  16:48:00     -305.671     -145.393       -9.751       96.020      115.159       62.587     9219.800    13261.646     3917.081        7.053        1.320      338.487       47.300        0.020      336.384        7.646      850.569
03/31/2014  16:49:00     -283.422     -151.503       -6.961      105.750       89.701       55.818    11183.127     8046.348     3115.658        6.283        1.117      321.374       59.058        0.034      336.301        7.507      850.563
03/31/2014  16:50:00     -240.852      -60.600      -11.986      100.283       70.161       45.806    10056.729     4922.588     2098.171        3.945        0.854      248.358       49.721        0.040      336.410        7.691      850.573
03/31/2014  16:51:00     -129.550      -94.182       11.435      128.408       94.186       59.174    16488.545     8871.029     3501.535        2.732        1.443      160.167       63.652        0.158      336.581        7.978      850.577
03/31/2014  16:52:00     -363.568     -162.079       -9.537      194.996      163.429       85.956    38023.402    26708.926     7388.413       11.532        3.606      398.059       92.860        0.054      336.364        7.613      850.568
03/31/2014  16:53:00     -387.413      -55.964      -11.875      222.123      127.760       92.258    49338.462    16322.558     8511.519       11.375        3.709      391.434       96.679        0.061      336.377        7.633      850.571
03/31/2014  16:54:00     -331.295      -39.133      -10.052      122.076      111.047       56.200    14902.666    12331.450     3158.429        7.088        1.520      333.598       55.398        0.028      336.410        7.689      850.574
03/31/2014  16:55:00     -322.654      -31.393        3.995      147.692      110.710       69.299    21812.847    12256.636     4802.340        7.198        1.944      324.178       72.439        0.050      336.378        7.636      850.554
03/31/2014  16:56:00     -311.334      -61.337      -19.369      125.804       83.226       49.086    15826.595     6926.509     2409.461        6.311        1.258      317.318       56.179        0.031      336.337        7.566      850.541
03/31/2014  16:57:00     -109.823     -109.590        8.289      124.679       66.123       61.006    15544.905     4372.229     3721.676        2.388        1.182      155.149       63.338        0.167      336.313        7.529      850.484
03/31/2014  16:58:00     -120.787     -153.541       -4.578       98.655      101.757       56.289     9732.758    10354.578     3168.499        3.072        1.163      195.357       49.615        0.065      336.371        7.624      850.418
03/31/2014  16:59:00     -253.620     -132.338      -13.569       83.384       90.464       50.890     6952.933     8183.792     2589.807        4.987        0.886      286.070       34.848        0.015      336.384        7.644      850.370
03/31/2014  17:00:00     -338.253     -156.447       -2.272      113.688      100.268       56.965    12924.982    10053.589     3244.994        8.255        1.311      372.681       32.981        0.008      336.333        7.559      850.328
03/31/2014  17:01:00     -282.568     -166.445       -7.144      126.711       84.886       52.292    16055.753     7205.670     2734.417        6.679        1.300      327.946       44.344        0.018      336.391        7.657      850.365
03/31/2014  17:02:00     -185.226      -95.825      -15.592       86.835      119.486       44.427     7540.252    14276.807     1973.802        3.376        1.190      208.546       45.239        0.047      336.405        7.680      850.374
03/31/2014  17:03:00      -79.537      -44.778        8.766       86.368      104.767       32.154     7459.479    10976.032     1033.910        1.393        0.973       91.276       23.373        0.066      336.510        7.860      850.349
03/31/2014  17:04:00       75.623      -10.454       73.260       67.595       89.760       77.852     4569.112     8056.813     6060.908        1.494        0.934       76.342       66.696        0.763      336.506        7.852      850.373
03/31/2014  17:05:00      -18.966      -46.945       27.660       69.186       83.564       53.465     4786.714     6982.926     2858.491        0.898        0.731       50.631       49.508        0.956      336.583        7.983      850.357
03/31/2014  17:06:00     -167.080     -177.262        7.547      115.783       92.580       53.329    13405.813     8571.035     2844.030        4.210        1.241      243.593       56.359        0.054      336.436        7.733      850.419
03/31/2014  17:07:00     -121.437     -129.520      -11.942       70.438       57.319       36.129     4961.491     3285.420     1305.317        2.061        0.478      177.546       33.070        0.035      336.316        7.534      850.465
03/31/2014  17:08:00     -129.082     -125.624        7.791       89.522       74.546       43.751     8014.160     5557.077     1914.146        2.399        0.774      180.121       43.992        0.060      336.383        7.644      850.422
03/31/2014  17:09:00     -132.994      -26.729       -6.036       89.411       50.547       52.118     7994.300     2555.025     2716.318        1.585        0.663      135.653       56.840        0.176      336.454        7.767      850.336
03/31/2014  17:10:00     -342.367     -113.460      -12.463      115.681       94.529       55.002    13382.042     8935.732     3025.253        7.779        1.267      360.677       59.057        0.027      336.301        7.508      850.307
03/31/2014  17:11:00     -170.125      -95.464       14.460      121.872       96.549       47.474    14852.780     9321.659     2253.822        3.234        1.321      195.079       51.523        0.070      336.374        7.632      850.335
03/31/2014  17:12:00     -130.025       11.074      -14.220       95.989       75.353       47.975     9213.806     5678.018     2301.566        1.721        0.860      130.495       43.040        0.109      336.435        7.733      850.361
03/31/2014  17:13:00      -59.914       48.479       21.110       79.818       48.901       39.223     6370.944     2391.313     1538.454        0.834        0.515       77.071       37.294        0.234      336.536        7.903      850.367
03/31/2014  17:14:00     -114.994       40.343       -0.345       65.101       42.500       38.196     4238.105     1806.210     1458.909        1.118        0.375      121.865       39.923        0.107      336.470        7.794      850.347
03/31/2014  17:15:00       -0.935      -57.715        6.265       31.525       53.811       26.040      993.800     2895.609      678.064        0.397        0.228       57.723       31.935        0.306      336.447        7.756      850.322
03/31/2014  17:16:00      -19.610      -52.890       -0.787       50.988       31.986       22.515     2599.732     1023.105      506.918        0.366        0.206       56.409       21.472        0.145      336.407        7.688      850.292
03/31/2014  17:17:00     -184.059      -39.815      -13.313      110.101       86.861       50.820    12122.325     7544.789     2582.644        2.894        1.112      188.316       52.494        0.078      336.512        7.860      850.292
03/31/2014  17:18:00     -341.981      -60.417      -34.196      122.411       98.290       53.295    14984.347     9660.838     2840.325        7.462        1.374      347.277       38.990        0.013      336.297        7.500      850.271
03/31/2014  17:19:00     -206.089      -52.962        0.879      137.691       91.523       54.929    18958.817     8376.526     3017.246        3.781        1.518      212.785       64.801        0.093      336.420        7.706      850.251
03/31/2014  17:20:00     -253.163      -35.133        1.142      107.894       80.539       52.965    11641.093     6486.575     2805.327        4.313        1.047      255.589       54.945        0.046      336.466        7.782      850.261
03/31/2014  17:21:00     -132.486      -21.516       -7.720       61.708       56.479       36.648     3807.866     3189.918     1343.106        1.321        0.417      134.222       18.965        0.020      336.589        7.992      850.272
03/31/2014  17:22:00      -83.630        5.664        5.154       63.849       51.972       38.266     4076.715     2701.132     1464.280        0.765        0.412       83.821       27.370        0.107      336.665        8.120      850.277
03/31/2014  17:23:00     -162.729       -5.124       -3.275      124.286       69.587       46.393    15446.894     4842.388     2152.329        2.448        1.122      162.810       61.037        0.141      336.598        8.005      850.283
03/31/2014  17:24:00     -161.944       -8.334       -6.396      122.195       66.102       42.005    14931.662     4369.504     1764.399        2.370        1.053      162.159       45.440        0.079      336.531        7.894      850.311
03/31/2014  17:25:00     -159.013       99.004      -11.415      101.567       70.694       45.534    10315.831     4997.595     2073.351        2.630        0.869      187.315       55.666        0.088      336.410        7.689      850.326
03/31/2014  17:26:00      -77.581      -47.474        4.487       75.445       63.984       36.494     5691.903     4093.995     1331.848        0.970        0.556       90.954       42.964        0.223      336.477        7.805      850.321
03/31/2014  17:27:00        9.214       12.567       17.780       31.867       17.033       28.379     1015.501      290.128      805.393        0.133        0.106       15.583       22.510        2.087      336.713        8.199      850.319
03/31/2014  17:28:00      -34.964       23.023        1.233       47.972       41.588       22.002     2301.295     1729.557      484.097        0.313        0.226       41.864       20.016        0.229      336.605        8.019      850.321
03/31/2014  17:29:00      -34.872      -43.112       18.807       64.411       47.303       34.424     4148.788     2237.536     1185.023        0.550        0.379       55.450       28.323        0.261      336.711        8.198      850.323
03/31/2014  17:30:00      -29.435      -18.016       15.335       64.179       69.220       30.751     4118.892     4791.451      945.646        0.564        0.493       34.511       36.652        1.128      336.679        8.143      850.313
03/31/2014  17:31:00     -125.068      -64.604       -5.961       37.033       52.244       22.985     1371.460     2729.395      528.297        1.224        0.231      140.768       24.503        0.030      336.381        7.644      850.297
03/31/2014  17:32:00      -13.022      -67.951       -6.557       42.795       38.313       20.064     1831.450     1467.850      402.547        0.427        0.185       69.188       19.101        0.076      336.479        7.808      850.279
03/31/2014  17:33:00      -64.768       43.773       21.409      106.546       46.762       44.832    11351.982     2186.705     2009.897        1.106        0.777       78.173       55.772        0.509      336.394        7.667      850.262
03/31/2014  17:34:00       -0.809      -24.152       39.789       80.505       60.570       43.747     6481.094     3668.717     1913.783        0.711        0.603       24.166       50.683        4.399      336.528        7.892      850.249
03/31/2014  17:35:00      -16.919      -99.945       15.009       65.614       81.144       35.040     4305.162     6584.360     1227.836        1.131        0.606      101.367       32.171        0.101      336.370        7.626      850.239
03/31/2014  17:36:00      -48.521     -160.950        5.417       38.633       58.996       22.922     1492.524     3480.562      525.414        1.689        0.275      168.105       19.280        0.013      336.243        7.412      850.225
03/31/2014  17:37:00      -73.621     -133.861       -6.547       55.991       56.858       35.914     3135.034     3232.841     1289.825        1.552        0.383      152.771       24.326        0.025      336.456        7.767      850.212
03/31/2014  17:38:00        2.138      -88.610       -0.187       46.424       52.822       30.608     2155.178     2790.208      936.878        0.687        0.294       88.636       16.847        0.036      336.460        7.776      850.228
03/31/2014  17:39:00      -48.782      -66.312       -4.625       37.199       36.766       28.031     1383.776     1351.711      785.741        0.516        0.176       82.322       23.837        0.084      336.399        7.675      850.213
03/31/2014  17:40:00       11.310      -43.484       25.460       28.818       62.398       38.066      830.455     3893.564     1449.051        0.442        0.309       44.931       41.077        0.836      336.487        7.822      850.224
03/31/2014  17:41:00       22.290      -34.050       12.535       64.542       53.075       37.688     4165.698     2816.975     1420.408        0.511        0.420       40.697       31.702        0.607      336.378        7.640      850.220
03/31/2014  17:42:00      -17.177      -44.897       -6.879       62.644       57.215       30.654     3924.266     3273.555      939.659        0.525        0.407       48.071       22.529        0.220      336.441        7.743      850.216
03/31/2014  17:43:00      -10.131      -27.871        7.763       54.179       59.872       29.313     2935.394     3584.609      859.255        0.416        0.369       29.656        8.777        0.088      336.465        7.785      850.197
03/31/2014  17:44:00       -6.142        1.032        9.638       31.306       38.828       29.950      980.043     1507.646      897.005        0.176        0.169        6.228       24.257       15.168      336.534        7.901      850.151
03/31/2014  17:45:00      -30.135      -13.867        3.640       33.650       36.235       23.730     1132.347     1312.946      563.107        0.206        0.150       33.172       18.271        0.303      336.654        8.101      850.112
03/31/2014  17:46:00      -23.427      -12.982       13.494       66.447       47.981       29.242     4415.260     2302.213      855.066        0.423        0.379       26.784       32.281        1.453      336.625        8.052      850.079
03/31/2014  17:47:00        1.761        3.143       46.523       30.952       33.533       27.885      958.011     1124.437      777.546        0.252        0.143        3.603       23.700       43.280      336.630        8.060      850.055
03/31/2014  17:48:00       42.585      -51.752       12.483       67.452       49.790       42.552     4549.810     2479.068     1810.697        0.674        0.442       67.021       39.558        0.348      336.525        7.886      850.041
03/31/2014  17:49:00      -53.532      -29.082        2.877       56.353       48.807       30.885     3175.657     2382.162      953.905        0.511        0.326       60.922       35.383        0.337      336.512        7.864      850.014
03/31/2014  17:50:00      -14.174        8.269       12.434       66.653       42.059       29.974     4442.637     1769.000      898.468        0.377        0.356       16.410       36.704        5.003      336.286        7.485      849.987
03/31/2014  17:51:00       18.525       59.390       58.870       35.673       26.762       26.189     1272.593      716.228      685.861        0.500        0.134       62.213       20.569        0.109      336.343        7.581      849.938
03/31/2014  17:52:00       36.416       43.565        5.171       20.439       12.804       21.619      417.761      163.949      467.376        0.215        0.052       56.780        9.941        0.031      336.130        7.226      849.874
03/31/2014  17:53:00       10.513        8.972       -4.731        8.504       16.918        8.488       72.314      286.213       72.050        0.032        0.022       13.821        4.865        0.124      336.145        7.250      849.829
03/31/2014  17:54:00        6.384       18.296        7.067       19.049       11.507       10.921      362.849      132.412      119.265        0.052        0.031       19.378        8.998        0.216      336.263        7.449      849.794
03/31/2014  17:55:00      -42.475       -5.333        0.795       29.978       23.736       16.846      898.702      563.416      283.792        0.179        0.087       42.808       19.963        0.217      336.332        7.562      849.728
03/31/2014  17:56:00      -66.093       33.243       -2.339       30.346       47.080       20.193      920.902     2216.529      407.777        0.451        0.177       73.983       23.689        0.103      336.466        7.785      849.663
03/31/2014  17:57:00     -120.644       15.244      -15.815       24.242       27.474       15.578      587.678      754.829      242.679        0.831        0.079      121.604       12.211        0.010      336.259        7.440      849.623
03/31/2014  17:58:00      -87.184      -60.824       -9.944       38.656       38.848       20.753     1494.278     1509.149      430.697        0.742        0.172      106.304       17.455        0.027      336.380        7.642      849.590
03/31/2014  17:59:00      -81.442     -107.429       -8.394       42.103       55.016       29.713     1772.688     3026.770      882.861        1.196        0.284      134.810       30.407        0.051      336.263        7.446      849.579
03/31/2014  18:00:00     -101.918      -60.886      -20.801       29.924       40.938       21.634      895.466     1675.897      468.051        0.878        0.152      118.719       17.072        0.021      336.227        7.388      849.585
03/31/2014  18:01:00      -81.897       34.729       -5.787       63.189       38.751       22.890     3992.899     1501.647      523.948        0.698        0.301       88.956       32.246        0.131      336.191        7.328      849.575
03/31/2014  18:02:00      100.319       87.289       -3.622       62.205       39.283       31.558     3869.470     1543.129      995.888        1.205        0.320      132.978       24.833        0.035      336.369        7.624      849.543
03/31/2014  18:03:00       98.563      106.486       -6.045       97.648       69.842       50.877     9535.198     4877.886     2588.476        1.904        0.850      145.099       28.356        0.038      336.308        7.520      849.513
03/31/2014  18:04:00       95.084       59.450       29.041       74.343       56.533       44.980     5526.937     3195.942     2023.167        1.208        0.537      112.140       17.166        0.023      336.334        7.564      849.490
03/31/2014  18:05:00       45.785      -90.835      -10.080       78.786      106.761       38.774     6207.312    11397.946     1503.438        1.477        0.955      101.722       13.868        0.019      336.474        7.798      849.505
03/31/2014  18:06:00      140.088     -232.165      -19.010      145.065      102.463       70.267    21043.794    10498.639     4937.421        5.518        1.824      271.155       49.996        0.034      336.454        7.762      849.497
03/31/2014  18:07:00       81.409      -57.334       94.030      132.739      191.687      108.272    17619.767    36744.082    11722.876        4.241        3.304       99.572      118.678        1.421      336.469        7.789      849.408
03/31/2014  18:08:00       96.504     -144.028       54.000      129.063      180.425      129.191    16657.343    32553.177    16690.187        4.942        3.295      173.370      127.681        0.542      336.447        7.753      849.425
03/31/2014  18:09:00       11.108     -282.016       -8.208      137.397      118.897       72.964    18877.979    14136.478     5323.816        5.902        1.917      282.234       57.001        0.041      336.502        7.842      849.568
03/31/2014  18:10:00      -42.475     -104.963       10.003       99.418       85.620       49.366     9883.887     7330.846     2437.001        1.628        0.983      113.232       55.163        0.237      336.456        7.768      849.629
03/31/2014  18:11:00      -21.264      -15.081       64.304       88.913       95.529       72.475     7905.505     9125.708     5252.556        1.354        1.114       26.069       63.983        6.024      336.538        7.906      849.636
03/31/2014  18:12:00      108.616      -79.730       89.782      149.178      181.411      124.458    22254.012    32910.051    15489.762        4.842        3.533      134.738      111.873        0.689      336.310        7.522      849.587
03/31/2014  18:13:00      142.539     -199.983      -34.133      183.530      136.643       84.240    33683.128    18671.354     7096.398        6.045        2.973      245.582       92.792        0.143      336.329        7.554      849.628
03/31/2014  18:14:00       44.620      167.428      244.916      123.974      149.105      115.895    15369.625    22232.177    13431.555        7.051        2.552      173.272      110.557        0.407      336.284        7.479      849.538
03/31/2014  18:15:00      121.133      -48.042       88.298      136.243      206.844      132.331    18562.110    42784.258    17511.581        5.180        3.943      130.312      155.101        1.417      336.326        7.549      849.506
03/31/2014  18:16:00       66.034     -267.772      -12.108      120.664      102.974       93.051    14559.686    10603.727     8658.568        5.501        1.691      275.794       56.796        0.042      336.331        7.557      849.581
03/31/2014  18:17:00       30.440     -118.291       36.741       76.033      149.658       64.182     5780.986    22397.539     4119.315        2.428        1.615      122.145       78.251        0.410      336.437        7.737      849.609
03/31/2014  18:18:00       -8.949      -75.333       47.221       68.047       87.651       50.156     4630.398     7682.648     2515.577        1.140        0.741       75.862       42.180        0.309      336.561        7.945      849.648
03/31/2014  18:19:00       68.777     -179.610       -2.334      128.093      181.416       84.297    16407.838    32911.927     7105.981        4.670        2.821      192.328       92.609        0.232      336.505        7.849      849.685
03/31/2014  18:20:00      104.028      -24.718       84.764       99.808      107.194       81.683     9961.562    11490.594     6672.052        2.337        1.406      106.925       79.271        0.550      336.345        7.581      849.637
03/31/2014  18:21:00      118.148     -193.092       -2.103      105.717       99.374       61.565    11176.075     9875.246     3790.210        3.804        1.242      226.370       54.592        0.058      336.368        7.619      849.623
03/31/2014  18:22:00      104.523     -177.030       15.883      119.890      173.998       89.974    14373.637    30275.355     8095.336        4.762        2.637      205.583      104.524        0.258      336.380        7.639      849.621
03/31/2014  18:23:00       35.487       68.328      161.065       88.390      124.163       88.711     7812.800    15416.477     7869.557        3.148        1.555       76.993       74.011        0.924      336.335        7.565      849.524
03/31/2014  18:24:00      170.945     -247.934      -31.014      177.778      212.213      129.179    31605.077    45034.564    16687.199        9.247        4.666      301.154      126.468        0.176      336.265        7.447      849.499
03/31/2014  18:25:00      102.776     -110.508       67.549      154.680      170.949       92.266    23926.050    29223.534     8512.924        4.449        3.083      150.914      102.034        0.457      336.295        7.500      849.543
03/31/2014  18:26:00      137.755     -160.425       27.107      125.756      194.550      110.112    15814.681    37849.617    12124.583        5.561        3.289      211.454      131.253        0.385      336.299        7.504      849.536
03/31/2014  18:27:00       79.541      -48.811       99.460      167.120      201.308      105.395    27928.958    40524.890    11108.166        4.907        3.978       93.323      146.062        2.450      336.287        7.484      849.475
03/31/2014  18:28:00       -4.829     -106.093       37.322      106.226      135.979       83.022    11284.025    18490.180     6892.625        2.466        1.833      106.203       81.044        0.582      336.359        7.606      849.484
03/31/2014  18:29:00       22.396     -179.151       -3.958      126.763      111.596       65.115    16068.907    12453.670     4239.948        3.268        1.638      180.545       60.642        0.113      336.431        7.726      849.497
03/31/2014  18:30:00       18.658     -124.289       24.352       51.879      150.749       49.009     2691.431    22725.340     2401.877        2.210        1.391      125.682       65.735        0.274      336.537        7.905      849.473
03/31/2014  18:31:00      -12.033     -139.023       22.646       87.865      145.799       69.217     7720.333    21257.447     4791.037        2.687        1.688      139.542       36.741        0.069      336.566        7.953      849.452
03/31/2014  18:32:00        1.210     -107.913       47.376      124.714      150.065      101.912    15553.666    22519.611    10386.090        3.117        2.423      107.920       85.185        0.623      336.453        7.764      849.403
03/31/2014  18:33:00      173.117     -326.500        6.061      209.184      243.117      116.109    43757.913    59105.971    13481.287       12.645        5.817      369.556      140.982        0.146      336.343        7.579      849.377
03/31/2014  18:34:00      143.092     -272.380      -26.052      188.722      203.075      111.699    35616.002    41239.524    12476.647        9.232        4.467      307.679      108.872        0.125      336.350        7.589      849.309
03/31/2014  18:35:00       73.783     -390.409      -26.818      211.805      213.698      105.954    44861.312    45666.708    11226.256       13.015        5.088      397.320      111.518        0.079      336.315        7.531      849.288
03/31/2014  18:36:00       83.870     -221.206        2.714      208.988      173.236       88.322    43675.853    30010.562     7800.789        6.871        4.074      236.572      104.043        0.193      336.370        7.622      849.270
03/31/2014  18:37:00       57.465     -212.638       21.972      176.647      158.503      100.712    31204.025    25123.209    10142.907        5.772        3.324      220.266      102.099        0.215      336.356        7.599      849.228
03/31/2014  18:38:00       14.322     -171.910        8.770       98.309      110.310       69.890     9664.755    12168.313     4884.610        2.827        1.336      172.506       51.998        0.091      336.432        7.727      849.240
03/31/2014  18:39:00       45.324     -164.455       28.682      138.659      211.300      140.520    19226.216    44647.823    19745.919        5.675        4.181      170.586      140.202        0.675      336.325        7.548      849.227
03/31/2014  18:40:00       58.980     -152.184       19.313      109.989      170.134       93.575    12097.544    28945.451     8756.329        3.840        2.490      163.213      101.536        0.387      336.328        7.554      849.223
03/31/2014  18:41:00      118.773     -283.879       -2.197      152.313      231.794      135.604    23199.139    53728.567    18388.553        9.499        4.766      307.724      134.578        0.191      336.211        7.357      849.161
03/31/2014  18:42:00       98.564     -168.921        6.693      164.513      131.493       85.324    27064.451    17290.457     7280.259        4.495        2.582      195.574       68.193        0.122      336.281        7.474      849.184
03/31/2014  18:43:00      105.296     -221.890       -3.742      114.685      174.726       83.566    13152.606    30529.225     6983.262        5.549        2.533      245.607      100.485        0.167      336.203        7.344      849.192
03/31/2014  18:44:00       42.437     -127.439       27.514      142.899      148.801       77.004    20420.154    22141.833     5929.682        3.364        2.425      134.319       77.095        0.329      336.297        7.502      849.209
03/31/2014  18:45:00      204.061     -281.485      -32.987      163.937      172.872       86.820    26875.395    29884.716     7537.719        9.312        3.215      347.670       84.873        0.060      336.206        7.351      849.209
03/31/2014  18:46:00       11.116     -167.656      -10.867      115.637      100.658       55.126    13371.844    10131.957     3038.930        2.744        1.327      168.025       46.119        0.075      336.365        7.615      849.193
03/31/2014  18:47:00      177.386     -227.838       12.337      118.598      150.303       80.467    14065.378    22591.002     6474.886        6.332        2.157      288.749       83.253        0.083      336.259        7.437      849.165
03/31/2014  18:48:00       -3.167      -23.232       64.283       81.736      111.820       90.593     6680.763    12503.674     8207.069        1.603        1.370       23.447       79.825       11.591      336.296        7.502      849.115
03/31/2014  18:49:00      118.690     -195.946      -19.596      117.805      127.931       58.142    13878.062    16366.272     3380.434        4.324        1.681      229.090       63.951        0.078      336.281        7.475      849.115
03/31/2014  18:50:00       84.784     -221.434        4.503      106.033      118.816       70.376    11243.031    14117.200     4952.790        4.327        1.516      237.111       63.107        0.071      336.193        7.327      849.083
03/31/2014  18:51:00       82.640       44.248      136.313      123.419      213.088      123.468    15232.346    45406.627    15244.458        5.161        3.794       93.741      151.395        2.608      336.144        7.246      849.029
03/31/2014  18:52:00      150.509     -123.740       36.558      162.502      218.928      138.153    26406.924    47929.395    19086.282        6.634        4.671      194.845      157.748        0.655      336.092        7.160      848.988
03/31/2014  18:53:00       66.407     -100.136       68.002      105.505      171.292      104.343    11131.368    29341.082    10887.371        3.520        2.568      120.155      113.756        0.896      336.174        7.296      848.997
03/31/2014  18:54:00       62.887      -59.191       48.582       84.964      102.437       56.720     7218.819    10493.370     3217.106        1.537        1.046       86.361       58.643        0.461      336.236        7.402      849.014
03/31/2014  18:55:00       -7.538      -63.749       47.262       45.559       88.659       58.468     2075.601     7860.383     3418.551        0.985        0.668       64.193       60.676        0.893      336.303        7.514      848.988
03/31/2014  18:56:00        9.369      -31.243       43.250       45.860       76.705       53.533     2103.104     5883.695     2865.835        0.689        0.543       32.617       51.778        2.520      336.297        7.503      848.974
03/31/2014  18:57:00       30.388      -60.574       24.906       58.639       88.567       58.637     3438.556     7844.081     3438.312        0.996        0.736       67.769       59.543        0.772      336.251        7.427      848.981
03/31/2014  18:58:00      141.722     -181.194        8.709      139.431      198.845      100.575    19441.129    39539.303    10115.375        6.103        3.455      230.035      136.450        0.352      336.149        7.255      848.962
03/31/2014  18:59:00       89.991     -125.833       23.553      190.985      165.746      109.363    36475.388    27471.620    11960.166        5.018        3.795      154.700      106.106        0.470      336.236        7.400      849.000
03/31/2014  19:00:00        6.736     -132.958       36.926      108.512      210.202      127.839    11774.851    44184.909    16342.724        4.568        3.615      133.128      141.509        1.130      336.257        7.435      848.981
03/31/2014  19:01:00      127.057     -214.405       -2.139      100.212      127.999       83.163    10042.519    16383.708     6916.124        4.772        1.667      249.225       81.432        0.107      336.096        7.167      848.962
03/31/2014  19:02:00      170.738     -169.460       27.187      140.222      188.749       94.790    19662.216    35626.096     8985.133        6.143        3.214      240.558      121.240        0.254      336.115        7.197      848.978
03/31/2014  19:03:00      184.476     -212.331       27.546      123.101      197.975      107.384    15153.760    39194.212    11531.310        7.286        3.294      281.275      122.694        0.190      336.078        7.137      848.967
03/31/2014  19:04:00      149.860     -124.564      105.002      152.765      249.492      126.027    23337.005    62246.046    15882.897        7.521        5.073      194.870      151.498        0.604      336.051        7.090      848.959
03/31/2014  19:05:00       55.162      -30.719       66.621      121.303      144.233       88.536    14714.307    20803.155     7838.662        2.588        2.168       63.139       95.050        2.266      336.117        7.202      848.953
03/31/2014  19:06:00       20.732      -50.834       91.886       83.555      168.447       93.860     6981.494    28374.277     8809.732        2.780        2.208       54.899      107.904        3.863      336.124        7.215      848.987
03/31/2014  19:07:00       63.402      -31.946      117.088      112.470      175.458      105.924    12649.598    30785.515    11219.875        3.669        2.733       70.996      111.854        2.482      336.045        7.081      848.996
03/31/2014  19:08:00       96.217     -201.555       50.141      132.188      224.029      160.956    17473.645    50189.072    25906.822        7.296        4.678      223.343      148.033        0.439      336.001        7.005      848.964
03/31/2014  19:09:00      107.728      -73.321       95.815      154.764      179.255      129.541    23951.867    32132.428    16780.796        4.950        3.643      130.312      137.860        1.119      335.991        6.990      848.969
03/31/2014  19:10:00       34.006       13.365      141.563       79.804      119.160       75.589     6368.602    14199.214     5713.654        2.382        1.314       36.538       60.382        2.731      336.013        7.030      848.955
03/31/2014  19:11:00       19.906     -161.880       53.353      131.206      164.350       97.086    17214.937    27010.765     9425.763        4.154        2.683      163.099      102.316        0.394      336.078        7.137      848.988
03/31/2014  19:12:00      168.848     -220.362       28.148      151.831      177.042       83.149    23052.573    31343.715     6913.781        6.957        3.066      277.613      103.051        0.138      336.127        7.217      849.047
03/31/2014  19:13:00      207.088     -239.185      -24.456      138.796      172.845       69.324    19264.247    29875.291     4805.783        7.731        2.697      316.378       84.813        0.072      336.026        7.050      849.063
03/31/2014  19:14:00       11.241      -92.317       24.552      117.779      125.740       69.849    13871.915    15810.643     4878.813        2.190        1.728       92.999       74.019        0.633      336.094        7.163      849.045
03/31/2014  19:15:00        4.658      -54.134       20.214       73.358       75.312       54.213     5381.398     5671.845     2939.044        0.867        0.700       54.334       48.173        0.786      336.148        7.254      849.050
03/31/2014  19:16:00      -24.599      -32.652       90.099      125.961      139.794      116.704    15866.122    19542.247    13619.927        2.940        2.451       40.881      111.825        7.482      336.053        7.093      849.043
03/31/2014  19:17:00       -0.526      -44.681       34.432       70.763       84.289       55.508     5007.339     7104.607     3081.151        0.918        0.760       44.684       56.927        1.623      336.092        7.161      849.046
03/31/2014  19:18:00       49.353        4.662      113.849       97.081      122.530       74.646     9424.779    15013.665     5571.964        2.271        1.501       49.573       69.146        1.946      336.008        7.019      849.082
03/31/2014  19:19:00      101.750     -106.255       62.527      102.830      154.282       83.375    10573.967    23803.015     6951.399        3.343        2.066      147.116       84.085        0.327      336.014        7.029      849.079
03/31/2014  19:20:00       15.707      -43.678       40.220       86.373      119.737       86.705     7460.237    14336.963     7517.682        1.654        1.466       46.416       79.274        2.917      336.035        7.066      849.066
03/31/2014  19:21:00      116.611     -144.594       45.871      117.605      237.592      117.153    13830.839    56450.195    13724.711        6.029        4.200      185.757      152.976        0.678      335.990        6.990      849.036
03/31/2014  19:22:00      123.134      -75.905       93.259      167.599      221.192      138.053    28089.415    48925.751    19058.538        6.283        4.804      144.649      148.903        1.060      335.920        6.872      849.029
03/31/2014  19:23:00       -8.113      -28.093       92.604      121.141      143.991       87.986    14675.227    20733.366     7741.590        2.628        2.158       29.241       72.177        6.093      335.980        6.973      849.036
03/31/2014  19:24:00      111.210      -60.021       79.908      147.195      177.114      138.510    21666.233    31369.510    19185.042        4.727        3.611      126.373      144.718        1.311      335.922        6.877      849.025
03/31/2014  19:25:00      149.758     -127.965       75.579      167.783      215.752      110.866    28151.216    46548.799    12291.215        6.574        4.350      196.983      147.117        0.558      335.912        6.860      849.022
03/31/2014  19:26:00      115.819       -5.599       69.906      110.444      152.584       90.879    12197.835    23281.770     8258.976        3.103        2.187      115.954       96.343        0.690      335.920        6.873      848.996
03/31/2014  19:27:00      163.970      -26.765       83.046      118.223      169.925      116.117    13976.731    28874.656    13483.259        4.541        2.817      166.140      122.332        0.542      335.898        6.836      848.976
03/31/2014  19:28:00      142.955      -59.779       58.175      130.279      145.171       95.294    16972.711    21074.669     9080.919        3.725        2.356      154.950      107.637        0.483      335.911        6.856      848.965
03/31/2014  19:29:00      114.401      -45.247       98.316      118.087      172.630      103.194    13944.633    29801.045    10649.070        3.959        2.720      123.023      120.426        0.958      335.908        6.852      848.978
03/31/2014  19:30:00       41.184       -4.410      105.094      118.330      205.892      142.813    14001.927    42391.547    20395.461        4.476        3.839       41.420      155.968       14.179      335.910        6.855      848.971
03/31/2014  19:31:00      109.510     -174.062       20.838      121.001      128.503       79.225    14641.218    16512.899     6276.620        4.007        1.872      205.645       87.623        0.182      335.952        6.925      848.981
03/31/2014  19:32:00      150.227     -184.368       22.603      154.443      226.105      101.110    23852.635    51123.355    10223.248        7.112        4.260      237.823      138.444        0.339      335.937        6.901      848.982
03/31/2014  19:33:00      203.530     -172.004       29.217      173.324      251.050      127.428    30041.041    63026.271    16237.966        9.056        5.465      266.476      168.847        0.401      335.875        6.797      848.961
03/31/2014  19:34:00      215.442     -228.649      -15.435      137.702      172.440      112.435    18961.945    29735.660    12641.682        8.012        3.067      314.158      126.492        0.162      335.856        6.765      848.956
03/31/2014  19:35:00      111.150     -129.034       29.124      114.258      165.058       75.224    13054.983    27244.249     5658.705        3.790        2.298      170.306       93.544        0.302      335.895        6.831      848.976
03/31/2014  19:36:00      104.596     -109.981       30.830       94.809      103.152       67.269     8988.755    10640.289     4525.076        2.407        1.208      151.776       69.885        0.212      335.947        6.919      848.964
03/31/2014  19:37:00       93.349     -139.014       12.622       71.171      104.941       63.097     5065.250    11012.517     3981.293        2.412        1.003      167.448       55.071        0.108      336.058        7.103      848.940
03/31/2014  19:38:00       18.050       25.244       73.910       72.647      121.285       97.399     5277.539    14709.955     9486.601        1.794        1.474       31.033       94.024        9.180      335.979        6.972      848.916
03/31/2014  19:39:00      132.037     -166.156       51.454      117.476      184.367       90.159    13800.538    33991.293     8128.729        5.179        2.796      212.230      116.971        0.304      335.904        6.844      848.922
03/31/2014  19:40:00       47.791      -47.288       51.249       94.260      123.124       76.320     8884.943    15159.530     5824.753        1.850        1.493       67.232       95.221        2.006      335.928        6.886      848.904
03/31/2014  19:41:00      -26.199       18.639       14.944       86.569       40.519       41.534     7494.148     1641.823     1725.035        0.606        0.543       32.153       25.259        0.617      336.049        7.089      848.870
03/31/2014  19:42:00       20.020      -34.699       12.913       29.150       74.034       36.447      849.745     5481.093     1328.400        0.471        0.383       40.060       41.241        1.060      336.119        7.207      848.834
03/31/2014  19:43:00      -32.146       10.962       17.561       32.555       34.028       16.150     1059.845     1157.903      260.821        0.197        0.124       33.964       15.683        0.213      336.056        7.101      848.818
03/31/2014  19:44:00      -55.481       77.333       14.410       49.505       44.402       45.141     2450.712     1971.516     2037.689        0.786        0.323       95.176       27.742        0.085      335.833        6.730      848.821
03/31/2014  19:45:00       -7.574      -30.916       -5.938       70.423       48.482       26.981     4959.394     2350.518      727.979        0.454        0.402       31.831       20.201        0.403      335.844        6.748      848.834
03/31/2014  19:46:00     -108.177     -112.139        4.602       86.477       78.518       37.874     7478.210     6165.059     1434.454        1.969        0.754      155.812       36.087        0.054      335.875        6.799      848.881
03/31/2014  19:47:00     -161.735     -236.766       -4.246      145.852      144.270       65.360    21272.844    20813.882     4271.982        6.429        2.318      286.734       66.736        0.054      335.828        6.719      848.926
03/31/2014  19:48:00     -135.753      -86.398        5.046       71.938       65.494       35.579     5175.052     4289.406     1265.897        1.832        0.537      160.915       25.339        0.025      335.859        6.772      848.915
03/31/2014  19:49:00      -85.148     -172.043        5.016       93.641      101.102       44.275     8768.573    10221.700     1960.311        2.891        1.048      191.961       36.853        0.037      335.793        6.661      848.957
03/31/2014  19:50:00        1.397     -104.942        2.791       96.992      114.931       85.519     9407.470    13209.031     7313.513        2.047        1.497      104.952       58.750        0.313      335.857        6.768      848.989
03/31/2014  19:51:00     -153.449      -24.282       -2.120      154.397       86.103       52.968    23838.501     7413.672     2805.649        2.909        1.703      155.358       59.091        0.145      335.754        6.596      848.989
03/31/2014  19:52:00     -157.968      -74.971       23.094      138.438       95.185       47.722    19165.210     9060.195     2277.406        3.080        1.525      174.856       51.853        0.088      335.610        6.357      849.001
03/31/2014  19:53:00     -207.594     -116.242      -16.158      101.205       94.173       48.504    10242.484     8868.626     2352.634        3.916        1.073      237.924       33.759        0.020      335.415        6.030      849.057
03/31/2014  19:54:00     -227.120      -91.405      -13.504      109.206       99.880       53.468    11925.922     9975.985     2858.812        4.244        1.238      244.823       58.958        0.058      335.300        5.839      849.058
03/31/2014  19:55:00     -300.854      -75.461      -15.440       58.639       94.553       35.761     3438.494     8940.181     1278.828        5.505        0.683      310.173       30.193        0.009      335.312        5.856      849.039
03/31/2014  19:56:00     -280.482       15.562      -19.673       86.225       84.571       39.614     7434.702     7152.321     1569.252        4.772        0.808      280.914       38.828        0.019      335.301        5.840      849.028
03/31/2014  19:57:00     -278.465      -82.194        0.281      155.904      118.881       61.909    24306.113    14132.750     3832.708        6.328        2.114      290.342       72.195        0.062      335.218        5.703      849.025
03/31/2014  19:58:00     -131.310      -94.062       13.050      106.180       67.305       53.263    11274.193     4530.000     2836.908        2.245        0.932      161.524       63.455        0.154      335.101        5.510      849.065
03/31/2014  19:59:00     -131.905      -85.529      -12.836       43.998       74.998       28.609     1935.809     5624.740      818.489        1.663        0.419      157.207       28.937        0.034      335.143        5.580      849.075
03/31/2014  20:00:00     -168.180      -65.966       -1.507      146.617       87.089       48.873    21496.592     7584.568     2388.531        3.205        1.573      180.655       63.749        0.125      335.155        5.600      849.058
03/31/2014  20:01:00     -200.530     -190.773        3.424      183.141      128.093       77.827    33540.560    16407.719     6056.977        6.630        2.800      276.779       75.017        0.073      334.974        5.298      849.033
03/31/2014  20:02:00     -112.663      -38.081       24.594      168.739       99.207       68.619    28472.798     9842.042     4708.613        2.888        2.151      118.925       80.368        0.457      334.963        5.282      849.038
03/31/2014  20:03:00     -237.573      -44.215       -5.330      127.965       86.061       57.134    16375.085     7406.424     3264.286        4.273        1.352      241.653       56.355        0.054      334.909        5.191      849.053
03/31/2014  20:04:00     -126.130     -152.860        1.462      147.682       80.672       48.164    21810.102     6508.004     2319.725        3.495        1.532      198.179       58.125        0.086      334.989        5.324      849.072
03/31/2014  20:05:00     -427.571     -132.801      -22.181      163.466      139.381       67.310    26721.201    19427.085     4530.631       12.580        2.534      447.720       68.588        0.023      334.842        5.077      849.085
03/31/2014  20:06:00     -234.121      -81.954       -2.842      171.587      151.919       68.610    29442.207    23079.430     4707.322        5.937        2.861      248.051       87.067        0.123      334.839        5.075      849.136
03/31/2014  20:07:00     -227.322      -58.337        6.762      138.134      122.462       57.433    19081.011    14996.905     3298.561        4.624        1.869      234.688       54.778        0.054      334.787        4.987      849.192
03/31/2014  20:08:00     -314.603     -181.201       -7.453      152.308       99.809       74.621    23197.675     9961.902     5568.362        8.529        1.936      363.055       76.880        0.045      334.704        4.849      849.214
03/31/2014  20:09:00     -495.002     -183.800      -30.950      171.007      173.206       78.228    29243.376    30000.184     6119.690       17.255        3.268      528.024       78.589        0.022      334.595        4.666      849.205
03/31/2014  20:10:00     -187.004      -72.868        6.621      184.936      114.151       61.211    34201.279    13030.538     3746.738        4.564        2.549      200.699       86.643        0.186      334.623        4.716      849.206
03/31/2014  20:11:00     -183.061       22.617      -29.034       99.732      130.016       47.805     9946.504    16904.162     2285.290        3.200        1.457      184.453       30.116        0.027      334.584        4.650      849.164
03/31/2014  20:12:00     -139.303      -64.589      -24.869      171.249      102.528       75.950    29326.170    10512.022     5768.408        3.489        2.280      153.548       89.192        0.337      334.641        4.745      849.132
03/31/2014  20:13:00     -192.936     -129.801       -5.233      130.661       94.143       64.423    17072.322     8862.950     4150.376        4.209        1.504      232.535       71.875        0.096      334.572        4.629      849.166
03/31/2014  20:14:00     -235.336      -35.025        7.164      135.946      110.778       64.072    18481.345    12271.700     4105.163        4.575        1.743      237.928       67.386        0.080      334.561        4.612      849.196
03/31/2014  20:15:00     -219.301     -183.837       16.489      213.580      150.536      100.723    45616.513    22661.164    10145.124        8.028        3.921      286.163      116.234        0.165      334.498        4.508      849.212
03/31/2014  20:16:00     -358.250     -165.704      -25.020      114.878      133.375       66.252    13196.983    17788.779     4389.286        9.589        1.769      394.716       60.687        0.024      334.451        4.430      849.260
03/31/2014  20:17:00     -206.333     -148.247        1.409      170.866      146.455       85.448    29195.346    21448.946     7301.314        6.124        2.897      254.067       97.138        0.146      334.504        4.517      849.273
03/31/2014  20:18:00     -442.562      -46.503      -19.089      227.220      179.674       96.628    51628.896    32282.862     9336.999       14.580        4.662      444.999      117.999        0.070      334.404        4.353      849.271
03/31/2014  20:19:00     -516.890     -135.667      -18.586      241.926      181.145       98.241    58528.266    32813.422     9651.218       19.344        5.050      534.398      107.112        0.040      334.357        4.271      849.296
03/31/2014  20:20:00     -394.893      -59.790      -23.796      162.664      119.943       89.738    26459.598    14386.331     8052.951       10.448        2.445      399.393       73.480        0.034      334.409        4.359      849.341
03/31/2014  20:21:00     -401.159      -55.437       -1.885      169.966      125.468       70.972    28888.436    15742.209     5036.973       10.683        2.483      404.972       73.766        0.033      334.359        4.277      849.385
03/31/2014  20:22:00     -318.219      -33.427      -11.843      166.863      127.906       68.800    27843.142    16359.861     4733.470        7.572        2.447      319.970       84.632        0.070      334.393        4.332      849.418
03/31/2014  20:23:00     -333.188      -33.072        0.469      187.798      123.904       83.485    35268.213    15352.121     6969.813        8.484        2.880      334.825       87.883        0.069      334.354        4.270      849.427
03/31/2014  20:24:00     -445.711      -77.835      -21.635      176.913      118.118       56.570    31298.220    13951.783     3200.204       12.681        2.423      452.456       64.351        0.020      334.273        4.133      849.464
03/31/2014  20:25:00     -334.695      -34.188      -15.494      171.997      109.911       65.810    29582.835    12080.412     4330.945        7.970        2.300      336.437       75.257        0.050      334.267        4.123      849.507
03/31/2014  20:26:00     -389.043      -67.468      -17.257      131.400      163.965       77.739    17265.877    26884.416     6043.425       10.319        2.510      394.850       70.790        0.032      334.357        4.274      849.561
03/31/2014  20:27:00     -216.958     -137.272       11.641      154.543      138.736       68.203    23883.548    19247.761     4651.611        5.691        2.389      256.738       72.473        0.080      334.407        4.357      849.655
03/31/2014  20:28:00     -173.747     -137.568       10.648      167.849      159.627       82.246    28173.329    25480.786     6764.357        5.481        3.021      221.615       92.628        0.175      334.438        4.409      849.742
03/31/2014  20:29:00     -417.268     -178.567        3.588      191.979      171.391       90.071    36855.884    29374.739     8112.757       14.016        3.717      453.871      105.203        0.054      334.171        3.963      849.796
03/31/2014  20:30:00     -427.761     -280.174      -32.484      194.430      193.066       96.321    37802.991    37274.627     9277.827       17.343        4.218      511.348      102.790        0.040      334.093        3.833      849.848
03/31/2014  20:31:00     -450.271     -330.457      -11.241      232.616      172.461      113.604    54110.353    29742.723    12905.927       20.440        4.838      558.521      130.385        0.054      333.932        3.567      849.926
03/31/2014  20:32:00     -365.423     -147.539        1.550      207.595      168.066       86.488    43095.748    28246.317     7480.096       11.705        3.941      394.083      101.810        0.067      333.908        3.527      849.999
03/31/2014  20:33:00     -209.294     -107.319       -0.171      267.010      173.498      106.921    71294.401    30101.638    11432.011        8.405        5.641      235.206      120.683        0.263      333.854        3.439      850.027
03/31/2014  20:34:00     -309.252      -85.842        7.942      191.968      174.574       86.408    36851.537    30475.912     7466.269        8.892        3.740      320.945       77.764        0.059      333.776        3.309      850.110
03/31/2014  20:35:00     -353.373     -236.905       -5.575      190.349      152.308       91.150    36232.852    23197.787     8308.358       12.437        3.387      425.437      107.136        0.063      333.738        3.246      850.139
03/31/2014  20:36:00     -265.808     -133.161      -10.324      161.490       85.197       69.024    26079.158     7258.543     4764.356        6.329        1.905      297.297       76.700        0.067      333.699        3.182      850.141
03/31/2014  20:37:00     -252.416     -230.512        0.933      169.913      143.403       91.761    28870.515    20564.485     8420.107        8.734        2.893      341.833       94.927        0.077      333.717        3.210      850.177
03/31/2014  20:38:00     -430.520     -159.034      -27.871      172.400      125.589       76.636    29721.926    15772.718     5873.136       13.138        2.568      458.955       80.377        0.031      333.751        3.267      850.172
03/31/2014  20:39:00     -274.679     -125.418        0.562      188.780      173.010      105.227    35637.852    29932.519    11072.643        8.390        3.832      301.957      102.707        0.116      333.829        3.396      850.147
03/31/2014  20:40:00     -321.127     -178.159       -3.586      250.185      125.036      105.315    62592.433    15634.036    11091.249       11.208        4.466      367.237      140.225        0.146      333.808        3.361      850.129
03/31/2014  20:41:00     -300.609      -97.470       -7.379      137.415      123.415       66.379    18882.938    15231.340     4406.220        6.921        1.926      316.016       69.834        0.049      333.796        3.341      850.136
03/31/2014  20:42:00     -202.072     -203.037        3.593      172.866      137.478       77.427    29882.642    18900.302     5994.988        6.841        2.739      286.456       89.787        0.098      333.832        3.402      850.155
03/31/2014  20:43:00     -256.548     -225.987       -3.617      205.024      168.763       97.709    42034.911    28480.834     9546.988        9.847        4.003      341.887       96.474        0.080      333.790        3.331      850.082
03/31/2014  20:44:00     -152.825     -105.715       22.032      175.635      102.978       70.131    30847.805    10604.505     4918.372        4.068        2.319      185.826       84.613        0.207      333.799        3.348      850.082
03/31/2014  20:45:00     -190.347     -103.978        3.789      151.229      114.899       67.650    22870.341    13201.728     4576.545        4.385        2.032      216.895       75.980        0.123      333.762        3.287      850.049
03/31/2014  20:46:00     -161.543     -132.529        0.477      118.838      130.719       64.387    14122.561    17087.368     4145.711        3.950        1.768      208.950       59.015        0.080      333.768        3.296      850.017
03/31/2014  20:47:00     -354.921     -124.850      -21.583      196.419      108.689       69.883    38580.471    11813.404     4883.565        9.864        2.764      376.240       88.763        0.056      333.791        3.333      849.988
03/31/2014  20:48:00     -314.311     -301.516        4.489      176.167      168.201      114.327    31034.719    28291.526    13070.578       13.105        3.620      435.550      114.524        0.069      333.808        3.362      849.966
03/31/2014  20:49:00     -280.413     -165.228      -12.173      141.114      102.180       62.804    19913.114    10440.821     3944.327        7.018        1.715      325.471       56.191        0.030      333.800        3.347      849.936
03/31/2014  20:50:00     -187.960     -145.682        3.210      108.390       99.449       57.126    11748.383     9890.118     3263.341        4.073        1.245      237.807       51.405        0.047      333.823        3.386      849.890
03/31/2014  20:51:00     -264.600      -19.810      -22.387      146.074       96.168       58.484    21337.613     9248.293     3420.384        5.245        1.700      265.340       63.234        0.057      333.767        3.293      849.855
03/31/2014  20:52:00     -216.118      -97.136      -12.497      122.119       97.423       46.751    14913.141     9491.269     2185.624        4.144        1.330      236.944       47.383        0.040      333.802        3.353      849.824
03/31/2014  20:53:00     -150.727      -76.990       10.161      140.669      116.206       69.486    19787.641    13503.935     4828.330        3.343        1.906      169.252       65.618        0.150      333.803        3.354      849.824
03/31/2014  20:54:00     -233.616      -93.550       -2.933      167.407       88.739       59.057    28025.066     7874.697     3487.699        5.135        1.969      251.650       64.692        0.066      333.801        3.352      849.819
03/31/2014  20:55:00     -148.359      -65.240        0.932      111.461      104.595       47.903    12423.663    10940.091     2294.679        2.596        1.283      162.070       38.516        0.056      333.798        3.346      849.825
03/31/2014  20:56:00     -326.037     -138.862      -27.735      127.234      144.414       63.381    16188.436    20855.343     4017.089        8.370        2.053      354.377       45.322        0.016      333.822        3.386      849.841
03/31/2014  20:57:00     -192.807      -54.364       -8.156      139.735      109.414       57.245    19525.865    11971.433     3276.965        3.748        1.739      200.325       62.571        0.098      333.886        3.493      849.846
03/31/2014  20:58:00      -84.954       -4.539        3.823       92.803       70.849       51.899     8612.394     5019.519     2693.505        1.179        0.816       85.076       54.645        0.413      333.898        3.515      849.867
03/31/2014  20:59:00     -164.922      -93.468        3.805      142.519       92.715       60.877    20311.740     8596.019     3706.050        3.428        1.631      189.567       72.598        0.147      333.886        3.493      849.863
03/31/2014  21:00:00     -167.914      -11.013      -12.800       78.465       69.729       45.377     6156.754     4862.167     2059.110        2.078        0.654      168.275       42.239        0.063      333.840        3.418      849.849
03/31/2014  21:01:00     -238.901       14.788      -13.664      106.541       92.650       40.012    11350.911     8583.988     1600.927        3.950        1.077      239.359       36.048        0.023      333.815        3.374      849.851
03/31/2014  21:02:00     -106.759      -52.030       -0.294       66.603       76.334       44.799     4436.017     5826.940     2006.950        1.318        0.613      118.763       45.426        0.146      333.871        3.470      849.837
03/31/2014  21:03:00     -226.535      -79.721      -10.614      110.984       83.658       44.018    12317.348     6998.680     1937.560        3.952        1.063      240.153       41.564        0.030      333.931        3.568      849.820
03/31/2014  21:04:00     -260.204       -6.815       -9.728      108.549      119.362       59.300    11782.974    14247.271     3516.520        4.869        1.477      260.294       49.094        0.036      333.939        3.581      849.799
03/31/2014  21:05:00     -120.121     -125.069       12.517      155.555      124.424       73.280    24197.312    15481.380     5370.008        3.763        2.252      173.411       91.841        0.280      334.001        3.684      849.785
03/31/2014  21:06:00     -218.956     -159.404      -11.360      142.615       94.615       58.932    20339.102     8952.020     3473.002        5.312        1.638      270.835       67.123        0.061      334.014        3.705      849.793
03/31/2014  21:07:00     -437.721     -186.705      -23.059      209.494      124.958       75.575    43887.921    15614.466     5711.623       14.609        3.261      475.876       83.821        0.031      334.081        3.814      849.770
03/31/2014  21:08:00     -306.855      -71.389       -4.896      130.952      101.885       57.587    17148.440    10380.477     3316.276        6.506        1.542      315.050       58.351        0.034      334.110        3.864      849.774
03/31/2014  21:09:00     -401.745      -56.275      -43.948      194.976      195.145       75.340    38015.673    38081.380     5676.151       12.412        4.089      405.667       78.242        0.037      334.160        3.945      849.799
03/31/2014  21:10:00     -525.571     -217.957      -28.165      255.547      220.307       98.211    65304.368    48535.321     9645.417       22.398        6.174      568.973      110.426        0.038      334.172        3.964      849.820
03/31/2014  21:11:00     -359.168     -191.849       -2.291      156.627      130.171       69.308    24532.100    16944.433     4803.667       10.604        2.314      407.195       69.831        0.029      334.179        3.976      849.846
03/31/2014  21:12:00     -266.258     -106.121        5.767      233.301      153.022       78.688    54429.301    23415.637     6191.808        8.310        4.202      286.627       97.455        0.116      334.202        4.015      849.847
03/31/2014  21:13:00     -347.319     -122.865       -1.537      205.824      144.357       83.892    42363.551    20839.012     7037.932       10.297        3.512      368.410      104.740        0.081      334.109        3.860      849.808
03/31/2014  21:14:00     -187.973     -132.414       18.143      194.025      149.906      102.081    37645.616    22471.691    10420.606        6.185        3.527      229.929      111.823        0.237      334.123        3.886      849.770
03/31/2014  21:15:00     -248.076      -83.242        2.237      181.814      169.440       73.787    33056.246    28709.820     5444.504        6.783        3.361      261.670       82.036        0.098      334.099        3.844      849.764
03/31/2014  21:16:00     -229.710     -196.430       -8.775      180.361      138.575       82.694    32530.243    19203.067     6838.255        7.499        2.929      302.244      103.035        0.116      334.112        3.866      849.724
03/31/2014  21:17:00     -444.432      -68.598       -8.627      248.498      183.898       99.574    61751.244    33818.311     9915.008       15.387        5.274      449.695      120.945        0.072      334.058        3.777      849.707
03/31/2014  21:18:00     -397.030     -141.559        0.638      203.859      151.490       76.975    41558.461    22949.102     5925.223       12.404        3.522      421.512       91.227        0.047      334.102        3.849      849.729
03/31/2014  21:19:00     -398.102     -105.307      -24.141      214.393      165.768       92.567    45964.190    27478.902     8568.648       12.607        4.101      411.795      115.517        0.079      334.138        3.908      849.689
03/31/2014  21:20:00     -331.760      -36.947      -16.630      158.504      121.326       70.675    25123.579    14720.065     4994.973        7.826        2.242      333.811       80.104        0.058      334.136        3.905      849.737
03/31/2014  21:21:00     -317.618     -184.527       -8.530      199.503      148.696       84.127    39801.455    22110.423     7077.270       10.198        3.449      367.331       95.879        0.068      334.176        3.972      849.781
03/31/2014  21:22:00     -342.794     -245.449      -22.093      215.140      122.608       75.161    46285.223    15032.791     5649.217       12.259        3.348      421.608       88.909        0.044      334.199        4.009      849.789
03/31/2014  21:23:00     -240.027      -67.914       -4.930      188.376       87.035       67.352    35485.687     7575.031     4536.258        5.491        2.380      249.450       57.056        0.052      334.218        4.042      849.774
03/31/2014  21:24:00     -331.213      -61.698      -29.754      153.754      104.888       65.206    23640.155    11001.508     4251.869        7.664        1.945      336.911       38.376        0.013      334.180        3.978      849.782
03/31/2014  21:25:00     -270.789      -90.737      -19.510      122.448       93.220       46.935    14993.586     8689.986     2202.927        5.391        1.294      285.587       44.569        0.024      334.186        3.988      849.791
03/31/2014  21:26:00     -167.430      -78.979       10.928      167.892       87.742       80.803    28187.625     7698.662     6529.189        3.839        2.121      185.123       93.415        0.255      334.206        4.024      849.775
03/31/2014  21:27:00     -317.052      -78.069       -6.779      139.187      147.750       82.088    19372.949    21830.178     6738.405        7.729        2.397      326.522       77.138        0.056      334.166        3.955      849.727
03/31/2014  21:28:00     -188.859      -78.049        4.256      144.245      110.771       71.839    20806.541    12270.124     5160.889        4.000        1.912      204.351       69.823        0.117      334.170        3.962      849.705
03/31/2014  21:29:00     -167.384      -49.300       10.522      122.739      111.873       58.899    15064.947    12515.477     3469.109        3.080        1.552      174.494       66.501        0.145      334.139        3.910      849.701
03/31/2014  21:30:00     -331.227      -95.029      -14.780      121.143      117.966       64.200    14675.709    13915.930     4121.600        7.583        1.636      344.589       69.335        0.040      334.106        3.854      849.711
03/31/2014  21:31:00     -382.606      -55.534      -31.902      130.984      106.218       70.243    17156.928    11282.285     4934.133        9.192        1.669      386.615       60.751        0.025      334.094        3.834      849.725
03/31/2014  21:32:00     -519.462      -70.985      -39.241      151.074      127.435       68.069    22823.411    16239.567     4633.351       16.005        2.185      524.290       59.993        0.013      334.062        3.784      849.768
03/31/2014  21:33:00     -379.768      -77.891      -25.342      199.827      138.911       77.984    39930.844    19296.362     6081.504       10.811        3.265      387.674       93.393        0.058      334.066        3.790      849.809
03/31/2014  21:34:00     -220.484      -44.346       16.342      151.019      151.461       76.754    22806.762    22940.284     5891.110        5.123        2.582      224.900       76.318        0.115      334.082        3.816      849.833
03/31/2014  21:35:00     -268.419     -111.649       -4.384      164.634      125.333       90.048    27104.479    15708.332     8108.675        6.772        2.546      290.714       82.291        0.080      334.087        3.825      849.863
03/31/2014  21:36:00     -284.591        3.211       -9.236      201.156      133.470       66.394    40463.550    17814.114     4408.179        7.187        3.134      284.609       72.240        0.064      334.090        3.830      849.890
03/31/2014  21:37:00     -264.118     -138.268       -4.002      165.930      125.363       73.608    27532.746    15715.962     5418.189        6.877        2.433      298.121       85.938        0.083      334.110        3.862      849.909
03/31/2014  21:38:00     -137.222      -75.239        1.673      128.449      122.468       56.168    16499.048    14998.380     3154.800        2.957        1.733      156.495       69.055        0.195      334.152        3.934      849.918
03/31/2014  21:39:00     -310.450     -106.712       -6.060      196.823      123.176       73.968    38739.253    15172.315     5471.225        8.358        2.969      328.278      102.987        0.098      334.105        3.854      849.927
03/31/2014  21:40:00     -359.977        6.187      -28.626      152.679      114.973       63.269    23310.952    13218.867     4002.922        8.548        2.027      360.030       62.992        0.031      334.075        3.804      849.917
03/31/2014  21:41:00     -326.886     -125.777       -9.596      153.313      105.072       57.628    23504.740    11040.182     3321.035        8.031        1.893      350.249       55.779        0.025      334.096        3.839      849.933
03/31/2014  21:42:00     -189.042      -21.165      -10.900       82.378       81.196       43.291     6786.097     6592.780     1874.112        2.578        0.763      190.223       45.685        0.058      334.091        3.831      849.993
03/31/2014  21:43:00     -161.436      -78.063        1.537      113.943       73.778       49.602    12983.104     5443.192     2460.379        2.652        1.044      179.320       56.690        0.100      334.117        3.876      850.007
03/31/2014  21:44:00     -119.480     -115.769       16.015       95.822       83.499       55.936     9181.914     6972.089     3128.891        2.360        0.964      166.367       51.658        0.096      334.167        3.958      850.028
03/31/2014  21:45:00     -344.762      -87.211      -23.838      168.997      129.722       74.165    28559.995    16827.705     5500.374        8.895        2.544      355.622       87.365        0.060      334.155        3.937      850.052
03/31/2014  21:46:00     -166.019     -140.891       -5.158      113.451      113.040       67.914    12871.218    12778.084     4612.321        3.884        1.513      217.744       68.666        0.099      334.204        4.019      850.112
03/31/2014  21:47:00     -146.375     -240.821        5.888      110.162      126.873       61.597    12135.599    16096.817     3794.130        5.573        1.601      281.817       58.290        0.043      334.208        4.025      850.178
03/31/2014  21:48:00     -153.410     -214.231      -33.243      160.983      152.717       66.218    25915.445    23322.623     4384.885        6.207        2.681      263.495       49.152        0.035      334.251        4.097      850.209
03/31/2014  21:49:00      -91.698      -50.732       22.549       94.136       96.214       43.783     8861.507     9257.154     1916.957        1.576        1.002      104.796       52.275        0.249      334.206        4.025      850.258
03/31/2014  21:50:00     -108.087      -38.775        2.572       81.766       97.487       48.120     6685.696     9503.764     2315.549        1.585        0.925      114.831       50.345        0.192      334.232        4.070      850.260
03/31/2014  21:51:00     -192.449      -66.163        7.743      135.561      138.057       66.221    18376.919    19059.616     4385.233        4.164        2.091      203.504       61.821        0.092      334.190        3.995      850.254
03/31/2014  21:52:00     -242.961     -218.512       -5.157      144.893      135.821       70.029    20994.078    18447.382     4904.095        7.557        2.217      326.768       55.665        0.029      334.235        4.070      850.280
03/31/2014  21:53:00     -133.559     -122.664        9.222       99.871      100.442       57.539     9974.205    10088.608     3310.794        2.817        1.169      181.341       59.541        0.108      334.275        4.139      850.263
03/31/2014  21:54:00     -145.507     -109.378        3.343      107.677       70.343       48.983    11594.282     4948.143     2399.380        2.604        0.947      182.033       58.318        0.103      334.283        4.149      850.290
03/31/2014  21:55:00     -379.245      -30.805      -17.134      210.557      142.075       74.302    44334.353    20185.339     5520.810       10.754        3.502      380.494       90.742        0.057      334.245        4.087      850.296
03/31/2014  21:56:00     -365.788     -113.615      -13.395      188.605      198.439       85.846    35571.804    39378.230     7369.611       11.459        4.116      383.026       73.912        0.037      334.242        4.082      850.282
03/31/2014  21:57:00     -355.721     -255.840       -5.201      181.597      144.723       96.951    32977.588    20944.888     9399.530       12.766        3.166      438.169       90.776        0.043      334.265        4.120      850.312
03/31/2014  21:58:00     -413.705     -194.472      -29.342      208.128      181.655       93.518    43317.116    32998.696     8745.645       14.743        4.253      457.134      103.172        0.051      334.230        4.062      850.310
03/31/2014  21:59:00     -398.555     -155.828      -23.311      186.591      103.122       77.116    34816.310    10634.108     5946.875       11.752        2.570      427.935       87.547        0.042      334.204        4.019      850.344
03/31/2014  22:00:00     -376.954     -140.886      -11.876      321.144      174.368      100.818   103133.754    30404.279    10164.291       15.286        7.185      402.422      124.135        0.095      334.182        3.983      850.345
03/31/2014  22:01:00     -173.687      -79.883       30.136      195.984      171.043       93.708    38409.907    29255.540     8781.204        5.694        3.822      191.177       97.924        0.262      334.193        4.001      850.334
03/31/2014  22:02:00     -295.308      -26.635        2.602      207.172      118.824       77.786    42920.255    14119.256     6050.593        7.549        3.155      296.506       93.361        0.099      334.116        3.873      850.379
03/31/2014  22:03:00     -340.192     -122.603       -2.816      195.190      150.673       85.877    38098.966    22702.290     7374.886        9.946        3.409      361.610       89.494        0.061      334.075        3.805      850.383
03/31/2014  22:04:00     -407.415       35.188      -16.460      209.574      143.148       91.506    43921.268    20491.359     8373.416       12.013        3.639      408.931       93.231        0.052      334.009        3.696      850.409
03/31/2014  22:05:00     -383.892      -52.078       -5.832      170.764      147.424       72.946    29160.285    21733.763     5321.103       10.316        2.811      387.408       74.794        0.037      333.981        3.649      850.424
03/31/2014  22:06:00     -325.902      -78.012       -0.888      165.854      159.311       71.509    27507.564    25380.097     5113.485        8.514        2.900      335.109       78.664        0.055      333.970        3.632      850.386
03/31/2014  22:07:00     -444.833      -39.459      -13.122      223.230      177.888       76.449    49831.637    31644.265     5844.421       14.345        4.366      446.580       84.789        0.036      333.954        3.605      850.385
03/31/2014  22:08:00     -306.553      -84.230        0.530      209.255      148.501       89.897    43787.492    22052.571     8081.433        8.748        3.696      317.914      109.423        0.118      333.978        3.644      850.391
03/31/2014  22:09:00     -608.420     -134.091      -13.079      278.756      165.093      108.477    77705.180    27255.855    11767.156       25.250        5.836      623.021      135.485        0.047      333.884        3.488      850.458
03/31/2014  22:10:00     -347.493     -109.232        6.663      225.030      166.326       97.717    50638.693    27664.251     9548.604       11.027        4.393      364.257      101.540        0.078      333.910        3.532      850.522
03/31/2014  22:11:00     -266.023      -47.233      -10.237      192.146      142.273       78.736    36920.026    20241.733     6199.366        6.822        3.168      270.183       72.790        0.073      333.922        3.551      850.550
03/31/2014  22:12:00     -297.030      -16.055       -1.703      217.515      143.933       74.939    47312.705    20716.774     5615.840        8.105        3.682      297.464       93.385        0.099      333.865        3.457      850.566
03/31/2014  22:13:00     -617.742     -216.813      -16.389      288.638      223.167      113.386    83312.129    49803.468    12856.458       28.740        7.299      654.685      121.716        0.035      333.829        3.396      850.558
03/31/2014  22:14:00     -484.115     -148.472      -22.530      192.664      166.299       87.791    37119.512    27655.421     7707.234       16.469        3.624      506.371       94.353        0.035      333.862        3.452      850.647
03/31/2014  22:15:00     -457.643      -99.806      -31.883      223.778      158.954       77.718    50076.446    25266.222     6040.124       15.088        4.069      468.399       83.667        0.032      333.845        3.424      850.683
03/31/2014  22:16:00     -320.272     -155.294       -9.435      159.467      141.667       76.422    25429.636    20069.590     5840.323        8.905        2.567      355.936       57.492        0.026      333.854        3.438      850.696
03/31/2014  22:17:00     -312.796     -146.054       -8.938      192.618      148.147       86.271    37101.729    21947.663     7442.741        9.286        3.325      345.215       83.049        0.058      333.793        3.335      850.748
03/31/2014  22:18:00     -303.501     -192.076      -10.543      181.592      202.931       87.511    32975.621    41180.985     7658.089       10.545        4.091      359.174      100.301        0.078      333.761        3.283      850.817
03/31/2014  22:19:00     -366.292     -316.381       14.184      238.672      211.769      119.273    56964.477    44846.251    14226.164       17.523        5.802      484.011      141.810        0.086      333.703        3.189      850.827
03/31/2014  22:20:00     -299.497     -238.893       -2.138      224.226      171.342      103.894    50277.355    29357.956    10793.915       11.858        4.521      383.104      113.683        0.088      333.683        3.154      850.812
03/31/2014  22:21:00     -390.763     -205.387       -2.148      203.341      209.069       90.034    41347.712    43710.051     8106.184       14.401        4.658      441.452      108.431        0.060      333.638        3.082      850.780
03/31/2014  22:22:00     -579.575     -267.022      -21.907      264.101      180.579      101.473    69749.330    32608.824    10296.762       26.015        5.633      638.129      129.425        0.041      333.574        2.975      850.785
03/31/2014  22:23:00     -436.480     -232.038       -9.010      203.852      145.937       84.094    41555.448    21297.467     7071.865       15.717        3.496      494.324       87.604        0.031      333.592        3.006      850.737
03/31/2014  22:24:00     -309.115     -119.605        1.001      159.654      127.632       75.025    25489.283    16289.936     5628.806        7.862        2.370      331.448       70.812        0.046      333.594        3.007      850.713
03/31/2014  22:25:00     -490.575     -396.299      -15.884      259.490      187.902      111.140    67334.944    35307.309    12352.123       25.646        5.750      630.648      116.094        0.034      333.557        2.946      850.678
03/31/2014  22:26:00     -367.866     -208.167       -2.189      197.604      147.159       95.833    39047.331    21655.670     9183.932       12.426        3.494      422.681       99.820        0.056      333.570        2.967      850.636
03/31/2014  22:27:00     -396.935     -179.453       -2.753      249.500      173.361       95.496    62250.366    30054.168     9119.559       14.558        5.071      435.616      105.471        0.059      333.529        2.900      850.618
03/31/2014  22:28:00     -385.053     -218.318      -16.729      207.987      153.375       82.812    43258.561    23523.951     6857.872       13.491        3.682      442.639       95.065        0.046      333.535        2.910      850.643
03/31/2014  22:29:00     -395.779     -292.790       -2.287      199.614      174.268       93.887    39845.940    30369.499     8814.706       16.069        3.952      492.308       93.354        0.036      333.520        2.885      850.643
03/31/2014  22:30:00     -441.628     -307.966      -13.363      173.084      187.160       91.681    29958.005    35028.694     8405.479       18.171        3.670      538.403       91.824        0.029      333.517        2.880      850.647
03/31/2014  22:31:00     -438.643     -332.004        1.265      221.426      181.763      106.221    49029.622    33037.759    11282.823       19.797        4.668      550.122      112.109        0.042      333.504        2.859      850.636
03/31/2014  22:32:00     -261.392     -175.760        9.913      178.602      144.110       69.858    31898.573    20767.749     4880.095        7.842        2.877      314.988       82.535        0.069      333.535        2.910      850.636
03/31/2014  22:33:00     -296.678     -215.003       15.533      217.244      205.022      100.850    47194.766    42034.068    10170.790       11.692        4.970      366.394      109.318        0.089      333.560        2.951      850.632
03/31/2014  22:34:00     -327.564     -297.680       -3.761      202.723      178.486      104.535    41096.508    31857.299    10927.468       13.989        4.194      442.619      110.485        0.062      333.556        2.945      850.603
03/31/2014  22:35:00     -498.085     -363.320      -32.183      168.404      190.602       88.435    28359.962    36329.122     7820.678       22.680        3.625      616.514       84.324        0.019      333.534        2.908      850.591
03/31/2014  22:36:00     -278.825     -189.615       13.110      181.907      117.610       84.790    33090.197    13832.099     7189.378        8.398        2.706      337.191      101.773        0.091      333.556        2.945      850.601
03/31/2014  22:37:00     -339.516     -213.480       -3.376      148.539      150.733       80.638    22063.795    22720.496     6502.510       10.606        2.564      401.055       73.520        0.034      333.518        2.881      850.620
03/31/2014  22:38:00     -299.360     -256.231       -5.979      207.513      168.517       99.998    43061.852    28397.965     9999.595       11.837        4.073      394.044      114.767        0.085      333.517        2.880      850.592
03/31/2014  22:39:00     -278.203     -186.982        2.390      140.006      139.417       65.738    19601.659    19436.961     4321.519        7.785        2.168      335.200       81.441        0.059      333.508        2.864      850.611
03/31/2014  22:40:00     -310.746     -182.567        3.732      182.091      156.594       82.391    33157.059    24521.683     6788.300        9.717        3.223      360.407      106.599        0.087      333.498        2.849      850.621
03/31/2014  22:41:00     -305.625     -186.500        5.367      185.450      143.949       83.000    34391.569    20721.353     6888.979        9.510        3.100      358.035       85.718        0.057      333.498        2.849      850.604
03/31/2014  22:42:00     -223.157      -90.598       -8.801      146.172      115.568       77.333    21366.168    13356.046     5980.368        4.939        2.035      240.846       76.735        0.102      333.511        2.870      850.627
03/31/2014  22:43:00     -227.798     -131.208        8.921      182.848      144.824       88.222    33433.300    20973.893     7783.193        6.568        3.110      262.883       86.008        0.107      333.507        2.863      850.601
03/31/2014  22:44:00     -266.842     -142.792        2.238      188.292      119.142       76.182    35454.061    14194.866     5803.627        7.351        2.773      302.645       81.604        0.073      333.514        2.874      850.603
03/31/2014  22:45:00     -343.412     -190.986      -18.583      192.243      146.046       87.660    36957.467    21329.319     7684.355       11.035        3.299      392.948       90.578        0.053      333.506        2.862      850.583
03/31/2014  22:46:00     -509.079     -238.720       -8.224      282.133      172.729       86.350    79598.758    29835.341     7456.242       21.653        5.845      562.270       90.725        0.026      333.514        2.874      850.561
03/31/2014  22:47:00     -511.152     -312.669      -39.361      247.332      228.521      113.906    61173.241    52221.719    12974.689       24.345        6.318      599.198      115.963        0.037      333.558        2.948      850.543
03/31/2014  22:48:00     -391.603     -161.079      -21.360      219.989      174.224       91.871    48395.105    30354.145     8440.290       13.345        4.359      423.437      109.050        0.066      333.582        2.987      850.584
03/31/2014  22:49:00     -485.468     -209.712      -25.424      184.172      221.936       95.768    33919.371    49255.589     9171.504       18.631        4.617      528.827       97.326        0.034      333.528        2.899      850.541
03/31/2014  22:50:00     -320.111     -175.530        4.602      205.216      162.778      102.902    42113.538    26496.667    10588.735       10.624        3.960      365.078      107.085        0.086      333.522        2.889      850.543
03/31/2014  22:51:00     -446.492     -273.691      -19.453      238.940      177.712      120.546    57092.527    31581.564    14531.276       18.890        5.160      523.700      134.618        0.066      333.482        2.822      850.525
03/31/2014  22:52:00     -526.669     -196.239      -23.923      245.117      221.800      103.239    60082.257    49195.317    10658.264       21.817        5.997      562.040      107.176        0.036      333.474        2.809      850.542
03/31/2014  22:53:00     -348.543     -151.540       -2.306      181.996      199.982      101.995    33122.704    39992.762    10402.893       11.397        4.176      380.061       98.314        0.067      333.484        2.825      850.548
03/31/2014  22:54:00     -412.809     -184.338      -11.231      241.793      190.317       97.940    58463.945    36220.726     9592.302       15.438        5.214      452.097      106.337        0.055      333.475        2.811      850.591
03/31/2014  22:55:00     -491.436     -240.598      -17.849      202.881      165.061       97.973    41160.805    27245.290     9598.779       18.884        3.900      547.172       96.686        0.031      333.478        2.816      850.611
03/31/2014  22:56:00     -507.581     -339.201      -21.620      329.968      262.060      140.761   108878.603    68675.391    19813.610       28.523        9.868      610.488      163.154        0.071      333.503        2.857      850.602
03/31/2014  22:57:00     -424.319     -225.175       -2.181      222.907      229.614       99.022    49687.568    52722.513     9805.410       17.146        5.611      480.364      111.085        0.053      333.516        2.877      850.630
03/31/2014  22:58:00     -242.998     -206.999       -0.693      256.781      185.977      113.279    65936.696    34587.397    12832.177       10.760        5.668      319.213      131.798        0.170      333.538        2.915      850.622
03/31/2014  22:59:00     -448.757     -243.527      -17.657      248.890      157.094      109.117    61946.228    24678.570    11906.548       17.975        4.927      510.577      124.316        0.059      333.511        2.870      850.627
03/31/2014  23:00:00     -380.271     -260.639       -7.691      248.451      169.746      106.620    61727.806    28813.663    11367.831       15.723        5.095      461.020      120.437        0.068      333.523        2.889      850.627
03/31/2014  23:01:00     -546.463     -395.661      -11.231      359.855      262.272      124.151   129495.710    68786.370    15413.588       33.445       10.685      674.662      168.216        0.062      333.505        2.860      850.608
03/31/2014  23:02:00     -558.317     -324.455       -6.802      289.797      193.470      123.264    83982.563    37430.580    15194.057       27.679        6.830      645.747      151.628        0.055      333.496        2.844      850.594
03/31/2014  23:03:00     -283.004     -210.719       11.496      243.911      199.467       88.826    59492.377    39786.937     7890.048       11.588        5.358      352.837       95.527        0.073      333.525        2.894      850.636
03/31/2014  23:04:00     -647.606     -310.534      -36.611      244.447      204.739      124.044    59754.445    41917.934    15387.015       31.709        5.853      718.210      145.148        0.041      333.455        2.777      850.606
03/31/2014  23:05:00     -320.171     -171.760       10.244      257.305      158.633      110.574    66205.995    25164.538    12226.586       11.784        5.180      363.333      131.647        0.131      333.470        2.803      850.582
03/31/2014  23:06:00     -313.499     -247.586       -2.208      168.504      168.715       93.171    28393.728    28464.794     8680.779       11.255        3.277      399.475       77.947        0.038      333.465        2.794      850.600
03/31/2014  23:07:00     -533.939     -308.893       -1.436      300.461      259.978      129.888    90276.880    67588.652    16870.841       27.759        8.737      616.852      160.143        0.067      333.412        2.708      850.569
03/31/2014  23:08:00     -423.810     -303.492       10.061      262.865      166.284      106.793    69097.790    27650.204    11404.725       18.997        5.408      521.270      128.610        0.061      333.414        2.710      850.582
03/31/2014  23:09:00     -284.460     -283.318       -1.260      189.087      207.321       99.843    35753.989    42981.959     9968.577       12.493        4.435      401.481       94.847        0.056      333.428        2.733      850.603
03/31/2014  23:10:00     -459.255     -279.674        7.016      319.800      236.516      111.044   102272.090    55939.593    12330.829       22.983        8.527      537.711      148.681        0.076      333.412        2.707      850.588
03/31/2014  23:11:00     -410.912     -224.980        5.526      245.883      166.947       99.874    60458.444    27871.451     9974.856       15.888        4.915      468.471      102.406        0.048      333.426        2.730      850.595
03/31/2014  23:12:00     -444.046     -312.482       -3.261      221.340      192.513       96.877    48991.227    37061.345     9385.147       19.512        4.772      542.975       93.400        0.030      333.398        2.684      850.568
03/31/2014  23:13:00     -379.705     -300.225       -9.685      273.716      181.942       96.768    74920.448    33102.903     9363.994       17.587        5.869      484.056      107.830        0.050      333.401        2.689      850.566
03/31/2014  23:14:00     -328.414     -201.994        4.041      204.733      135.331       98.847    41915.679    18314.587     9770.652       10.932        3.500      385.561      112.704        0.085      333.415        2.712      850.610
03/31/2014  23:15:00     -256.121     -110.657        9.552      170.757      150.703       98.558    29157.942    22711.270     9713.663        6.975        3.079      279.004      101.745        0.133      333.398        2.685      850.623
03/31/2014  23:16:00     -248.526     -306.371       11.100      232.502      219.555      106.769    54057.003    48204.253    11399.631       13.468        5.683      394.498      132.032        0.112      333.393        2.676      850.611
03/31/2014  23:17:00     -378.763     -379.241       -8.580      235.271      181.893       98.662    55352.533    33085.152     9734.178       19.275        4.909      535.990      105.709        0.039      333.385        2.661      850.580
03/31/2014  23:18:00     -314.105     -316.666      -16.072      181.351      200.996       93.997    32888.204    40399.587     8835.435       14.064        4.106      446.026       98.180        0.048      333.391        2.672      850.619
03/31/2014  23:19:00     -232.263     -274.500        1.643      220.014      203.740      120.110    48406.376    41510.130    14426.313       11.680        5.217      359.578      122.837        0.117      333.384        2.660      850.626
03/31/2014  23:20:00     -401.647     -258.623      -10.699      200.568      226.893       98.020    40227.417    51480.294     9607.919       16.480        5.066      477.709      116.742        0.060      333.362        2.626      850.645
03/31/2014  23:21:00     -279.189     -114.670       10.742      163.302      180.961       86.632    26667.623    32747.049     7505.165        7.905        3.346      301.821       88.301        0.086      333.371        2.639      850.676
03/31/2014  23:22:00     -478.441     -365.025      -13.122      262.033      188.285      102.711    68661.200    35451.274    10549.464       23.847        5.733      601.789      104.219        0.030      333.347        2.601      850.696
03/31/2014  23:23:00     -309.531     -264.835        1.486      148.772      174.806       82.908    22133.230    30557.139     6873.672       11.274        2.978      407.366       70.386        0.030      333.353        2.610      850.678
03/31/2014  23:24:00     -311.054     -206.670        1.622      209.635      164.607       93.740    43946.762    27095.518     8787.207       10.963        3.991      373.453       88.622        0.056      333.359        2.620      850.704
03/31/2014  23:25:00     -282.629     -250.839       16.094      206.411      206.229      101.426    42605.361    42530.508    10287.184       11.922        4.771      377.888      113.736        0.091      333.363        2.626      850.704
03/31/2014  23:26:00     -244.563     -130.411       -0.314      135.635      127.214       60.140    18396.809    16183.352     3616.871        5.750        1.910      277.161       58.875        0.045      333.341        2.588      850.677
03/31/2014  23:27:00     -278.155     -154.329       -0.125      140.626      122.674       79.398    19775.650    15049.025     6304.048        7.115        2.056      318.100       74.659        0.055      333.315        2.546      850.694
03/31/2014  23:28:00     -246.602     -300.919       -3.606      184.040      213.179       82.156    33870.842    45445.201     6749.564       11.870        4.303      389.056       81.983        0.044      333.326        2.564      850.684
03/31/2014  23:29:00     -264.232     -248.204      -20.756      160.878      150.547       77.558    25881.838    22664.504     6015.200        9.320        2.728      362.524       67.032        0.034      333.330        2.571      850.659
03/31/2014  23:30:00     -337.605     -128.545       12.434      225.212      169.561       95.163    50720.249    28751.029     9055.963       10.957        4.426      361.249      112.966        0.098      333.315        2.547      850.689
03/31/2014  23:31:00     -272.284     -174.503      -22.931      206.344      179.896       80.414    42577.697    32362.489     6466.453        9.324        4.070      323.403       90.215        0.078      333.332        2.574      850.722
03/31/2014  23:32:00     -306.916     -217.038       -3.887      164.274      147.751       65.876    26985.918    21830.408     4339.613        9.723        2.658      375.903       60.230        0.026      333.348        2.600      850.771
03/31/2014  23:33:00     -340.924     -183.653        9.409      274.530      231.913       89.849    75366.531    53783.741     8072.778       14.361        6.861      387.244      127.560        0.109      333.308        2.537      850.784
03/31/2014  23:34:00     -423.777     -218.728      -13.824      226.972      162.952      104.598    51516.375    26553.265    10940.742       15.830        4.451      476.895      103.244        0.047      333.307        2.533      850.789
03/31/2014  23:35:00     -504.571     -348.186      -14.269      266.136      256.417      108.246    70828.300    65749.870    11717.134       26.213        7.415      613.046      111.443        0.033      333.280        2.488      850.772
03/31/2014  23:36:00     -413.542     -336.930       11.662      257.782      227.869      117.417    66451.382    51924.292    13786.696       20.839        6.608      533.421      134.939        0.064      333.254        2.446      850.741
03/31/2014  23:37:00     -296.782     -100.288      -21.934      139.759      167.977       67.887    19532.463    28216.369     4608.598        7.548        2.618      313.268       48.145        0.024      333.229        2.403      850.814
03/31/2014  23:38:00     -135.184      -82.768       31.199      171.077      140.680       72.776    29267.296    19790.793     5296.346        4.022        2.718      158.509       76.223        0.231      333.235        2.416      850.809
03/31/2014  23:39:00     -143.486     -130.095        3.605      143.079      121.295       65.196    20471.581    14712.449     4250.564        3.847        1.972      193.683       79.971        0.170      333.252        2.444      850.834
03/31/2014  23:40:00     -232.323     -162.652       -2.486      181.948      122.184       75.653    33105.090    14928.837     5723.359        6.709        2.688      283.601       96.859        0.117      333.196        2.349      850.863
03/31/2014  23:41:00     -306.037      -25.417      -28.043      129.082      150.499       74.536    16662.156    22649.928     5555.672        6.997        2.243      307.091       74.685        0.059      333.174        2.313      850.891
03/31/2014  23:42:00     -411.128     -107.949      -12.396      252.902      171.343       85.960    63959.601    29358.468     7389.186       14.075        5.035      425.064      114.268        0.072      333.156        2.285      850.913
03/31/2014  23:43:00     -214.984      -47.373       11.640      171.752      126.228       81.890    29498.886    15933.559     6705.982        5.036        2.607      220.141       85.732        0.152      333.160        2.291      850.954
03/31/2014  23:44:00     -447.745      -62.938       -3.282      202.604      173.299       97.073    41048.498    30032.700     9423.098       14.246        4.025      452.147      103.120        0.052      333.113        2.213      850.965
03/31/2014  23:45:00     -286.695      -43.174      -15.823      112.213      109.223       64.094    12591.824    11929.727     4107.992        5.646        1.431      289.927       46.225        0.025      333.119        2.223      851.009
03/31/2014  23:46:00     -286.713      -92.709        2.372      167.813      182.906       71.066    28161.288    33454.423     5050.316        7.872        3.333      301.329       77.095        0.065      333.111        2.211      850.976
03/31/2014  23:47:00     -453.448        4.337      -31.434      183.321      139.825       74.021    33606.635    19550.903     5479.051       13.262        2.932      453.468       84.616        0.035      333.059        2.123      850.979
03/31/2014  23:48:00     -318.354      -32.334      -11.694      137.985      121.594       70.370    19039.740    14785.088     4951.933        7.065        1.939      319.991       64.157        0.040      333.044        2.099      850.959
03/31/2014  23:49:00     -450.360      -57.796      -29.086      127.919       81.123       60.554    16363.202     6580.954     3666.753       11.681        1.331      454.053       56.283        0.015      333.033        2.080      850.982
03/31/2014  23:50:00     -442.629      -98.821      -17.920      157.497      173.324       75.703    24805.395    30041.246     5730.922       13.328        3.029      453.526       80.726        0.032      333.022        2.061      850.954
03/31/2014  23:51:00     -305.465     -129.814      -21.781      139.343      105.915       58.695    19416.418    11217.918     3445.148        7.235        1.704      331.905       62.074        0.035      333.031        2.076      850.935
03/31/2014  23:52:00     -257.906      -89.167       -1.214      116.749       98.029       56.527    13630.250     9609.600     3195.297        5.045        1.322      272.885       58.102        0.045      332.991        2.012      850.931
03/31/2014  23:53:00     -382.236      -45.877      -39.542      156.981       98.712       60.526    24642.929     9744.032     3663.410        9.390        1.903      384.979       56.149        0.021      332.981        1.992      850.944
03/31/2014  23:54:00     -250.207     -178.489       -9.105      149.702      185.340       74.491    22410.625    34350.920     5548.972        7.841        3.116      307.346       77.755        0.064      332.985        1.999      850.924
03/31/2014  23:55:00     -285.101      -58.187       -4.039      164.371      141.725       67.841    27017.864    20086.037     4602.430        6.819        2.585      290.978       81.443        0.078      332.968        1.972      850.884
03/31/2014  23:56:00     -341.741     -125.034        0.348      128.663      139.177       67.850    16554.252    19370.320     4603.635        8.647        2.026      363.896       68.408        0.035      332.967        1.971      850.896
03/31/2014  23:57:00     -259.836      -80.770       -2.686      129.716      105.039       57.577    16826.356    11033.105     3315.069        5.260        1.559      272.100       61.880        0.052      332.944        1.934      850.936
03/31/2014  23:58:00     -354.780      -64.490       -6.361      203.600      155.989       84.598    41452.999    24332.604     7156.887       10.149        3.647      360.593       99.244        0.076      332.958        1.955      850.916
03/31/2014  23:59:00     -433.706        2.772      -24.792      187.341      137.221       81.795    35096.669    18829.728     6690.479       12.466        3.031      433.715       84.181        0.038      332.941        1.927      850.950
